[[{"header":{"parameterUnit":"m.s-1","parameterCategory":1,"la1":31.0,"la2":29.5877,"lo1":-88.7671,"lo2":-86.6584,"dy":0.0162,"dx":0.0185,"nx":115,"ny":88,"refTime":"2023-04-02T12:00:00:Z","depth":0,"parameterNumber":2,"parameterNumberName":"U-component_of_WINDS"},"data":[0.0,0.0,0.0,0.0,0.0,0.0,0.0,0.0,0.0,0.0,0.0,0.0,0.0,0.0,0.0,0.0,0.0,0.0,0.0,0.0,0.0,0.0,0.0,0.0,0.0,0.0,0.0,0.0,0.0,0.0,0.0,0.0,0.0,0.0,0.0,0.0,0.0,0.0,0.0,0.0,0.0,0.0,0.0,0.0,0.0,0.0,0.0,0.0,0.0,0.0,0.0,0.0,0.0,0.0,0.0,0.0,0.0,0.0,0.0,0.0,0.0,0.0,0.0,0.0,0.0,0.0,0.0,0.0,0.0,0.0,0.0,0.0,0.0,0.0,0.0,0.0,0.0,0.0,0.0,0.0,0.0,0.0,0.0,0.0,0.0,0.0,0.0,0.0,0.0,0.0,0.0,0.0,0.0,0.0,0.0,0.0,0.0,0.0,0.0,0.0,0.0,0.0,0.0,0.0,0.0,0.0,0.0,0.0,0.0,0.0,0.0,0.0,0.0,0.0,0.0,0.0,0.0,0.0,0.0,0.0,0.0,0.0,0.0,0.0,0.0,0.0,0.0,0.0,0.0,0.0,0.0,0.0,0.0,0.0,0.0,0.0,0.0,0.0,0.0,0.0,0.0,0.0,0.0,0.0,0.0,0.0,0.0,0.0,0.0,0.0,0.0,0.0,0.0,0.0,0.0,0.0,0.0,0.0,0.0,0.0,0.0,0.0,0.0,0.0,0.0,0.0,0.0,0.0,0.0,0.0,0.0,0.0,0.0,0.0,0.0,0.0,0.0,0.0,0.0,0.0,0.0,0.0,0.0,0.0,0.0,0.0,0.0,0.0,0.0,0.0,0.0,0.0,0.0,0.0,0.0,0.0,0.0,0.0,0.0,0.0,0.0,0.0,0.0,0.0,0.0,0.0,0.0,0.0,0.0,0.0,0.0,0.0,0.0,0.0,0.0,0.0,0.0,0.0,0.0,0.0,0.0,0.0,0.0,0.0,0.0,0.0,0.0,0.0,0.0,0.0,0.0,0.0,0.0,0.0,0.0,0.0,0.0,0.0,0.0,0.0,0.0,0.0,0.0,0.0,0.0,0.0,0.0,0.0,0.0,0.0,0.0,0.0,0.0,0.0,0.0,0.0,0.0,0.0,0.0,0.0,0.0,0.0,0.0,0.0,0.0,0.0,0.0,0.0,0.0,0.0,0.0,0.0,0.0,0.0,0.0,0.0,0.0,0.0,0.0,0.0,0.0,0.0,0.0,0.0,0.0,0.0,0.0,0.0,0.0,0.0,0.0,0.0,0.0,0.0,0.0,0.0,0.0,0.0,0.0,0.0,0.0,0.0,0.0,0.0,0.0,0.0,0.0,0.0,0.0,0.0,0.0,0.0,0.0,0.0,0.0,0.0,0.0,0.0,0.0,0.0,0.0,0.0,0.0,0.0,0.0,0.0,0.0,0.0,0.0,0.0,0.0,0.0,0.0,0.0,0.0,0.0,0.0,0.0,0.0,0.0,0.0,0.0,0.0,0.0,0.0,0.0,0.0,0.0,0.0,0.0,0.0,0.0,0.0,0.0,0.0,0.0,0.0,0.0,0.0,0.0,0.0,0.0,0.0,0.0,0.0,0.0,0.0,0.0,0.0,0.0,0.0,0.0,0.0,0.0,0.0,0.0,0.0,0.0,0.0,0.0,0.0,0.0,0.0,0.0,0.0,0.0,0.0,0.0,0.0,0.0,0.0,0.0,0.0,0.0,0.0,0.0,0.0,0.0,0.0,0.0,0.0,0.0,0.0,0.0,0.0,0.0,0.0,0.0,0.0,0.0,0.0,0.0,0.0,0.0,0.0,0.0,0.0,0.0,0.0,0.0,0.0,0.0,0.0,0.0,0.0,0.0,0.0,0.0,0.0,0.0,0.0,0.0,0.0,0.0,0.0,0.0,0.0,0.0,0.0,0.0,0.0,0.0,0.0,0.0,0.0,0.0,0.0,0.0,0.0,0.0,0.0,0.0,0.0,0.0,0.0,0.0,0.0,0.0,0.0,0.0,0.0,0.0,0.0,0.0,0.0,0.0,0.0,0.0,0.0,0.0,0.0,0.0,0.0,0.0,0.0,0.0,0.0,0.0,0.0,0.0,0.0,0.0,0.0,0.0,0.0,0.0,0.0,0.0,0.0,0.0,0.0,0.0,0.0,0.0,0.0,0.0,0.0,0.0,0.0,0.0,0.0,0.0,0.0,0.0,0.0,0.0,0.0,0.0,0.0,0.0,0.0,0.0,0.0,0.0,0.0,0.0,0.0,0.0,0.0,0.0,0.0,0.0,0.0,0.0,0.0,0.0,0.0,0.0,0.0,0.0,0.0,0.0,0.0,0.0,0.0,0.0,0.0,0.0,0.0,0.0,0.0,0.0,0.0,0.0,0.0,0.0,0.0,0.0,0.0,0.0,0.0,0.0,0.0,0.0,0.0,0.0,0.0,0.0,0.0,0.0,0.0,0.0,0.0,0.0,0.0,0.0,0.0,0.0,0.0,0.0,0.0,0.0,0.0,0.0,0.0,0.0,0.0,0.0,0.0,0.0,0.0,0.0,0.0,0.0,0.0,0.0,0.0,0.0,0.0,0.0,0.0,0.0,0.0,0.0,0.0,0.0,0.0,0.0,0.0,0.0,0.0,0.0,0.0,0.0,0.0,0.0,0.0,0.0,0.0,0.0,0.0,0.0,0.0,0.0,0.0,0.0,0.0,0.0,0.0,0.0,0.0,0.0,0.0,0.0,0.0,0.0,0.0,0.0,0.0,0.0,0.0,0.0,0.0,0.0,0.0,0.0,0.0,0.0,0.0,0.0,0.0,0.0,0.0,0.0,0.0,0.0,0.0,0.0,0.0,0.0,0.0,0.0,0.0,0.0,0.0,0.0,0.0,0.0,0.0,0.0,0.0,0.0,0.0,0.0,0.0,0.0,0.0,0.0,0.0,0.0,0.0,0.0,0.0,0.0,0.0,0.0,0.0,0.0,0.0,0.0,0.0,0.0,0.0,0.0,0.0,0.0,0.0,0.0,0.0,0.0,0.0,0.0,0.0,0.0,0.0,0.0,0.0,0.0,0.0,0.0,0.0,0.0,0.0,0.0,0.0,0.0,0.0,0.0,0.0,0.0,0.0,0.0,0.0,0.0,0.0,0.0,0.0,0.0,0.0,0.0,0.0,0.0,0.0,0.0,0.0,0.0,0.0,0.0,0.0,0.0,0.0,0.0,0.0,0.0,0.0,0.0,0.0,0.0,0.0,0.0,0.0,0.0,0.0,0.0,0.0,0.0,0.0,0.0,0.0,0.0,0.0,0.0,0.0,0.0,0.0,0.0,0.0,0.0,0.0,0.0,0.0,0.0,0.0,0.0,0.0,0.0,0.0,0.0,0.0,0.0,0.0,0.0,0.0,0.0,0.0,0.0,0.0,0.0,0.0,0.0,0.0,0.0,0.0,0.0,0.0,0.0,0.0,0.0,0.0,0.0,0.0,0.0,0.0,0.0,0.0,0.0,0.0,0.0,0.0,0.0,0.0,0.0,0.0,0.0,0.0,0.0,0.0,0.0,0.0,0.0,0.0,0.0,0.0,0.0,0.0,0.0,0.0,0.0,0.0,0.0,0.0,0.0,0.0,0.0,0.0,0.0,0.0,0.0,0.0,0.0,0.0,0.0,0.0,0.0,0.0,0.0,0.0,0.0,0.0,0.0,0.0,0.0,0.0,0.0,0.0,0.0,0.0,0.0,0.0,0.0,0.0,0.0,0.0,0.0,0.0,0.0,0.0,0.0,0.0,0.0,0.0,0.0,0.0,0.0,0.0,0.0,0.0,0.0,0.0,0.0,0.0,0.0,0.0,0.0,0.0,0.0,0.0,0.0,0.0,0.0,0.0,0.0,0.0,0.0,0.0,0.0,0.0,0.0,0.0,0.0,0.0,0.0,0.0,0.0,0.0,0.0,0.0,0.0,0.0,0.0,0.0,0.0,0.0,0.0,0.0,0.0,0.0,0.0,0.0,0.0,0.0,0.0,0.0,0.0,0.0,0.0,0.0,0.0,0.0,0.0,0.0,0.0,0.0,0.0,0.0,0.0,0.0,0.0,0.0,0.0,0.0,0.0,0.0,0.0,0.0,0.0,0.0,0.0,0.0,0.0,0.0,0.0,0.0,0.0,0.0,0.0,0.0,0.0,0.0,0.0,0.0,0.0,0.0,0.0,0.0,0.0,0.0,0.0,0.0,0.0,0.0,0.0,0.0,0.0,0.0,0.0,2.9983,0.0,0.0,0.0,0.0,0.0,0.0,0.0,0.0,0.0,0.0,0.0,0.0,0.0,0.0,0.0,0.0,0.0,0.0,0.0,0.0,0.0,0.0,0.0,0.0,0.0,0.0,0.0,0.0,0.0,0.0,0.0,0.0,0.0,0.0,0.0,0.0,0.0,0.0,0.0,0.0,0.0,0.0,0.0,0.0,0.0,0.0,0.0,0.0,0.0,0.0,0.0,0.0,0.0,0.0,0.0,0.0,0.0,0.0,0.0,0.0,0.0,0.0,0.0,0.0,0.0,0.0,0.0,0.0,0.0,0.0,0.0,0.0,0.0,0.0,0.0,0.0,0.0,0.0,0.0,0.0,0.0,0.0,0.0,0.0,0.0,0.0,0.0,0.0,0.0,0.0,0.0,0.0,0.0,0.0,0.0,0.0,0.0,0.0,0.0,0.0,0.0,0.0,0.0,0.0,0.0,0.0,0.0,0.0,0.0,0.0,3.3106,3.2967,3.2231,3.1284,3.0117,0.0,0.0,0.0,0.0,0.0,0.0,0.0,0.0,0.0,0.0,0.0,0.0,0.0,0.0,0.0,0.0,0.0,0.0,0.0,0.0,0.0,0.0,0.0,0.0,0.0,0.0,0.0,0.0,0.0,0.0,0.0,0.0,0.0,0.0,0.0,0.0,0.0,0.0,0.0,0.0,0.0,0.0,0.0,0.0,0.0,0.0,0.0,0.0,0.0,0.0,0.0,0.0,0.0,0.0,0.0,0.0,0.0,0.0,0.0,0.0,0.0,0.0,0.0,0.0,0.0,0.0,0.0,0.0,0.0,0.0,0.0,0.0,0.0,0.0,0.0,0.0,0.0,0.0,0.0,0.0,0.0,0.0,0.0,0.0,0.0,0.0,0.0,0.0,0.0,0.0,0.0,0.0,0.0,0.0,0.0,0.0,0.0,0.0,0.0,0.0,0.0,0.0,0.0,0.0,0.0,0.0,0.0,0.0,0.0,0.0,0.0,0.0,3.3847,3.2647,3.0158,0.0,0.0,0.0,0.0,0.0,0.0,0.0,0.0,0.0,0.0,0.0,0.0,0.0,0.0,0.0,0.0,0.0,0.0,0.0,0.0,0.0,0.0,0.0,0.0,0.0,0.0,0.0,0.0,0.0,0.0,0.0,0.0,0.0,0.0,0.0,0.0,0.0,0.0,0.0,0.0,0.0,0.0,0.0,0.0,0.0,0.0,0.0,0.0,0.0,0.0,0.0,0.0,0.0,0.0,0.0,0.0,0.0,0.0,0.0,0.0,0.0,0.0,0.0,0.0,0.0,0.0,0.0,0.0,0.0,0.0,0.0,0.0,0.0,0.0,0.0,0.0,0.0,0.0,0.0,0.0,0.0,0.0,0.0,0.0,0.0,0.0,0.0,0.0,0.0,0.0,0.0,0.0,0.0,0.0,0.0,0.0,0.0,0.0,0.0,0.0,0.0,0.0,0.0,0.0,0.0,0.0,0.0,0.0,0.0,0.0,3.3705,3.4044,3.4584,0.0,2.996,0.0,0.0,0.0,0.0,0.0,0.0,0.0,0.0,0.0,0.0,0.0,0.0,0.0,0.0,0.0,0.0,0.0,0.0,0.0,0.0,0.0,0.0,0.0,0.0,0.0,0.0,0.0,0.0,0.0,0.0,0.0,0.0,0.0,0.0,0.0,0.0,0.0,0.0,0.0,0.0,0.0,0.0,0.0,0.0,0.0,0.0,0.0,0.0,0.0,0.0,0.0,0.0,0.0,0.0,0.0,0.0,0.0,0.0,0.0,0.0,0.0,0.0,0.0,0.0,0.0,0.0,0.0,0.0,0.0,0.0,0.0,0.0,0.0,0.0,0.0,0.0,0.0,0.0,0.0,0.0,0.0,0.0,0.0,0.0,0.0,0.0,0.0,0.0,0.0,0.0,0.0,0.0,0.0,0.0,0.0,0.0,0.0,0.0,0.0,0.0,0.0,0.0,0.0,0.0,0.0,0.0,0.0,0.0,0.0,0.0,3.4654,3.4688,3.3155,3.1775,0.0,0.0,0.0,0.0,0.0,0.0,0.0,0.0,0.0,0.0,0.0,0.0,0.0,0.0,0.0,0.0,0.0,0.0,0.0,0.0,0.0,0.0,0.0,0.0,0.0,0.0,0.0,0.0,0.0,0.0,0.0,0.0,0.0,0.0,0.0,0.0,0.0,0.0,0.0,0.0,0.0,0.0,0.0,0.0,0.0,0.0,0.0,0.0,0.0,0.0,0.0,0.0,0.0,0.0,0.0,0.0,0.0,0.0,0.0,0.0,0.0,0.0,0.0,0.0,0.0,0.0,0.0,0.0,0.0,0.0,0.0,0.0,0.0,0.0,0.0,0.0,0.0,0.0,0.0,0.0,0.0,0.0,0.0,0.0,0.0,0.0,0.0,0.0,0.0,0.0,0.0,0.0,0.0,0.0,0.0,0.0,0.0,0.0,0.0,0.0,0.0,0.0,0.0,0.0,0.0,0.0,0.0,0.0,0.0,0.0,3.4541,3.5464,3.5538,3.3422,3.1701,3.0509,0.0,0.0,0.0,0.0,0.0,0.0,0.0,0.0,0.0,0.0,0.0,0.0,0.0,0.0,0.0,0.0,0.0,0.0,0.0,0.0,0.0,0.0,0.0,0.0,0.0,0.0,0.0,0.0,0.0,0.0,0.0,0.0,0.0,0.0,0.0,0.0,0.0,0.0,0.0,0.0,0.0,0.0,0.0,0.0,0.0,0.0,0.0,0.0,0.0,0.0,0.0,0.0,0.0,0.0,0.0,0.0,0.0,0.0,0.0,0.0,0.0,0.0,0.0,0.0,0.0,0.0,0.0,0.0,0.0,0.0,0.0,0.0,0.0,0.0,0.0,0.0,0.0,0.0,0.0,0.0,0.0,0.0,0.0,0.0,0.0,0.0,0.0,0.0,0.0,0.0,0.0,0.0,0.0,0.0,0.0,0.0,0.0,0.0,0.0,0.0,0.0,0.0,0.0,0.0,0.0,0.0,0.0,0.0,3.4243,3.4885,3.5711,3.6834,3.6693,3.419,0.0,0.0,0.0,0.0,0.0,0.0,0.0,0.0,0.0,0.0,0.0,0.0,0.0,0.0,0.0,0.0,0.0,0.0,0.0,0.0,0.0,0.0,0.0,0.0,0.0,0.0,0.0,0.0,0.0,0.0,0.0,0.0,0.0,0.0,0.0,0.0,0.0,0.0,0.0,0.0,0.0,0.0,0.0,0.0,0.0,0.0,0.0,0.0,0.0,0.0,0.0,0.0,0.0,0.0,0.0,0.0,0.0,0.0,0.0,0.0,0.0,0.0,0.0,0.0,0.0,0.0,0.0,0.0,0.0,0.0,0.0,0.0,0.0,0.0,0.0,0.0,0.0,0.0,0.0,0.0,0.0,0.0,0.0,0.0,0.0,0.0,0.0,0.0,0.0,0.0,0.0,0.0,0.0,0.0,0.0,0.0,0.0,0.0,0.0,0.0,0.0,0.0,0.0,0.0,0.0,0.0,0.0,0.0,0.0,3.0894,3.2384,3.4527,3.7009,3.3817,3.1506,0.0,0.0,0.0,0.0,0.0,0.0,0.0,0.0,0.0,0.0,0.0,0.0,0.0,0.0,0.0,0.0,0.0,0.0,0.0,0.0,0.0,0.0,0.0,0.0,0.0,0.0,0.0,0.0,0.0,0.0,0.0,0.0,0.0,0.0,0.0,0.0,0.0,0.0,0.0,0.0,0.0,0.0,0.0,0.0,0.0,0.0,0.0,0.0,0.0,0.0,0.0,0.0,0.0,0.0,0.0,0.0,0.0,0.0,0.0,0.0,0.0,0.0,0.0,0.0,0.0,0.0,0.0,0.0,0.0,0.0,0.0,0.0,0.0,0.0,0.0,0.0,0.0,0.0,0.0,0.0,0.0,0.0,0.0,0.0,0.0,0.0,0.0,0.0,0.0,0.0,0.0,0.0,0.0,0.0,0.0,0.0,0.0,0.0,0.0,0.0,0.0,0.0,0.0,0.0,0.0,0.0,0.0,0.0,0.0,3.0619,0.0,3.4579,3.6017,3.261,3.0157,0.0,0.0,0.0,0.0,0.0,0.0,0.0,0.0,0.0,0.0,0.0,0.0,0.0,0.0,0.0,0.0,0.0,0.0,0.0,0.0,0.0,0.0,0.0,0.0,0.0,0.0,0.0,0.0,0.0,0.0,0.0,0.0,0.0,0.0,0.0,0.0,0.0,0.0,0.0,0.0,0.0,0.0,0.0,0.0,0.0,0.0,0.0,0.0,0.0,0.0,0.0,0.0,0.0,0.0,0.0,0.0,0.0,0.0,0.0,0.0,0.0,0.0,0.0,0.0,0.0,0.0,0.0,0.0,0.0,0.0,0.0,0.0,0.0,0.0,0.0,0.0,0.0,0.0,0.0,0.0,0.0,0.0,0.0,0.0,0.0,0.0,0.0,0.0,0.0,0.0,0.0,0.0,0.0,0.0,0.0,0.0,0.0,0.0,0.0,0.0,0.0,0.0,0.0,0.0,0.0,0.0,0.0,0.0,3.0747,3.4268,3.6103,3.6062,3.3981,3.3633,3.0699,0.0,0.0,0.0,0.0,0.0,0.0,0.0,0.0,0.0,0.0,0.0,0.0,0.0,0.0,0.0,0.0,0.0,0.0,0.0,0.0,0.0,0.0,0.0,0.0,0.0,0.0,0.0,0.0,0.0,0.0,0.0,0.0,0.0,0.0,0.0,0.0,0.0,0.0,0.0,0.0,0.0,0.0,0.0,0.0,0.0,0.0,0.0,0.0,0.0,0.0,0.0,0.0,0.0,0.0,0.0,0.0,0.0,0.0,0.0,0.0,0.0,0.0,0.0,0.0,0.0,0.0,0.0,0.0,0.0,0.0,0.0,0.0,0.0,0.0,0.0,0.0,0.0,0.0,0.0,0.0,0.0,0.0,0.0,0.0,0.0,0.0,0.0,0.0,0.0,0.0,0.0,0.0,0.0,0.0,0.0,0.0,0.0,0.0,0.0,0.0,0.0,0.0,0.0,0.0,0.0,0.0,0.0,0.0,0.0,3.2154,3.4447,3.5849,3.5951,3.3036,3.0698,0.0,0.0,0.0,0.0,0.0,0.0,0.0,0.0,0.0,0.0,0.0,0.0,0.0,0.0,0.0,0.0,0.0,0.0,0.0,0.0,0.0,0.0,0.0,0.0,0.0,0.0,0.0,0.0,0.0,0.0,0.0,0.0,0.0,0.0,0.0,0.0,0.0,0.0,0.0,0.0,0.0,0.0,0.0,0.0,0.0,0.0,0.0,0.0,0.0,0.0,0.0,0.0,0.0,0.0,0.0,0.0,0.0,0.0,0.0,0.0,0.0,0.0,0.0,0.0,0.0,0.0,0.0,0.0,0.0,0.0,0.0,0.0,0.0,0.0,0.0,0.0,0.0,0.0,0.0,0.0,0.0,0.0,0.0,0.0,0.0,0.0,0.0,0.0,0.0,0.0,0.0,0.0,0.0,0.0,0.0,0.0,0.0,0.0,0.0,0.0,0.0,0.0,0.0,0.0,0.0,0.0,0.0,0.0,0.0,3.4942,3.6457,3.7331,3.7381,3.364,3.1151,3.0063,0.0,0.0,0.0,0.0,0.0,0.0,0.0,0.0,0.0,0.0,0.0,0.0,0.0,0.0,0.0,0.0,0.0,0.0,0.0,0.0,0.0,0.0,0.0,0.0,0.0,0.0,0.0,0.0,0.0,0.0,0.0,0.0,0.0,0.0,0.0,0.0,0.0,0.0,0.0,0.0,0.0,0.0,0.0,0.0,0.0,0.0,0.0,0.0,0.0,0.0,0.0,0.0,0.0,0.0,0.0,0.0,0.0,0.0,0.0,0.0,0.0,0.0,0.0,0.0,0.0,0.0,0.0,0.0,0.0,0.0,0.0,0.0,0.0,0.0,0.0,0.0,0.0,0.0,0.0,0.0,0.0,0.0,0.0,0.0,0.0,0.0,0.0,0.0,0.0,0.0,0.0,0.0,0.0,0.0,0.0,0.0,0.0,0.0,0.0,0.0,0.0,0.0,0.0,0.0,0.0,0.0,0.0,0.0,4.1551,4.1604,4.0603,3.8321,3.5496,3.2206,0.0,0.0,0.0,0.0,0.0,0.0,0.0,0.0,0.0,0.0,0.0,0.0,0.0,0.0,0.0,0.0,0.0,0.0,0.0,0.0,0.0,0.0,0.0,0.0,0.0,0.0,0.0,0.0,0.0,0.0,0.0,0.0,0.0,0.0,0.0,0.0,0.0,0.0,0.0,0.0,0.0,0.0,0.0,0.0,0.0,0.0,0.0,0.0,0.0,0.0,0.0,0.0,0.0,0.0,0.0,0.0,0.0,0.0,0.0,0.0,0.0,0.0,0.0,0.0,0.0,0.0,0.0,0.0,0.0,0.0,0.0,0.0,0.0,0.0,0.0,0.0,0.0,0.0,0.0,0.0,0.0,0.0,0.0,0.0,0.0,0.0,0.0,0.0,0.0,0.0,0.0,0.0,0.0,0.0,0.0,0.0,0.0,0.0,0.0,0.0,0.0,0.0,0.0,0.0,0.0,0.0,0.0,0.0,0.0,4.4835,4.6577,4.599,4.2904,3.8564,3.5126,0.0,0.0,0.0,0.0,0.0,0.0,0.0,0.0,0.0,0.0,0.0,0.0,0.0,0.0,0.0,0.0,0.0,0.0,0.0,0.0,0.0,0.0,0.0,0.0,0.0,0.0,0.0,0.0,0.0,0.0,0.0,0.0,0.0,0.0,0.0,0.0,0.0,0.0,0.0,0.0,0.0,0.0,0.0,0.0,0.0,0.0,0.0,0.0,0.0,0.0,0.0,0.0,0.0,0.0,0.0,0.0,0.0,0.0,0.0,0.0,0.0,0.0,0.0,0.0,0.0,0.0,0.0,0.0,0.0,0.0,0.0,0.0,0.0,0.0,0.0,0.0,0.0,0.0,0.0,0.0,0.0,0.0,0.0,0.0,0.0,0.0,0.0,0.0,0.0,0.0,0.0,0.0,0.0,0.0,0.0,0.0,0.0,0.0,0.0,0.0,0.0,0.0,0.0,0.0,0.0,0.0,0.0,0.0,4.4383,4.8053,5.0037,4.9771,4.7239,4.2594,3.831,0.0,0.0,0.0,0.0,0.0,0.0,0.0,0.0,0.0,0.0,0.0,0.0,0.0,0.0,0.0,0.0,0.0,0.0,0.0,0.0,0.0,0.0,0.0,0.0,0.0,0.0,0.0,0.0,0.0,0.0,0.0,0.0,0.0,0.0,0.0,0.0,0.0,0.0,0.0,0.0,0.0,0.0,0.0,0.0,0.0,0.0,0.0,0.0,0.0,0.0,0.0,0.0,0.0,0.0,0.0,0.0,0.0,0.0,0.0,0.0,0.0,0.0,0.0,0.0,0.0,0.0,0.0,0.0,0.0,0.0,0.0,0.0,0.0,0.0,0.0,0.0,0.0,0.0,0.0,0.0,0.0,0.0,0.0,0.0,0.0,0.0,0.0,0.0,0.0,0.0,0.0,0.0,0.0,0.0,0.0,0.0,0.0,0.0,0.0,0.0,0.0,0.0,0.0,0.0,0.0,0.0,0.0,0.0,4.6322,5.0879,5.2358,5.2302,5.0623,4.6379,4.1071,0.0,0.0,0.0,0.0,0.0,0.0,0.0,0.0,0.0,0.0,0.0,0.0,0.0,0.0,0.0,0.0,0.0,0.0,0.0,0.0,0.0,0.0,0.0,0.0,0.0,0.0,0.0,0.0,0.0,0.0,0.0,0.0,0.0,0.0,0.0,0.0,0.0,0.0,0.0,0.0,0.0,0.0,0.0,0.0,0.0,0.0,0.0,0.0,0.0,0.0,0.0,0.0,0.0,0.0,0.0,0.0,0.0,0.0,0.0,0.0,0.0,0.0,0.0,0.0,0.0,0.0,0.0,0.0,0.0,0.0,0.0,0.0,0.0,0.0,0.0,0.0,0.0,0.0,0.0,0.0,0.0,0.0,0.0,0.0,0.0,0.0,0.0,0.0,0.0,0.0,0.0,0.0,0.0,0.0,0.0,0.0,0.0,0.0,0.0,0.0,0.0,0.0,0.0,0.0,0.0,0.0,0.0,0.0,4.8343,5.2061,5.3908,5.3891,5.1891,4.5809,4.0499,0.0,0.0,0.0,0.0,0.0,0.0,0.0,0.0,0.0,0.0,0.0,0.0,0.0,0.0,0.0,0.0,0.0,0.0,0.0,0.0,0.0,0.0,0.0,0.0,0.0,0.0,0.0,0.0,0.0,0.0,0.0,0.0,0.0,0.0,0.0,0.0,0.0,0.0,0.0,0.0,0.0,0.0,0.0,0.0,0.0,0.0,0.0,0.0,2.754,0.0,0.0,0.0,0.0,0.0,0.0,0.0,0.0,0.0,0.0,0.0,0.0,0.0,0.0,0.0,0.0,0.0,0.0,0.0,0.0,0.0,0.0,0.0,0.0,0.0,0.0,0.0,0.0,0.0,0.0,0.0,0.0,0.0,0.0,0.0,0.0,0.0,0.0,0.0,0.0,0.0,0.0,0.0,0.0,0.0,0.0,0.0,0.0,0.0,0.0,0.0,0.0,0.0,0.0,0.0,0.0,0.0,0.0,0.0,4.9487,5.3338,5.4411,5.399,5.191,4.6258,4.1305,0.0,0.0,0.0,0.0,0.0,0.0,0.0,0.0,0.0,0.0,0.0,0.0,0.0,0.0,0.0,0.0,0.0,0.0,0.0,0.0,0.0,0.0,0.0,0.0,0.0,0.0,0.0,0.0,0.0,0.0,0.0,0.0,0.0,0.0,0.0,0.0,0.0,0.0,0.0,0.0,0.0,0.0,0.0,0.0,0.0,0.0,0.0,0.0,0.0,0.0,0.0,0.0,0.0,0.0,0.0,0.0,0.0,0.0,0.0,0.0,0.0,0.0,0.0,0.0,0.0,0.0,0.0,0.0,0.0,0.0,0.0,0.0,0.0,0.0,0.0,0.0,0.0,0.0,0.0,0.0,0.0,0.0,0.0,0.0,0.0,0.0,0.0,0.0,0.0,0.0,0.0,0.0,0.0,0.0,0.0,0.0,0.0,0.0,0.0,0.0,0.0,0.0,0.0,0.0,0.0,0.0,0.0,4.44,4.9675,5.4287,5.4403,5.3498,5.1672,4.7016,4.2561,3.8321,0.0,0.0,0.0,0.0,0.0,0.0,0.0,0.0,0.0,0.0,0.0,0.0,0.0,0.0,0.0,0.0,0.0,0.0,0.0,0.0,0.0,0.0,0.0,0.0,0.0,0.0,0.0,0.0,0.0,0.0,0.0,0.0,0.0,0.0,0.0,0.0,0.0,0.0,2.8337,2.8216,0.0,0.0,0.0,0.0,0.0,0.0,0.0,0.0,2.7284,0.0,0.0,0.0,0.0,0.0,0.0,0.0,0.0,0.0,0.0,0.0,0.0,0.0,0.0,0.0,0.0,0.0,0.0,0.0,0.0,0.0,0.0,0.0,0.0,0.0,0.0,0.0,0.0,0.0,0.0,0.0,0.0,0.0,0.0,0.0,0.0,0.0,0.0,0.0,0.0,0.0,0.0,0.0,0.0,0.0,0.0,0.0,0.0,0.0,0.0,0.0,0.0,0.0,0.0,0.0,0.0,4.1672,4.4155,4.8246,5.4072,5.4148,5.3191,5.1331,4.7438,4.3202,3.8678,0.0,0.0,0.0,0.0,0.0,0.0,0.0,0.0,0.0,0.0,0.0,0.0,0.0,0.0,0.0,0.0,0.0,0.0,0.0,0.0,0.0,0.0,0.0,0.0,0.0,0.0,0.0,0.0,0.0,0.0,0.0,0.0,0.0,0.0,0.0,0.0,0.0,0.0,0.0,2.8163,2.7825,0.0,0.0,0.0,0.0,0.0,0.0,0.0,0.0,2.751,0.0,0.0,0.0,0.0,0.0,0.0,0.0,0.0,0.0,0.0,0.0,0.0,0.0,0.0,0.0,0.0,0.0,0.0,0.0,0.0,0.0,0.0,0.0,0.0,0.0,0.0,0.0,0.0,0.0,0.0,0.0,0.0,0.0,0.0,0.0,0.0,0.0,0.0,0.0,0.0,0.0,0.0,0.0,0.0,0.0,0.0,0.0,0.0,0.0,0.0,0.0,0.0,0.0,0.0,0.0,4.0864,4.5208,4.946,5.3813,5.3442,5.2307,5.0365,4.5684,4.1576,0.0,0.0,0.0,0.0,0.0,0.0,0.0,0.0,0.0,0.0,0.0,0.0,0.0,0.0,0.0,0.0,0.0,0.0,0.0,0.0,0.0,0.0,0.0,0.0,0.0,0.0,0.0,0.0,0.0,0.0,0.0,0.0,0.0,0.0,0.0,0.0,0.0,0.0,0.0,0.0,2.834,2.8053,2.6497,0.0,0.0,0.0,0.0,0.0,0.0,2.7342,2.759,0.0,0.0,0.0,0.0,0.0,0.0,0.0,0.0,0.0,0.0,0.0,0.0,0.0,0.0,0.0,0.0,0.0,0.0,0.0,0.0,0.0,0.0,0.0,0.0,0.0,0.0,0.0,0.0,0.0,0.0,0.0,0.0,0.0,0.0,0.0,0.0,0.0,0.0,0.0,0.0,0.0,0.0,0.0,0.0,0.0,0.0,0.0,0.0,0.0,0.0,0.0,0.0,0.0,0.0,0.0,3.97,4.582,5.0459,5.3389,5.2662,5.1334,4.9485,4.4268,4.0083,0.0,0.0,0.0,0.0,0.0,0.0,0.0,0.0,0.0,0.0,0.0,0.0,0.0,0.0,0.0,0.0,0.0,0.0,0.0,0.0,0.0,0.0,0.0,0.0,0.0,0.0,0.0,0.0,0.0,0.0,0.0,0.0,0.0,0.0,0.0,0.0,0.0,0.0,0.0,0.0,0.0,2.8276,2.6858,2.6147,0.0,0.0,0.0,0.0,2.6747,2.7454,0.0,0.0,0.0,0.0,0.0,0.0,0.0,0.0,0.0,0.0,0.0,0.0,0.0,0.0,0.0,0.0,0.0,0.0,0.0,0.0,0.0,0.0,0.0,0.0,0.0,0.0,0.0,0.0,0.0,0.0,0.0,0.0,0.0,0.0,0.0,0.0,0.0,0.0,0.0,0.0,0.0,0.0,0.0,0.0,0.0,0.0,0.0,0.0,0.0,0.0,0.0,0.0,0.0,0.0,0.0,0.0,3.9589,4.4609,4.8946,5.2536,5.1812,5.0753,4.9679,4.5182,4.0765,0.0,0.0,0.0,0.0,0.0,0.0,0.0,0.0,0.0,0.0,0.0,0.0,0.0,0.0,0.0,0.0,0.0,0.0,0.0,0.0,0.0,0.0,0.0,0.0,0.0,0.0,0.0,0.0,0.0,0.0,0.0,0.0,0.0,0.0,0.0,0.0,0.0,0.0,0.0,0.0,0.0,2.8111,2.6914,2.6362,2.6085,0.0,0.0,2.7393,2.7883,2.845,0.0,0.0,0.0,0.0,0.0,0.0,0.0,0.0,0.0,0.0,0.0,0.0,0.0,0.0,0.0,0.0,0.0,0.0,0.0,0.0,0.0,0.0,0.0,0.0,0.0,0.0,0.0,0.0,0.0,0.0,0.0,0.0,0.0,0.0,0.0,0.0,0.0,0.0,0.0,0.0,0.0,0.0,0.0,0.0,0.0,0.0,0.0,0.0,0.0,0.0,0.0,0.0,0.0,0.0,0.0,3.5828,4.0087,4.5822,4.9522,5.0946,5.0594,4.9451,4.7578,4.2615,3.8085,0.0,0.0,0.0,0.0,0.0,0.0,0.0,0.0,0.0,0.0,0.0,0.0,0.0,0.0,0.0,0.0,0.0,0.0,0.0,0.0,0.0,0.0,0.0,0.0,0.0,0.0,0.0,0.0,0.0,0.0,0.0,0.0,0.0,0.0,0.0,0.0,0.0,0.0,0.0,0.0,0.0,0.0,2.883,2.7973,0.0,0.0,0.0,2.7653,2.7683,0.0,0.0,0.0,0.0,0.0,0.0,0.0,0.0,0.0,0.0,0.0,0.0,0.0,0.0,0.0,0.0,0.0,0.0,0.0,0.0,0.0,0.0,0.0,0.0,0.0,0.0,0.0,0.0,0.0,0.0,0.0,0.0,0.0,0.0,0.0,0.0,0.0,0.0,0.0,0.0,0.0,0.0,0.0,0.0,0.0,0.0,0.0,0.0,0.0,0.0,0.0,0.0,0.0,0.0,0.0,0.0,0.0,4.0911,4.7024,4.9957,4.9591,4.917,4.7889,4.561,4.0323,0.0,0.0,0.0,0.0,0.0,0.0,0.0,0.0,0.0,0.0,0.0,0.0,0.0,0.0,0.0,0.0,0.0,0.0,0.0,0.0,0.0,0.0,0.0,0.0,0.0,0.0,0.0,1.8627,0.0,0.0,0.0,0.0,0.0,0.0,0.0,0.0,0.0,0.0,0.0,0.0,0.0,0.0,3.0842,3.0734,2.9651,2.8759,0.0,0.0,2.8082,2.7966,2.7903,2.7101,0.0,0.0,0.0,0.0,0.0,0.0,0.0,0.0,0.0,0.0,0.0,0.0,0.0,0.0,0.0,0.0,0.0,0.0,0.0,0.0,0.0,0.0,0.0,0.0,0.0,0.0,0.0,0.0,0.0,0.0,0.0,0.0,0.0,0.0,0.0,0.0,0.0,0.0,0.0,0.0,0.0,0.0,0.0,0.0,0.0,0.0,0.0,0.0,0.0,0.0,0.0,0.0,0.0,0.0,0.0,4.2159,4.7257,4.9697,4.9199,4.7436,4.5895,4.4739,3.979,3.479,0.0,0.0,0.0,0.0,0.0,0.0,0.0,0.0,0.0,0.0,0.0,0.0,0.0,0.0,0.0,0.0,0.0,0.0,0.0,0.0,0.0,0.0,0.0,0.0,0.0,0.0,0.0,0.0,0.0,0.0,0.0,0.0,0.0,0.0,0.0,0.0,0.0,0.0,0.0,0.0,0.0,3.1197,3.1937,3.1134,3.0736,0.0,0.0,2.9261,2.9696,2.9451,2.8023,2.4451,0.0,0.0,0.0,0.0,0.0,0.0,0.0,0.0,0.0,0.0,0.0,0.0,0.0,0.0,0.0,0.0,0.0,0.0,0.0,0.0,0.0,0.0,0.0,0.0,0.0,0.0,0.0,0.0,0.0,0.0,0.0,0.0,0.0,0.0,0.0,0.0,0.0,0.0,0.0,0.0,0.0,0.0,0.0,0.0,0.0,0.0,0.0,0.0,0.0,0.0,0.0,0.0,0.0,3.9128,4.1579,4.669,4.8861,4.782,4.6339,4.4422,4.19,3.7963,3.2862,0.0,0.0,0.0,0.0,0.0,0.0,0.0,0.0,0.0,0.0,0.0,0.0,0.0,0.0,0.0,0.0,0.0,0.0,0.0,0.0,0.0,0.0,0.0,0.0,0.0,0.0,0.0,0.0,2.003,2.0177,1.9941,0.0,0.0,0.0,0.0,0.0,0.0,0.0,0.0,0.0,0.0,3.303,3.355,3.297,0.0,0.0,3.1565,3.109,3.0807,2.9491,2.7367,2.4184,2.2099,0.0,0.0,0.0,0.0,0.0,0.0,0.0,0.0,0.0,0.0,0.0,0.0,0.0,0.0,0.0,0.0,0.0,0.0,0.0,0.0,0.0,0.0,0.0,0.0,0.0,0.0,0.0,0.0,0.0,0.0,0.0,0.0,0.0,0.0,0.0,0.0,0.0,0.0,0.0,0.0,0.0,0.0,0.0,0.0,0.0,0.0,0.0,0.0,0.0,0.0,0.0,0.0,3.9378,4.158,4.6169,4.7796,4.6389,4.4856,4.2513,3.9227,3.5837,3.0895,0.0,0.0,0.0,0.0,0.0,0.0,0.0,0.0,0.0,0.0,0.0,0.0,0.0,0.0,0.0,0.0,0.0,0.0,0.0,0.0,0.0,0.0,0.0,0.0,0.0,0.0,0.0,0.0,2.0335,2.0128,1.9452,0.0,0.0,0.0,0.0,0.0,0.0,0.0,0.0,0.0,0.0,3.4741,3.5204,3.4626,3.3854,3.337,3.2645,3.1999,3.1605,2.9755,2.7286,2.4012,0.0,0.0,0.0,0.0,0.0,0.0,0.0,0.0,0.0,0.0,0.0,0.0,0.0,0.0,0.0,0.0,0.0,0.0,0.0,0.0,0.0,0.0,0.0,0.0,0.0,0.0,0.0,0.0,0.0,0.0,0.9145,0.0,0.0,0.0,0.0,0.0,0.0,0.0,0.0,0.0,0.0,0.0,0.0,0.0,0.0,0.0,0.0,0.0,0.0,0.0,0.0,0.0,0.0,4.0595,4.2435,4.5651,4.6486,4.4749,4.2675,4.018,3.7219,3.3583,2.8979,2.3238,0.0,0.0,0.0,0.0,0.0,0.0,0.0,0.0,0.0,0.0,0.0,0.0,0.0,0.0,0.0,0.0,0.0,0.0,0.0,0.0,0.0,0.0,0.0,0.0,0.0,0.0,2.0511,2.0042,1.939,0.0,0.0,0.0,0.0,0.0,0.0,0.0,0.0,0.0,0.0,3.4279,3.6018,3.7042,3.5793,3.5067,3.5769,3.3454,3.1707,3.1985,3.063,2.808,0.0,0.0,0.0,0.0,0.0,0.0,0.0,0.0,0.0,0.0,0.0,0.0,0.0,0.0,0.0,0.0,0.0,0.0,0.0,0.0,0.0,0.0,0.0,0.0,0.0,0.0,0.0,1.2018,1.128,0.0,0.0,0.0,0.0,0.0,0.0,0.0,0.0,0.0,0.0,0.0,2.3154,2.5218,0.0,0.0,0.0,0.0,0.0,0.0,0.0,0.0,0.0,0.0,0.0,0.0,4.0668,4.1731,4.4656,4.5538,4.4171,4.1074,3.8309,3.5969,3.2159,2.6869,2.0017,0.0,0.0,0.0,0.0,0.0,0.0,0.0,0.0,0.0,0.0,0.0,0.0,0.0,0.0,0.0,0.0,0.0,0.0,0.0,0.0,0.0,0.0,0.0,0.0,0.0,2.0106,0.0,0.0,0.0,0.0,0.0,0.0,0.0,0.0,0.0,0.0,0.0,3.039,3.2988,3.5328,3.6924,3.7278,3.6803,3.6351,0.0,0.0,0.0,0.0,0.0,0.0,0.0,0.0,0.0,0.0,0.0,0.0,0.0,0.0,2.3132,2.1398,2.1312,2.1583,2.1609,0.0,0.0,0.0,0.0,0.0,0.0,0.0,0.0,0.0,0.0,0.0,0.0,0.0,0.0,1.4131,0.0,1.3422,0.0,0.0,0.0,0.0,0.0,0.0,0.0,0.0,2.1957,2.3693,2.5609,2.7276,2.8221,0.0,2.902,2.8333,0.0,0.0,0.0,0.0,0.0,0.0,0.0,0.0,4.0518,4.1533,4.4241,4.4732,4.2855,3.9994,3.7126,3.4364,2.959,2.4297,1.8349,1.5124,1.3108,0.0,0.0,0.0,0.0,0.0,0.0,0.0,0.0,0.0,0.0,0.0,0.0,0.0,0.0,0.0,0.0,0.0,0.0,0.0,0.0,0.0,0.0,0.0,2.0224,0.0,0.0,0.0,0.0,0.0,0.0,0.0,0.0,0.0,2.5134,2.8775,3.2173,3.4462,3.6415,3.7675,3.7784,0.0,0.0,0.0,0.0,0.0,0.0,0.0,3.0335,2.781,2.6098,2.469,2.3615,2.3681,2.3811,2.3463,0.0,0.0,2.1726,2.1799,2.215,2.2249,2.3444,2.4995,2.6564,2.7753,2.8931,0.0,0.0,0.0,0.0,0.0,0.0,0.0,0.0,1.601,1.6115,0.0,1.5149,0.0,0.0,0.0,0.0,0.0,2.0374,0.0,0.0,2.5828,2.7219,2.8081,2.9029,2.9726,3.03,3.1895,3.2374,3.1602,2.8715,0.0,0.0,0.0,0.0,0.0,0.0,4.035,4.1945,4.426,4.3945,4.1013,3.9244,3.649,3.2466,2.6179,2.1479,1.8508,1.6834,1.5036,1.3226,1.226,0.0,0.0,0.0,0.0,0.0,0.0,0.0,0.0,0.0,0.0,0.0,0.0,0.0,0.0,0.0,0.0,0.0,0.0,0.0,0.0,2.0322,0.0,0.0,0.0,0.0,0.0,0.0,0.0,0.0,0.0,0.0,2.7679,3.0846,3.4048,3.632,0.0,0.0,0.0,0.0,3.7676,3.9244,3.7461,3.582,3.5967,3.409,3.1766,2.9516,0.0,0.0,2.6162,2.6074,2.5916,2.4941,2.5337,2.5077,2.342,2.3709,2.4099,2.376,2.5198,2.6898,2.7997,2.9757,3.1431,2.365,0.0,0.0,0.0,0.0,2.0606,2.1424,2.3089,2.2519,2.1653,2.0532,1.9653,0.0,0.0,0.0,0.0,0.0,0.0,2.4742,2.6574,2.7535,2.8604,2.9818,3.0982,3.1396,3.1153,3.2027,3.2364,3.2183,3.0969,3.005,2.9373,0.0,0.0,0.0,0.0,4.1617,4.1563,4.3277,4.2912,4.0371,3.7798,3.4187,2.9581,2.5265,2.2104,2.0294,1.8188,1.648,1.5244,1.3879,0.0,0.0,0.0,0.0,0.0,0.0,0.0,0.0,0.0,0.0,0.0,0.0,0.0,0.0,0.0,0.0,0.0,0.0,0.0,1.931,2.0068,2.027,0.0,0.0,0.0,0.0,0.0,0.0,0.0,0.0,0.0,3.1979,3.4236,3.5831,0.0,0.0,3.867,3.8422,3.8625,3.9139,4.0032,0.0,0.0,0.0,3.5525,3.3535,3.2257,3.1395,3.0526,2.951,2.9317,2.906,2.8307,2.8337,2.8136,2.7276,2.5745,2.5063,2.5657,2.6662,2.797,2.9732,3.1546,3.3125,2.8659,2.5916,2.4033,2.3823,2.4724,2.4601,2.5424,2.6769,2.6362,2.5459,2.4315,2.3339,2.2026,2.0536,2.0909,0.0,0.0,0.0,2.7469,2.9411,2.9425,2.9931,3.094,3.1742,3.2015,3.1796,3.2322,3.2833,3.3295,3.2737,3.2333,3.2087,0.0,0.0,3.5846,3.9819,4.1534,4.1134,4.215,4.1532,3.913,3.5733,3.2365,2.8817,2.5737,2.3502,2.2288,2.0576,1.9058,1.7721,1.6276,1.484,0.0,0.0,0.0,0.0,0.0,0.0,0.0,0.0,0.0,0.0,0.0,1.6382,0.0,0.0,0.0,0.0,1.7755,1.9059,2.0464,2.0863,0.0,0.0,0.0,0.0,0.0,0.0,0.0,2.6521,2.9603,3.2472,3.4952,3.6764,3.7799,3.7772,3.8851,3.9563,3.9061,0.0,4.0176,4.0812,3.9853,3.887,3.8585,3.6671,3.4887,3.3898,3.3607,3.3155,3.2579,3.2312,3.1923,3.1222,3.1091,3.0989,3.0584,2.9164,2.7981,2.7905,2.8824,3.0161,3.1691,3.3654,3.5453,3.2967,3.2126,2.8924,2.7657,2.7764,2.8482,2.8573,2.8256,2.8388,2.8072,2.7386,2.6329,2.5474,2.486,2.5371,0.0,2.9518,2.9462,3.044,3.2348,3.1455,3.1287,3.1689,3.1754,3.1913,3.2135,3.2631,3.3426,3.439,3.3847,3.4077,3.5053,3.4409,3.5429,3.8026,3.9748,4.0631,4.0689,4.0932,3.977,3.7172,3.3602,3.0991,2.9547,2.7083,2.5273,2.4313,2.3366,2.2086,2.0311,1.8939,1.7373,1.5443,0.0,0.0,0.0,0.0,0.0,0.0,0.0,0.0,0.0,0.0,0.0,0.0,0.0,0.0,0.0,1.9727,0.0,2.2547,2.2275,0.0,0.0,0.0,2.1776,2.3282,2.606,2.8393,2.9594,0.0,0.0,3.6731,0.0,3.9815,3.9793,4.0315,4.0576,4.0207,4.0564,4.1082,4.1724,4.0713,3.9756,3.9387,3.7704,3.6075,3.507,3.5379,3.5601,3.5061,3.497,3.4485,3.3414,3.3495,3.3599,3.3248,3.3168,3.2772,3.076,3.1652,3.304,3.3906,3.5999,3.7958,3.4467,3.4802,3.408,3.306,3.1991,3.2814,3.303,3.2676,3.2644,3.1633,2.9811,2.9023,2.8252,2.7579,2.8986,3.0383,3.1719,3.2573,3.3332,3.3908,3.3426,3.291,3.2455,3.2576,3.2221,3.1539,3.1513,3.2019,3.2918,3.2391,3.3321,3.5577,3.5684,3.6467,3.8082,4.0238,4.0741,3.9654,3.9268,3.759,3.4518,3.268,3.107,2.9673,2.734,2.5797,2.4969,2.3474,2.2269,2.1462,1.9604,1.8242,1.764,1.4799,0.0,0.0,0.0,0.0,0.0,0.0,0.0,0.0,0.0,1.8484,1.6225,0.0,2.044,0.0,2.1394,2.2315,2.2111,2.2185,0.0,0.0,2.3503,2.4288,2.7012,2.8417,2.9609,3.1017,3.4581,3.7228,3.802,3.9568,4.0697,4.0943,4.0944,4.0774,4.0456,4.1348,4.2076,4.2254,4.1362,4.066,4.0606,3.9188,3.7644,3.7067,3.7067,3.6899,3.5879,3.6219,3.6134,3.475,3.4837,3.5288,3.571,3.5872,3.6158,3.6216,3.5347,3.478,3.6303,3.7838,3.9082,3.6407,3.6951,3.7481,3.7369,3.6668,3.6209,3.5881,3.559,3.5235,3.4122,3.2399,3.1531,3.1254,3.1372,3.2314,3.3339,3.4292,3.5016,3.5133,3.4763,3.4565,3.3634,3.2288,3.2374,3.1833,3.0794,3.0683,3.0861,3.1388,3.1254,3.2291,3.4337,3.4791,3.5606,3.6977,3.9023,3.9336,3.799,3.6922,3.5099,3.2654,3.2121,3.1307,3.0172,2.84,2.6973,2.6095,2.4657,2.3293,2.2071,2.0607,1.9425,1.8464,1.6223,1.4755,0.0,0.0,0.0,0.0,0.0,0.0,0.0,0.0,0.0,0.0,0.0,2.2974,2.4701,2.4266,2.3875,2.3997,2.4496,2.5071,2.5962,2.645,2.7711,3.011,3.1759,3.325,3.4667,3.7493,3.9536,4.0134,4.0928,4.1502,4.1654,4.1539,4.1392,4.1299,4.2063,4.2714,4.2607,4.1833,4.0908,4.0396,3.9371,3.8489,3.7893,3.7953,3.7874,3.7188,3.7412,3.7279,3.6168,3.6538,3.7186,3.7476,3.8078,3.8746,3.9219,3.86,3.8013,3.8625,4.0084,4.1455,3.8296,3.884,3.9864,4.066,4.1189,3.9196,3.8067,3.7712,3.6903,3.5954,3.4906,3.3963,3.4143,3.5096,3.5211,3.5783,3.6645,3.6716,3.6142,3.5192,3.5037,3.3878,3.1898,3.1866,3.1226,3.0152,3.0023,3.0024,3.0095,3.0314,3.1057,3.2164,3.2736,3.3612,3.4917,3.6413,3.681,3.5868,3.4405,3.2916,3.1215,3.181,3.1676,3.0624,2.9395,2.813,2.6963,2.5781,2.4216,2.2247,2.1502,2.0394,1.8846,1.7491,1.6536,0.0,1.5315,0.0,0.0,0.0,0.0,0.0,0.0,0.0,0.0,2.1966,2.5043,2.9884,2.7476,2.5938,2.6795,2.7575,2.8114,2.8241,2.9629,3.1198,3.2897,3.5391,3.7569,3.8943,4.0786,4.2084,4.2077,4.2097,4.2077,4.188,4.1766,4.1785,4.198,4.2524,4.2836,4.2666,4.2128,4.1096,3.9681,3.9166,3.8884,3.8266,3.8384,3.8634,3.8311,3.8381,3.8202,3.7471,3.8021,3.8747,3.8681,3.961,4.0572,4.1122,4.1329,4.128,4.0998,4.2195,4.3923,4.0222,4.0996,4.1485,4.2438,4.3523,4.2669,4.1513,4.006,3.915,3.8027,3.6789,3.6459,3.6307,3.6413,3.69,3.6974,3.6851,3.6527,3.6162,3.573,3.4854,3.3789,3.2554,3.2125,3.1341,3.0225,2.9706,2.9449,2.942,2.9141,2.9571,3.0519,3.0687,3.079,3.0979,0.0,0.0,0.0,3.2699,3.1884,3.0577,3.1771,3.1546,2.9583,2.8665,0.0,2.6047,2.4451,2.315,2.2347,2.103,0.0,0.0,0.0,0.0,0.0,0.0,0.0,0.0,0.0,0.0,0.0,2.1129,2.1273,2.1227,2.4843,2.8002,2.9731,2.9549,2.8892,2.7922,2.8748,2.9545,3.0056,3.1452,3.3294,3.5634,3.7258,3.8751,4.0908,4.2038,4.2536,4.2439,4.2411,4.2273,4.1654,4.1368,4.1423,4.1951,4.2398,4.2754,4.2659,4.2158,4.1342,4.0305,3.9718,3.9471,3.9161,3.878,3.8473,3.8161,3.8686,3.8682,3.7562,3.7981,3.8898,3.9407,3.9934,4.078,4.2337,4.3235,4.3647,4.3281,4.3623,4.4465,4.3132,0.0,4.4294,4.4869,0.0,4.52,4.4544,4.3459,4.18,4.0501,3.9508,3.8777,3.8427,3.851,3.8116,3.776,3.7344,3.6976,3.6218,3.5219,3.4684,3.3436,3.1707,3.1391,3.0578,2.9286,2.8821,2.8467,2.8133,2.7978,2.7922,2.7899,2.8064,2.8063,2.7955,2.8549,2.95,3.0909,3.119,3.081,2.9881,3.0867,3.0445,2.8505,0.0,0.0,0.0,0.0,0.0,0.0,0.0,0.0,0.0,0.0,0.0,1.9409,1.9269,1.9621,2.0565,2.0355,2.082,2.2291,2.3575,2.4002,2.3341,2.5924,2.8746,3.1402,3.117,3.0637,3.0127,3.0973,3.1747,3.2215,3.4168,3.6196,3.7595,3.9253,4.08,4.184,4.283,4.3259,4.3006,4.2801,4.2523,4.1874,4.1568,4.1367,4.1506,4.2034,4.2363,4.2526,4.2291,4.1661,4.0808,4.0616,4.013,3.9634,3.9315,3.9004,3.8514,3.8988,3.903,3.8197,3.8763,3.9668,4.0007,4.0672,4.159,4.2642,4.3346,4.4113,4.4616,4.523,4.5845,4.6279,4.6532,4.7333,4.7465,4.7093,4.731,4.7192,4.6512,0.0,0.0,0.0,4.074,4.0237,4.0351,3.906,3.8279,3.786,3.7268,3.6108,3.4595,3.4211,3.2997,3.1076,3.0604,2.9762,2.8496,2.8055,2.7518,2.6913,2.6919,2.6431,2.5464,2.5664,2.5759,2.5585,2.6072,2.712,2.8598,2.9437,2.9465,2.8958,2.9508,2.9015,2.7344,2.6557,2.529,2.3634,2.2669,2.1643,2.0483,2.0228,2.0003,1.9735,2.0211,2.0896,2.1711,2.2366,2.3115,2.3958,2.332,2.3268,2.4047,2.6005,2.6621,2.5589,2.6772,2.9319,3.3611,3.2782,3.2213,3.2632,3.3476,3.4144,3.4503,3.6823,3.8512,3.9104,4.0974,4.2356,4.2642,4.3338,4.3776,4.3432,4.3054,4.2688,4.2139,4.1736,4.1537,4.1283,4.1619,4.198,4.2228,4.2286,4.2034,4.1435,4.1117,4.0966,4.0077,3.9814,3.9629,3.9324,3.9247,3.9148,3.868,3.9525,3.9955,4.0282,4.1022,4.2077,4.2522,4.2935,4.367,4.5193,4.6341,4.6995,4.912,4.9761,4.9671,4.9745,4.9748,4.9541,4.8746,4.743,4.5488,4.4157,4.3339,4.2328,4.1571,4.0987,3.9478,3.8463,3.7844,3.6405,3.537,0.0,3.3325,3.2298,3.1809,3.0589,2.951,2.8614,2.8161,2.7259,2.6094,2.6145,2.5477,2.4289,2.441,2.4313,2.3913,2.3462,2.3736,2.4721,2.6891,2.7807,2.7525,2.8188,2.7636,2.6013,2.5456,2.449,2.2888,2.1642,2.0818,2.0508,2.0374,2.0225,2.0245,2.0795,2.1585,2.2466,2.2811,2.3771,2.5599,2.5192,2.5547,2.7264,2.837,2.8234,2.6429,2.8819,3.173,3.4568,3.4879,3.4914,3.4946,3.5383,3.6131,3.6981,3.7954,3.9221,4.0767,4.1797,4.2669,4.3298,4.3531,4.3421,4.294,4.2823,4.2481,4.1708,4.1643,4.1624,4.1566,4.1535,4.1619,4.1955,4.2192,4.2281,4.2079,4.1707,4.1251,4.111,4.0171,3.9682,3.951,3.9398,3.9226,3.8797,3.8919,3.9221,3.9889,4.0188,4.1053,4.2173,4.2912,4.3653,4.4549,4.5725,4.6806,5.1624,5.2176,5.2,5.179,5.156,5.0864,4.9981,4.8799,4.7886,4.6623,4.525,4.3667,4.2959,4.2609,4.0439,3.9277,3.8799,3.7278,3.5936,3.4726,3.3478,3.2117,3.0555,2.9556,2.8462,2.7302,2.6531,2.5797,2.5051,2.4801,2.3948,2.2728,2.229,2.1948,2.1862,2.1595,2.1609,2.2084,2.4202,2.5298,2.5209,2.5316,2.4772,2.3495,2.2843,2.2155,2.1203,2.0427,2.0029,2.0029,2.0277,2.0532,2.0904,2.1637,2.2692,2.4094,2.4681,2.5753,2.7651,2.7929,2.8528,2.9682,3.0437,3.0224,2.8497,2.9876,3.218,3.5142,3.6383,3.6703,3.6075,3.6823,3.7685,3.8478,3.9519,4.0621,4.1649,4.2398,4.2958,4.3204,4.3259,4.315,4.2808,4.2763,4.262,4.2112,4.1854,4.1592,4.1566,4.1227,4.1198,4.1731,4.1877,4.1852,4.1625,4.1398,4.1142,4.1081,4.0744,4.0323,4.0209,4.0032,3.983,3.9367,3.9283,3.9565,4.0208,4.0386,4.0943,4.1658,4.2365,4.2977,4.3846,4.4973,4.6067,5.3632,5.42,5.3909,5.351,5.301,5.1957,5.0935,5.0185,4.9887,4.8786,4.7127,4.5156,4.4253,4.409,4.1771,4.0361,3.9752,3.8416,3.6722,3.498,3.38,3.1951,2.9669,2.8635,2.7393,2.5927,2.502,2.4368,2.3891,2.3409,2.2597,2.1589,2.0431,1.9939,2.0085,1.9923,1.9716,1.9655,2.1111,2.2241,2.2683,2.2397,2.1742,2.0947,2.0313,1.979,1.9551,1.9232,1.9232,1.9625,2.0163,2.0777,2.1445,2.2428,2.3828,2.5404,2.6263,2.7581,2.9556,3.056,3.1342,3.1893,3.2548,3.2533,3.1747,3.2067,3.3579,3.6277,3.7867,3.8114,3.7479,3.8133,3.9005,3.9721,4.0732,4.1551,4.2018,4.2712,4.3067,4.2873,4.2873,4.297,4.3012,4.2876,4.2802,4.2685,4.2223,4.1707,4.1625,4.1256,4.1198,4.1311,4.1537,4.1454,4.0998,4.0994,4.1131,4.1045,4.1162,4.1091,4.0991,4.0998,4.0798,4.0226,4.0077,4.0159,4.0416,4.0655,4.1007,4.1484,4.1783,4.2333,4.3557,4.4311,4.535,5.4688,5.5467,5.4872,5.4505,5.387,5.2825,5.1862,5.1112,5.0506,4.9759,4.8524,4.6705,4.5523,4.4565,4.3085,4.1788,4.0768,3.8915,3.7388,3.591,3.3391,3.1591,3.0219,2.8368,2.6635,2.5201,2.4562,2.3668,2.2763,2.2386,2.1768,2.0829,1.9878,1.9138,1.8698,1.8163,1.7572,1.7093,1.7158,1.8239,2.0232,1.9753,1.9332,1.8956,1.8631,1.8499,1.8453,1.8273,1.8565,1.9459,2.0159,2.082,2.1728,2.3124,2.4535,2.5786,2.6758,2.8544,3.1295,3.2485,3.3529,3.4463,3.5015,3.5491,3.5762,3.657,3.7801,3.9114,3.9573,3.9353,3.8971,3.9412,4.0019,4.0686,4.1132,4.1671,4.218,4.2685,4.2776,4.2609,4.2873,4.3287,4.3259,4.3273,4.3216,4.3064,4.257,4.2164,4.2053,4.1682,4.1255,4.0971,4.105,4.1387,4.1355,4.1384,4.1369,4.1562,4.1526,4.1562,4.1612,4.1415,4.1028,4.0986,4.0808,4.0536,4.0591,4.0758,4.1005,4.1528,4.1806,4.2202,4.3491,4.4235,4.5042,5.3569,5.4334,5.4175,5.404,5.3789,5.3218,5.2566,5.194,5.1408,5.0564,4.9546,4.8753,4.7695,4.6435,4.4215,4.2932,4.2207,3.9951,3.7892,3.5995,3.368,3.135,2.9065,2.7465,2.5882,2.4683,2.371,2.3039,2.2398,2.1586,2.0845,2.0343,1.928,1.8464,1.7919,1.7516,1.6895,1.6234,1.6028,1.6185,1.6834,1.718,1.7279,1.7296,1.7094,1.718,1.7414,1.773,1.8343,1.8965,1.9934,2.0847,2.1684,2.2624,2.3854,2.5564,2.7807,2.9808,3.1495,3.3254,3.4572,3.5477,3.6186,3.6948,3.7663,3.8165,3.8851,3.9828,4.0268,4.0062,3.9102,3.9376,3.9953,4.0404,4.073,4.1206,4.1612,4.2108,4.2387,4.2511,4.2706,4.297,4.3259,4.3451,4.346,4.3426,4.3026,4.2575,4.2047,4.1651,4.1109,4.051,4.0636,4.0907,4.0962,4.1011,4.1114,4.1567,4.1692,4.1906,4.1983,4.2159,4.1887,4.1596,4.141,4.1272,4.104,4.1338,4.1656,4.207,4.2925,4.3586,4.4464,4.49,4.5617,5.1609,5.24,5.2924,5.3351,5.3498,5.3192,5.2775,5.2354,5.1593,5.0775,4.9845,4.9614,4.8822,4.7388,4.5114,4.3848,4.2947,4.0599,3.8178,3.5954,3.366,3.1072,2.8382,2.6646,2.5221,2.4144,2.3022,2.2343,2.1987,2.096,2.0155,1.9883,1.8774,1.7827,1.7322,1.6846,1.6304,1.5637,1.5395,1.5002,1.4801,1.5068,1.5454,1.5684,1.5686,1.5877,1.6369,1.71,1.7786,1.8396,1.9505,2.0553,2.1447,2.2095,2.3338,2.531,2.7894,2.9904,3.0919,3.2994,3.4651,3.5541,3.6521,3.7437,3.8165,3.8642,3.899,3.9334,3.9902,3.9532,3.9067,3.9102,3.9303,3.965,4.004,4.0401,4.0701,4.1179,4.1462,4.1612,4.1603,4.2081,4.2602,4.3095,4.3543,4.3464,4.3277,4.297,4.22,4.1719,4.1239,4.0609,4.0618,4.0639,4.0513,4.0767,4.1017,4.1342,4.1651,4.1935,4.2168,4.2587,4.3018,4.2593,4.2537,4.2368,4.206,4.2212,4.2763,4.3239,4.4145,4.5048,4.5241,4.581,4.6327,4.8789,5.0032,5.123,5.2211,5.3023,5.2362,5.2026,5.1972,5.0979,5.007,4.9282,4.8655,4.7847,4.7052,4.5809,4.456,4.2687,4.0338,3.819,3.6184,3.3112,3.066,2.8968,2.646,2.4684,2.3585,2.2683,2.1759,2.096,2.0515,1.9924,1.9359,1.8311,1.7358,1.6738,1.5975,1.5243,1.5037,1.5084,1.4831,1.446,1.4104,1.4129,1.4461,1.4339,1.4681,1.5356,1.5991,1.6921,1.794,1.8896,1.9809,2.0639,2.1731,2.3217,2.4997,2.6598,2.8253,2.984,3.1595,3.3183,3.4443,3.5774,3.698,3.7297,3.802,3.83,3.8083,3.7967,3.8146,3.8553,3.8371,3.8554,3.8873,3.9057,3.9307,3.959,3.9625,3.9529,3.9581,3.9948,4.0691,4.1282,4.2493,4.3054,4.3136,4.3277,4.3202,4.2887,4.2345,4.192,4.1585,4.1204,4.0783,4.0441,4.0788,4.1084,4.1443,4.179,4.2084,4.2698,4.3172,4.3434,4.3792,4.395,4.3818,4.3286,4.3421,4.4087,4.4741,4.5749,4.6389,4.6971,4.6764,4.7378,4.6149,4.8287,4.9173,5.0479,5.1798,5.1507,5.1589,5.1819,5.0551,4.9502,4.8697,4.8077,4.718,4.596,4.4759,4.3639,4.2389,3.9989,3.7698,3.549,3.2954,3.0561,2.8277,2.6282,2.4682,2.3505,2.2796,2.2002,2.1377,2.1014,2.0406,1.9575,1.8992,1.8093,1.7043,1.664,1.6105,1.5264,1.5336,1.5263,1.4878,1.4537,1.4399,1.4524,1.4388,1.457,1.5217,1.6232,1.696,1.7402,1.8312,1.9125,1.9945,2.1292,2.228,2.3148,2.4735,2.617,2.7523,2.9077,3.0621,3.2051,3.3481,3.459,3.5245,3.6038,3.6567,3.6331,3.5883,3.5788,3.603,3.6618,3.7015,3.6963,3.7318,3.754,3.7419,3.7622,3.7947,3.8287,3.9094,4.0139,4.0824,4.1758,4.2439,4.3054,4.3326,4.3332,4.2972,4.2775,4.244,4.181,4.1616,4.1447,4.0979,4.1126,4.1486,4.1666,4.1887,4.2235,4.2738,4.3626,4.4096,4.44,4.4763,4.559,4.5273,4.5866,4.6339,4.7077,4.809,4.853,4.9281,4.9046,4.9641,4.3337,4.5644,4.6594,4.8028,4.9504,4.9711,4.9847,5.0104,4.924,4.8232,4.7333,4.6906,4.5969,4.462,4.3501,4.2461,4.1481,3.9454,3.7392,3.5285,3.3141,3.0858,2.8557,2.6834,2.5353,2.4119,2.331,2.2673,2.2251,2.1816,2.1068,2.0438,1.9771,1.891,1.7901,1.7768,1.7171,1.6351,1.64,1.6276,1.5669,1.5424,1.5376,1.5445,1.5245,1.5166,1.5365,1.648,1.7073,1.7198,1.7964,1.8719,1.952,2.0382,2.1181,2.1578,2.2654,2.3855,2.4929,2.6408,2.7798,2.8964,3.052,3.1723,3.2458,3.3271,3.3737,3.3848,3.3453,3.2955,3.3369,3.4063,3.4654,3.4799,3.5405,3.56,3.5233,3.5428,3.5719,3.6148,3.7318,3.8479,3.9399,4.0175,4.116,4.2205,4.2671,4.2794,4.2873,4.2813,4.2823,4.2203,4.2098,4.2005,4.1731,4.1823,4.1807,4.1834,4.1914,4.2262,4.3079,4.4065,4.4826,4.5129,4.5932,4.6851,4.7661,4.8246,4.8936,4.9675,5.0083,5.0359,5.0916,5.1361,5.1623,4.0573,4.2311,4.3329,4.4898,4.6323,4.6816,4.6802,4.6753,4.6637,4.5993,4.5271,4.4936,4.4199,4.331,4.2436,4.1456,4.0307,3.882,3.7407,3.5994,3.3568,3.1552,2.9814,2.7902,2.6359,2.5048,2.4105,2.3573,2.3324,2.2647,2.2093,2.1569,2.051,1.9807,1.9254,1.885,1.8362,1.7997,1.8019,1.7762,1.7183,1.6981,1.6978,1.7174,1.6941,1.6456,1.5655,1.6759,1.7223,1.7182,1.7699,1.8458,1.9012,1.9293,1.9668,2.0382,2.0781,2.1438,2.2375,2.3814,2.4906,2.5762,2.7221,2.8654,2.929,2.9905,3.0437,3.0812,3.0668,3.0508,3.1021,3.1374,3.1993,3.3001,3.3568,3.3679,3.3355,3.3048,3.2934,3.3409,3.4722,3.5738,3.6393,3.7744,3.9239,4.0219,4.1213,4.2004,4.2493,4.2684,4.2901,4.2998,4.2726,4.2331,4.2436,4.2511,4.2217,4.2047,4.2092,4.2315,4.3698,4.4762,4.5866,4.6456,4.823,4.9289,5.0182,5.0723,5.0921,5.1508,5.1864,5.2067,5.232,5.2563,5.2666,3.8569,4.0656,4.1265,4.2486,4.4021,4.4238,4.4594,4.5086,4.438,4.3915,4.3514,4.3247,4.2613,4.1903,4.1316,4.0918,4.0467,3.906,3.7649,3.6167,3.4253,3.2525,3.1047,2.871,2.6596,2.5042,2.4598,2.415,2.3614,2.3564,2.32,2.2306,2.1959,2.1328,2.0631,2.0443,2.0268,2.0253,1.9992,1.9795,1.9932,1.9597,1.9155,1.8764,1.9037,1.8751,1.7721,1.745,1.7348,1.7246,1.7434,1.7792,1.821,1.8582,1.8832,1.9018,1.9507,2.0218,2.1181,2.1802,2.2577,2.3286,2.435,2.5032,2.5793,2.6816,2.7625,2.8237,2.8334,2.8777,2.9479,2.9693,3.0495,3.1913,3.2319,3.2319,3.2044,3.1877,3.1988,3.2347,3.3055,3.3956,3.4911,3.6293,3.74,3.8563,4.0027,4.1213,4.1689,4.2535,4.2985,4.3012,4.2753,4.2753,4.2831,4.3182,4.3301,4.3121,4.3111,4.3378,4.451,4.5902,4.7003,4.8656,5.0426,5.1674,5.2555,5.2954,5.3063,5.3198,5.3515,5.3583,5.3562,5.3632,5.3671,3.6445,3.8356,3.8882,3.9866,4.1136,4.133,4.188,4.2488,4.1857,4.1491,4.1365,4.1113,4.0792,4.0323,4.0052,3.9949,3.9757,3.853,3.7508,3.6555,3.5328,3.3891,3.2105,2.9317,2.7187,2.5683,2.5205,2.4862,2.4482,2.4484,2.4299,2.3551,2.3671,2.336,2.2552,2.2471,2.2432,2.2348,2.1891,2.1915,2.2017,2.1819,2.131,2.0709,2.1036,2.0696,1.9571,1.8894,1.8287,1.7822,1.7606,1.7512,1.7636,1.7893,1.8112,1.8272,1.8722,1.9426,2.0188,2.0602,2.0925,2.157,2.2292,2.2898,2.3379,2.435,2.513,2.6082,2.6518,2.7194,2.8486,2.8993,2.9764,3.1322,3.1527,3.1411,3.1152,3.1158,3.1371,3.1826,3.2252,3.2865,3.3811,3.4838,3.5949,3.7337,3.8869,4.0456,4.1053,4.1989,4.2452,4.297,4.3312,4.3269,4.328,4.3732,4.4338,4.448,4.4441,4.4983,4.5892,4.7556,4.8862,5.1133,5.307,5.3903,5.475,5.4797,5.4862,5.506,5.5075,5.47,5.4574,5.4572,5.4669,3.4637,3.5332,3.6334,3.7286,3.7996,3.8499,3.8772,3.8816,3.9045,3.9066,3.8816,3.8799,3.8803,3.8743,3.8316,3.8295,3.8252,3.7467,3.6876,3.6457,3.5953,3.481,3.2383,2.9603,2.7918,2.6996,2.597,2.5549,2.5558,2.5409,2.5283,2.4771,2.5012,2.5269,2.4546,2.4624,2.4389,2.4291,2.3897,2.362,2.3827,2.3579,2.3112,2.2396,2.2621,2.2247,2.1163,2.055,1.9755,1.869,1.8024,1.768,1.7434,1.7326,1.7636,1.7978,1.8365,1.8936,1.9369,2.0188,2.0483,2.0473,2.1206,2.1661,2.2165,2.2565,2.3313,2.4541,2.5129,2.6133,2.7825,2.882,2.9807,3.1056,3.1348,3.1257,3.1105,3.1207,3.1465,3.1598,3.1941,3.2347,3.3006,3.3953,3.5125,3.6471,3.7818,3.9442,4.0622,4.1555,4.2139,4.2765,4.3545,4.3959,4.4014,4.5176,4.5761,4.614,4.6405,4.7252,4.7862,4.9426,5.1056,5.331,5.5223,5.6075,5.6513,5.6521,5.6533,5.6525,5.6268,5.5752,5.5529,5.5536,5.5733,3.4091,3.4911,3.5112,3.5391,3.5886,3.6165,3.6206,3.6098,3.6477,3.6457,3.6414,3.6618,3.6577,3.6453,3.6295,3.6309,3.6568,3.6254,3.6115,3.5766,3.55,3.3878,3.1572,2.9789,2.8277,2.7249,2.6524,2.6092,2.5532,2.5659,2.5361,2.4655,2.4989,2.5304,2.5228,2.5169,2.5777,2.632,2.5577,2.5503,2.604,2.5516,2.4898,2.407,2.4115,2.3326,2.194,2.1235,2.0284,1.8907,1.8707,1.8221,1.7542,1.79,1.8288,1.8627,1.8996,1.9546,1.9995,2.0466,2.0653,2.0423,2.0865,2.1045,2.1011,2.1691,2.2396,2.3409,2.4436,2.5949,2.7353,2.8649,3.0242,3.2104,3.2295,3.2197,3.2389,3.2377,3.2263,3.2207,3.2339,3.2599,3.2889,3.3647,3.4695,3.5794,3.7406,3.9225,4.0542,4.1705,4.2521,4.3163,4.3891,4.436,4.5066,4.6294,4.7221,4.7812,4.8625,4.9897,5.0657,5.1698,5.3333,5.5159,5.6709,5.769,5.8008,5.8152,5.8079,5.7853,5.7395,5.695,5.6633,5.6547,5.685,3.3291,3.3545,3.3385,3.3519,3.3895,3.3574,3.3516,3.3672,3.3662,3.3701,3.3711,3.3642,3.3906,3.426,3.3953,3.4238,3.4873,3.4408,3.3965,3.367,3.2812,3.1758,3.047,2.943,2.822,2.7048,2.6421,2.5775,2.5414,2.5515,2.5324,2.4879,2.4994,2.5227,2.5261,2.5377,2.5775,2.6498,2.6127,2.6179,2.6965,2.6664,2.5949,2.5263,2.5069,2.4115,2.2407,2.1582,2.0729,1.976,1.9525,1.8956,1.7867,1.8489,1.9233,1.9671,1.9911,2.011,2.0451,2.0928,2.1043,2.0789,2.0978,2.1015,2.1071,2.1651,2.2405,2.347,2.4598,2.6225,2.7963,2.968,3.1359,3.2972,3.3333,3.3465,3.3749,3.3817,3.3776,3.364,3.3531,3.3539,3.3505,3.4198,3.5055,3.6081,3.7715,3.9328,4.0802,4.195,4.3054,4.3849,4.4844,4.5608,4.674,4.8081,4.9271,4.9766,5.0876,5.2265,5.3316,5.4215,5.5302,5.6756,5.815,5.9117,5.9243,5.9338,5.9186,5.8942,5.849,5.8015,5.7633,5.7443,5.7821,3.214,3.17,3.1467,3.1612,3.1854,3.1192,3.1157,3.1414,3.0956,3.0992,3.1103,3.0701,3.1304,3.2209,3.1838,3.193,3.269,3.1978,3.1458,3.0747,2.9984,2.9269,2.9427,2.8709,2.777,2.6807,2.5745,2.5348,2.5069,2.5233,2.4981,2.4444,2.48,2.4884,2.4544,2.4658,2.5162,2.5587,2.5466,2.5681,2.622,2.6227,2.5876,2.5203,2.4675,2.3835,2.2487,2.1696,2.1126,2.0406,2.0309,1.9558,1.8551,1.9413,2.0105,2.0706,2.0654,2.0581,2.0867,2.1401,2.1555,2.126,2.1713,2.1909,2.1694,2.2154,2.3005,2.4086,2.4963,2.6968,2.9271,3.1318,3.2613,3.3645,3.4387,3.4731,3.5108,3.5341,3.5491,3.5445,3.5254,3.526,3.5379,3.5721,3.6418,3.7612,3.8945,4.0307,4.1666,4.2861,4.397,4.4976,4.6022,4.7064,4.8419,4.9843,5.1081,5.2077,5.328,5.4575,5.5736,5.6654,5.7494,5.8493,5.9268,5.9761,5.9984,6.0002,6.0011,5.9708,5.9234,5.8839,5.8459,5.8403,5.8605,3.0666,3.0344,3.0542,3.0425,3.0022,3.0024,2.9766,2.9509,2.924,2.9275,2.957,2.9014,2.9344,3.0319,2.9839,2.9717,3.0188,2.9885,2.933,2.8447,2.8218,2.7486,2.7275,2.7211,2.7318,2.6807,2.6298,2.5428,2.4775,2.4378,2.3928,2.2873,2.3116,2.3148,2.3148,2.3259,2.385,2.4334,2.4404,2.4504,2.4763,2.4915,2.4684,2.4065,2.3338,2.2529,2.181,2.1195,2.072,2.0322,1.9984,1.9749,1.9955,1.9942,2.0446,2.1194,2.1338,2.1355,2.166,2.2017,2.2203,2.2083,2.2189,2.2452,2.2523,2.3043,2.3805,2.4952,2.6206,2.8001,3.0219,3.1863,3.3138,3.4024,3.4602,3.5222,3.6359,3.6944,3.7002,3.6991,3.7405,3.7839,3.7738,3.8067,3.8707,3.939,4.0455,4.1625,4.2791,4.3993,4.5138,4.6253,4.7309,4.8419,4.9912,5.1473,5.3091,5.4248,5.5411,5.6451,5.7724,5.8226,5.8763,5.9365,6.0125,6.0388,6.0388,6.0512,6.0494,6.0165,5.9933,5.9515,5.9288,5.9241,5.944,2.9576,2.8925,2.871,2.8807,2.8706,2.811,2.803,2.8114,2.7442,2.7622,2.7867,2.7274,2.7538,2.8362,2.7965,2.8048,2.8185,2.8069,2.7645,2.7064,2.6929,2.6576,2.6114,2.6319,2.6469,2.6069,2.5582,2.4786,2.4293,2.3739,2.3197,2.2103,2.1807,2.1589,2.1465,2.1449,2.1852,2.2429,2.257,2.2754,2.3369,2.3448,2.3131,2.2605,2.1795,2.1226,2.0629,2.0151,1.9782,1.9539,1.9223,1.9587,2.0467,2.0543,2.0985,2.1643,2.1862,2.2044,2.2408,2.2713,2.2829,2.2558,2.2728,2.3013,2.3288,2.3861,2.4791,2.5908,2.7207,2.8777,3.0644,3.1941,3.3076,3.3863,3.4342,3.5038,3.6374,3.744,3.8024,3.8084,3.8851,3.9431,3.9819,4.0185,4.0867,4.1515,4.2097,4.3328,4.4522,4.5645,4.6661,4.7731,4.874,4.9912,5.1444,5.3114,5.5145,5.6275,5.7402,5.8223,5.9088,5.9372,5.9553,6.0107,6.0506,6.0489,6.0489,6.0702,6.0712,6.0382,6.0122,6.0075,5.997,5.984,6.0198,2.8292,2.7194,2.6711,2.7035,2.7392,2.6174,2.6383,2.729,2.6277,2.6471,2.662,2.6034,2.6501,2.6651,2.6744,2.6776,2.6761,2.6657,2.6381,2.606,2.6394,2.6234,2.6048,2.6041,2.5898,2.4984,2.4735,2.4334,2.3805,2.3279,2.2736,2.1947,2.1137,2.0584,2.0071,1.959,1.9832,2.0529,2.0484,2.0803,2.1443,2.1682,2.1251,2.0921,2.0555,1.9974,1.9463,1.9114,1.8752,1.8582,1.8319,1.9004,1.9947,2.0832,2.1468,2.2039,2.2244,2.2555,2.2884,2.3135,2.3141,2.2824,2.3143,2.3586,2.3909,2.4435,2.5509,2.7036,2.8341,2.9509,3.0723,3.1783,3.27,3.3337,3.3813,3.4558,3.592,3.722,3.8142,3.8996,4.0013,4.0814,4.1347,4.1801,4.2677,4.3533,4.4102,4.4899,4.6055,4.7213,4.8125,4.9175,5.0135,5.1945,5.3614,5.4556,5.6572,5.7774,5.897,5.9516,6.0137,6.0379,6.0424,6.0397,6.0619,6.0567,6.0482,6.0654,6.0605,6.0403,6.0482,6.0528,6.0472,6.0391,6.0909,2.585,2.4464,2.4874,2.5172,2.528,2.5266,2.6072,2.7068,2.6692,2.6735,2.7115,2.6618,2.6496,2.6599,2.6315,2.6203,2.6084,2.6004,2.5831,2.5749,2.6205,2.6508,2.6253,2.6446,2.6203,2.5715,2.5189,2.4539,2.369,2.315,2.2466,2.1432,2.0734,2.0214,1.9449,1.8886,1.8576,1.8836,1.8646,1.8959,1.9226,1.9199,1.9134,1.9024,1.8897,1.8656,1.8348,1.8082,1.7963,1.768,1.8172,1.8754,1.9552,2.0322,2.124,2.1924,2.2571,2.2921,2.34,2.3317,2.3242,2.326,2.3402,2.3913,2.4463,2.485,2.6012,2.8127,2.9746,3.1012,3.172,3.2175,3.2747,3.3481,3.3932,3.4534,3.6251,3.7605,3.8728,3.9552,4.093,4.2323,4.2633,4.3152,4.4013,4.4699,4.542,4.6279,4.7309,4.8345,4.9318,5.0464,5.1609,5.3803,5.5892,5.6633,5.7715,5.8902,5.9791,6.0131,6.0773,6.1245,6.1353,6.1055,6.0672,6.039,6.0443,6.0496,6.0586,6.0506,6.0712,6.1008,6.1075,6.104,6.1537,2.3715,2.2841,2.3187,2.3762,2.4436,2.5269,2.6454,2.7755,2.7731,2.7867,2.7943,2.7516,2.7214,2.7059,2.6588,2.628,2.6277,2.6107,2.6232,2.665,2.7263,2.7432,2.7217,2.7437,2.7142,2.6681,2.6066,2.5155,2.3954,2.3344,2.2513,2.149,2.0803,1.9909,1.886,1.8452,1.8153,1.7793,1.7432,1.7414,1.7908,1.7582,1.757,1.781,1.7595,1.7352,1.7347,1.7384,1.7604,1.7888,1.8499,1.9146,2.0112,2.107,2.202,2.2286,2.2881,2.3437,2.3767,2.3761,2.3673,2.3601,2.3755,2.4336,2.5014,2.561,2.6718,2.927,3.0764,3.1737,3.1999,3.2379,3.3076,3.3696,3.4054,3.492,3.6295,3.7694,3.8946,4.0087,4.1361,4.261,4.3868,4.4413,4.5206,4.5901,4.6651,4.7489,4.8336,4.9435,5.0375,5.1921,5.3166,5.5167,5.7342,5.8293,5.903,6.0,6.0739,6.1088,6.1081,6.152,6.151,6.1174,6.0866,6.042,5.9902,5.9716,6.0206,6.06,6.0853,6.1086,6.1418,6.1753,6.2264,2.1835,2.1229,2.1595,2.262,2.3873,2.5201,2.6881,2.8517,2.8772,2.9051,2.9458,2.8603,2.8027,2.7705,2.7165,2.6863,2.6921,2.6944,2.7503,2.8166,2.8763,2.8873,2.8787,2.8816,2.857,2.815,2.7482,2.6443,2.4956,2.3878,2.2974,2.2289,2.1496,2.0265,1.9083,1.8836,1.8265,1.7675,1.7082,1.7001,1.7056,1.7086,1.6993,1.7456,1.7022,1.6922,1.7361,1.7465,1.8073,1.8686,1.9383,2.0132,2.1422,2.2786,2.3377,2.3099,2.3588,2.4115,2.4417,2.4412,2.4393,2.4233,2.4424,2.5069,2.5964,2.6885,2.8186,3.0593,3.1527,3.1905,3.2072,3.265,3.3231,3.3711,3.4359,3.5127,3.6272,3.7546,3.9116,4.0257,4.1583,4.276,4.3913,4.4544,4.5101,4.6174,4.6929,4.8013,4.8884,5.0291,5.1512,5.3158,5.4789,5.6663,5.8385,5.968,6.0422,6.1163,6.1653,6.1948,6.1758,6.1564,6.1402,6.1177,6.0863,6.0355,5.9621,5.9223,5.9878,6.0369,6.075,6.1232,6.1849,6.2323,6.2703,2.0308,1.9312,2.0245,2.1373,2.2921,2.4499,2.6766,2.9122,2.9382,2.9834,3.0427,2.9716,2.8874,2.8277,2.7637,2.7648,2.7997,2.8529,2.8745,2.9392,3.0187,3.0509,3.0238,3.0351,3.0373,2.9969,2.9032,2.7651,2.6531,2.532,2.4269,2.3634,2.2526,2.1233,2.0492,1.9914,1.9259,1.8427,1.7795,1.7301,1.6852,1.7056,1.7379,1.7568,1.7626,1.7822,1.8334,1.8555,1.9065,2.0103,2.0841,2.1622,2.2636,2.4122,2.5024,2.5257,2.5392,2.545,2.5586,2.5448,2.535,2.5347,2.558,2.6184,2.6934,2.8531,2.9973,3.1192,3.1651,3.1753,3.2072,3.2398,3.2904,3.3637,3.4396,3.531,3.6331,3.7905,3.9346,4.044,4.1657,4.2785,4.3848,4.4382,4.4943,4.6174,4.7336,4.8326,4.9531,5.0886,5.2515,5.4239,5.5979,5.7764,5.8962,6.0322,6.1246,6.2016,6.2247,6.2414,6.2104,6.1662,6.131,6.1024,6.0767,6.0323,5.9696,5.9596,5.9884,6.0184,6.0594,6.1417,6.2391,6.2829,6.3142,2.0397,1.9002,2.0226,2.1623,2.3247,2.5328,2.7545,2.9489,3.031,3.0682,3.0899,3.0101,2.9362,2.9005,2.8906,2.9412,2.983,3.0392,3.084,3.1245,3.2018,3.2499,3.2377,3.2187,3.2052,3.2058,3.1357,3.0777,2.9219,2.7337,2.5898,2.5158,2.4204,2.3162,2.2116,2.1264,2.0618,1.9866,1.9028,1.8408,1.8344,1.8292,1.8498,1.9021,1.9059,1.9308,1.9615,1.9926,2.0633,2.1865,2.2817,2.4031,2.5352,2.6693,2.7655,2.8084,2.8473,2.8105,2.7122,2.6904,2.6765,2.6804,2.7083,2.7402,2.7965,2.9209,3.0874,3.1889,3.1862,3.1941,3.2317,3.3034,3.3469,3.3959,3.4636,3.5678,3.6744,3.8251,3.9733,4.0758,4.188,4.2897,4.3951,4.467,4.5421,4.6469,4.7577,4.8539,4.9861,5.1376,5.3256,5.5206,5.6922,5.8684,5.9532,6.0546,6.1239,6.1947,6.2079,6.2116,6.209,6.1676,6.1258,6.109,6.092,6.049,5.984,5.9759,5.9876,6.0154,6.0554,6.1501,6.2437,6.2779,6.3062,2.1726,2.015,2.1077,2.2307,2.3938,2.6077,2.8085,2.9826,3.0675,3.111,3.1065,3.0401,2.9867,3.002,3.0498,3.112,3.1661,3.2505,3.2995,3.3619,3.4108,3.4624,3.4547,3.4268,3.414,3.4482,3.3224,3.2592,3.1822,3.0276,2.8366,2.6742,2.5938,2.4978,2.3841,2.3126,2.2472,2.1612,2.0604,2.0302,2.0408,2.0297,2.0695,2.1075,2.1269,2.1512,2.1773,2.2285,2.3317,2.4619,2.5543,2.6723,2.8091,2.8957,2.9816,3.0339,3.0643,3.0558,2.9728,2.9189,2.8649,2.8528,2.8693,2.8876,2.8901,2.9994,3.0874,3.1782,3.2103,3.2206,3.259,3.3471,3.3899,3.4351,3.4986,3.6033,3.7223,3.8571,4.0023,4.1484,4.2401,4.3321,4.43,4.5066,4.5929,4.6846,4.7847,4.8724,5.029,5.2002,5.3481,5.5469,5.7089,5.8752,5.9849,6.064,6.1333,6.1777,6.1878,6.1947,6.1853,6.1621,6.1294,6.1113,6.1,6.0896,6.0484,6.0132,5.9949,6.0554,6.1121,6.1633,6.2253,6.2615,6.3049,2.4459,2.3199,2.2492,2.3246,2.4947,2.6024,2.7687,2.952,3.0353,3.0781,3.0841,3.0597,3.0736,3.1236,3.182,3.2629,3.3426,3.4346,3.4862,3.536,3.6012,3.6515,3.6498,3.632,3.605,3.5893,3.4821,3.4177,3.3727,3.2871,3.0829,2.901,2.7919,2.6707,2.5857,2.5309,2.458,2.376,2.2987,2.2749,2.2872,2.3039,2.3513,2.3965,2.4485,2.5087,2.6092,2.6271,2.6915,2.8342,2.8647,2.9379,3.0504,3.1044,3.17,3.2259,3.2609,3.2771,3.2567,3.135,3.0297,3.0144,3.0305,3.0392,3.0261,3.076,3.1295,3.1824,3.2425,3.2659,3.3049,3.3507,3.4051,3.4549,3.5273,3.6478,3.7472,3.8674,4.0241,4.1917,4.3123,4.3994,4.4921,4.5819,4.6195,4.7053,4.8311,4.9328,5.1023,5.2665,5.3809,5.5389,5.7008,5.8473,5.978,6.047,6.085,6.1224,6.1441,6.1574,6.1613,6.1339,6.1103,6.1103,6.1,6.101,6.1224,6.1141,6.1122,6.1326,6.1709,6.2049,6.2312,6.2685,6.2946,2.6158,2.6151,2.5575,2.5617,2.6081,2.705,2.8186,2.9332,2.9905,3.0161,3.0144,3.0548,3.1042,3.1815,3.3358,3.4275,3.5171,3.6408,3.683,3.7199,3.774,3.8065,3.7943,3.7635,3.7193,3.7136,3.6177,3.5469,3.5266,3.4199,3.3191,3.16,3.0181,2.9133,2.8418,2.7571,2.6911,2.6394,2.5845,2.5774,2.6654,2.6312,2.673,2.7535,2.8025,2.8549,2.9112,2.9623,3.0459,3.124,3.1573,3.2229,3.2913,3.3221,3.3672,3.4318,3.4606,3.5089,3.5088,3.3632,3.2355,3.2355,3.2338,3.2096,3.1651,3.1848,3.2641,3.3126,3.3158,3.3353,3.3702,3.412,3.4406,3.4888,3.5595,3.6672,3.8003,3.9141,4.0804,4.2675,4.3771,4.4565,4.5599,4.6598,4.6859,4.7232,4.861,4.994,5.1601,5.2989,5.388,5.487,5.6423,5.7351,5.8591,5.9433,6.0082,6.0515,6.0815,6.0856,6.0865,6.1103,6.0866,6.0897,6.0908,6.1091,6.1402,6.2098,6.2237,6.2224,6.2245,6.2332,6.2505,6.2706,6.2816,2.73,2.8137,2.8138,2.7875,2.7621,2.8347,2.8972,2.9549,3.0194,3.0236,2.9923,3.0707,3.1513,3.2538,3.4195,3.5549,3.6577,3.7784,3.8613,3.9032,3.9151,3.9355,3.9139,3.8671,3.8059,3.8013,3.6858,3.5916,3.5959,3.4803,3.3806,3.3098,3.2608,3.1287,3.0412,2.968,2.9184,2.8991,2.9043,2.9005,2.9876,3.0182,3.0342,3.128,3.1906,3.2681,3.3282,3.3887,3.4435,3.4813,3.5046,3.5139,3.5407,3.565,3.5799,3.6293,3.6789,3.7089,3.6992,3.5746,3.4528,3.4388,3.4095,3.3453,3.3015,3.2983,3.3549,3.5175,3.4764,3.4314,3.4665,3.4912,3.5134,3.5482,3.5749,3.6759,3.8516,3.9864,4.1706,4.3413,4.431,4.5005,4.6624,4.7591,4.8089,4.8465,4.9288,5.0383,5.1434,5.2691,5.358,5.4504,5.5524,5.6357,5.7064,5.7777,5.8492,5.8807,5.9205,5.9645,5.9768,6.0075,6.0527,6.0537,6.0679,6.1145,6.1487,6.1821,6.2396,6.3027,6.3035,6.3045,6.2537,6.2644,6.261,2.7846,2.889,2.9673,2.9643,2.9393,2.9858,3.0056,3.0162,3.0701,3.0882,3.0719,3.1034,3.1971,3.3364,3.5104,3.6529,3.7618,3.8908,3.9937,4.0264,4.0164,4.0352,4.0035,3.9382,3.8411,3.7895,3.6835,3.5922,3.6077,3.4594,3.3879,3.4029,3.3614,3.3017,3.2187,3.1758,3.1534,3.1655,3.2187,3.2212,3.2608,3.3605,3.4124,3.498,3.5696,3.6453,3.7419,3.7895,3.8314,3.8423,3.8095,3.8017,3.7831,3.7243,3.749,3.8382,3.8444,3.904,3.9932,3.7774,3.6793,3.6293,3.5837,3.5066,3.4628,3.445,3.4957,3.6939,3.6343,3.5833,3.5848,3.5663,3.5859,3.6145,3.6306,3.7067,3.8713,4.0183,4.178,4.3425,4.4403,4.5388,4.7244,4.8659,4.9307,4.9832,5.0405,5.1006,5.1626,5.2115,5.2846,5.3429,5.4321,5.4748,5.5359,5.6199,5.6813,5.719,5.7577,5.8084,5.8491,5.8837,5.9285,5.9897,6.0291,6.0563,6.0992,6.1407,6.216,6.3048,6.3743,6.3674,6.3128,6.2404,6.2124,2.7549,2.9065,3.0223,3.1016,3.1426,3.1386,3.1208,3.1035,3.102,3.1169,3.1616,3.2193,3.2973,3.4393,3.6028,3.7627,3.8565,3.9434,4.0449,4.1376,4.0918,4.0537,4.0177,3.9308,3.8333,3.7453,3.6405,3.5615,3.5538,3.4238,3.4151,3.436,3.4604,3.4419,3.3827,3.348,3.3652,3.434,3.4916,3.5352,3.6074,3.67,3.7437,3.8479,3.9092,3.9907,4.0854,4.1333,4.1352,4.105,4.0576,3.9943,3.9519,3.8819,3.9087,3.9988,4.0377,4.1251,4.2058,4.1245,3.9947,3.8725,3.7407,3.6691,3.5978,3.5868,3.7093,3.8148,3.7613,3.7263,3.718,3.6231,3.6122,3.6673,3.6967,3.7489,3.8823,4.0072,4.1496,4.3098,4.4325,4.6116,4.7961,4.8994,4.9667,4.993,5.0279,5.0763,5.1416,5.1446,5.187,5.2269,5.2849,5.3213,5.3732,5.4374,5.5145,5.5621,5.6077,5.6579,5.7014,5.7549,5.8468,5.9104,5.9621,6.0072,6.0486,6.1069,6.2044,6.2921,6.3133,6.3235,6.2634,6.1804,6.1081,2.7239,2.9214,3.0635,3.2046,3.3149,3.2895,3.2575,3.2246,3.1682,3.1783,3.2506,3.3211,3.3853,3.5047,3.6817,3.8249,3.9173,4.0195,4.0912,4.1852,4.1038,4.0542,3.989,3.9043,3.784,3.6946,3.6002,3.5348,3.5097,3.4003,3.378,3.4336,3.5335,3.5459,3.5135,3.5288,3.564,3.6287,3.6861,3.7746,3.8517,3.9303,4.0198,4.1191,4.2021,4.2739,4.3475,4.3684,4.3514,4.2968,4.2251,4.1536,4.0997,4.0796,4.096,4.19,4.319,4.4028,4.4669,4.426,4.2857,4.1633,3.9843,3.8333,3.7464,3.7228,3.8528,3.9322,3.8807,3.846,3.8007,3.6918,3.6928,3.7452,3.7571,3.8071,3.8936,4.0184,4.1409,4.3,4.4468,4.6437,4.8187,4.907,4.9896,5.0017,5.0154,5.0514,5.0807,5.0687,5.0564,5.087,5.1143,5.1319,5.1772,5.2382,5.3205,5.3965,5.4522,5.4988,5.5674,5.6234,5.7363,5.8275,5.8562,5.8968,5.9864,6.0615,6.1012,6.1396,6.1716,6.1862,6.1979,6.1374,6.0557,2.6836,2.9197,3.0816,3.265,3.4386,3.4289,3.4106,3.3776,3.288,3.2971,3.3823,3.3838,3.4642,3.5756,3.7678,3.8802,3.9452,4.0637,4.1395,4.1653,4.109,4.05,3.9669,3.8718,3.7568,3.6284,3.5352,3.4899,3.4693,3.4198,3.3889,3.4303,3.5957,3.6508,3.6767,3.7263,3.7572,3.8031,3.9104,3.9728,4.0395,4.1619,4.2477,4.3378,4.4162,4.508,4.5727,4.5754,4.5631,4.5014,4.4196,4.3445,4.296,4.2821,4.351,4.4552,4.6185,4.6774,4.6864,4.6275,4.5782,4.4501,4.2378,4.0529,3.9167,3.8739,3.9585,4.0252,4.0004,3.9448,3.8827,3.8404,3.7974,3.7998,3.7892,3.8548,3.934,4.0418,4.1588,4.2951,4.4353,4.6035,4.7674,4.8816,4.9423,4.9507,4.9426,4.9301,4.9516,4.9238,4.9208,4.9149,4.9297,4.9415,4.9957,5.0624,5.1263,5.2115,5.2789,5.331,5.4112,5.4945,5.5968,5.6809,5.7267,5.7962,5.8695,5.9101,5.9304,5.9828,6.0736,6.114,6.1535,6.1095,6.0489,2.7546,2.9672,3.1935,3.372,3.4939,3.5534,3.5367,3.4732,3.41,3.4184,3.491,3.5201,3.5916,3.7052,3.8729,3.952,4.0234,4.1007,4.1732,4.174,4.1287,4.0757,3.9765,3.8616,3.7295,3.6235,3.5355,3.4939,3.4956,3.4643,3.5241,3.6141,3.7127,3.8001,3.8881,3.9923,3.9769,3.9926,4.1105,4.1676,4.2328,4.336,4.4287,4.5101,4.5552,4.6429,4.6864,4.6756,4.6471,4.5889,4.5062,4.4298,4.4122,4.4388,4.5132,4.6722,4.7907,4.8594,4.8512,4.7943,4.7371,4.6881,4.5112,4.3107,4.1402,4.0412,4.0594,4.0977,4.0683,3.9822,3.9297,3.8985,3.8436,3.817,3.8089,3.8461,3.9251,3.9939,4.1235,4.2802,4.4199,4.5954,4.7591,4.8126,4.878,4.8852,4.8694,4.8505,4.8394,4.8283,4.7975,4.7946,4.819,4.8517,4.8525,4.9129,4.9642,5.0245,5.1092,5.1911,5.2826,5.3652,5.4605,5.5465,5.6226,5.6885,5.7506,5.7871,5.819,5.9433,6.037,6.0725,6.0987,6.0655,6.0421,2.8648,3.0723,3.2772,3.4516,3.582,3.6668,3.6689,3.6032,3.5371,3.5529,3.615,3.6677,3.7455,3.8378,3.9647,4.0378,4.0445,4.1527,4.2114,4.1686,4.1373,4.0939,4.0019,3.9043,3.7917,3.6974,3.6358,3.6013,3.5892,3.6259,3.6824,3.7245,3.8442,3.9347,4.0286,4.1362,4.2184,4.2203,4.2724,4.3514,4.4121,4.467,4.5454,4.605,4.6364,4.6906,4.7304,4.6976,4.6585,4.6346,4.565,4.5277,4.5329,4.6059,4.7652,4.9126,4.9694,5.0216,5.0153,4.9484,4.8934,4.8201,4.7171,4.5695,4.3832,4.2463,4.225,4.2098,4.1057,4.0043,3.9645,3.9272,3.863,3.808,3.8121,3.8185,3.8794,3.9406,4.0877,4.249,4.4255,4.6085,4.7246,4.7754,4.8078,4.8021,4.8066,4.7925,4.7843,4.7827,4.7413,4.7195,4.7439,4.7712,4.7812,4.8086,4.8834,4.9434,4.991,5.0723,5.157,5.2298,5.3148,5.4246,5.538,5.6002,5.6531,5.6905,5.7372,5.8758,5.9971,6.0411,6.074,6.0757,6.0449,3.0193,3.2128,3.3469,3.5179,3.7034,3.7827,3.8065,3.7759,3.7124,3.7012,3.7448,3.8194,3.8874,3.989,4.1,4.1212,4.1476,4.2279,4.2514,4.1769,4.1728,4.1493,4.1072,3.9931,3.8969,3.8515,3.7939,3.7295,3.7295,3.7618,3.8086,3.8361,3.9436,4.0421,4.1241,4.2849,4.3856,4.4276,4.4436,4.4941,4.5155,4.5573,4.5956,4.6167,4.6625,4.7023,4.7018,4.681,4.6429,4.6476,4.6275,4.5977,4.7077,4.787,4.9831,5.094,5.1199,5.1286,5.1186,5.053,4.9647,4.9023,4.8429,4.6911,4.5053,4.3772,4.3432,4.2454,4.1383,4.0351,3.9861,3.9247,3.8662,3.8472,3.8484,3.8582,3.8834,3.9879,4.1635,4.3202,4.4811,4.6482,4.6906,4.7446,4.7763,4.7577,4.7501,4.7549,4.7808,4.7758,4.7549,4.7145,4.7189,4.7556,4.7779,4.8054,4.8415,4.8895,4.9307,4.9839,5.0839,5.1344,5.1716,5.3028,5.4323,5.5011,5.557,5.6027,5.6904,5.8477,5.9458,6.0064,6.0427,6.0766,6.0653,3.2219,3.2938,3.4941,3.6694,3.8021,3.8283,3.8738,3.9089,3.9281,3.926,3.9254,3.9762,4.0715,4.1705,4.2249,4.2512,4.3003,4.3192,4.3339,4.301,4.2595,4.2341,4.2204,4.108,4.0236,3.9624,3.9092,3.8688,3.8863,3.9082,3.957,4.0226,4.1108,4.1648,4.2762,4.442,4.5121,4.5829,4.6336,4.6111,4.5874,4.6339,4.678,4.6491,4.6509,4.6879,4.6885,4.664,4.6811,4.7084,4.6724,4.7373,4.9046,4.9546,5.0674,5.1966,5.2152,5.1999,5.1769,5.1113,5.0101,4.8906,4.7997,4.6675,4.5539,4.4792,4.3853,4.2711,4.1665,4.076,3.9894,3.9242,3.8716,3.8733,3.8792,3.8945,3.9124,4.0866,4.2551,4.3914,4.542,4.6137,4.6719,4.7065,4.7383,4.7493,4.7553,4.7818,4.8339,4.8534,4.8553,4.8161,4.752,4.7659,4.7858,4.8263,4.8715,4.9164,4.9667,4.9965,5.0262,5.1067,5.1871,5.2386,5.3239,5.4315,5.5112,5.5403,5.6483,5.8276,5.9372,6.019,6.0695,6.1095,6.0904,3.4113,3.4595,3.6539,3.7648,3.8247,3.9027,3.9688,4.0028,4.1004,4.1465,4.1465,4.1705,4.2412,4.3329,4.3632,4.3993,4.4323,4.447,4.4302,4.4016,4.3771,4.3541,4.296,4.2293,4.2009,4.149,4.0976,4.0792,4.0785,4.1366,4.1954,4.2476,4.2878,4.3541,4.4628,4.5348,4.5989,4.6723,4.7475,4.7249,4.6633,4.6864,4.6836,4.6491,4.633,4.6637,4.6854,4.6667,4.6925,4.7642,4.7896,4.846,4.9792,5.0592,5.1595,5.2327,5.2587,5.244,5.2105,5.1424,5.0249,4.8922,4.788,4.6833,4.5352,4.4471,4.3457,4.2334,4.1616,4.0656,3.9616,3.8851,3.8567,3.8358,3.9228,3.9885,4.0866,4.237,4.352,4.4596,4.5657,4.638,4.6781,4.7131,4.7319,4.7428,4.7485,4.7992,4.8548,4.9502,4.9433,4.9452,4.9,4.8603,4.8781,4.8949,4.9164,4.9583,5.0061,5.038,5.0703,5.1456,5.2151,5.2809,5.3521,5.4369,5.5031,5.5636,5.6953,5.8806,5.9677,6.0336,6.0815,6.1204,6.0876,3.5964,3.6524,3.7908,3.8387,3.8427,4.0079,4.0766,4.0906,4.2247,4.3441,4.3952,4.3596,4.4346,4.4844,4.5148,4.529,4.5429,4.5685,4.5439,4.5182,4.478,4.4694,4.4396,4.3831,4.3625,4.3415,4.3022,4.3073,4.3227,4.3535,4.3889,4.4738,4.5166,4.5564,4.5813,4.6117,4.6606,4.7158,4.7528,4.7528,4.7319,4.7137,4.6795,4.6462,4.6058,4.6295,4.661,4.6824,4.6883,4.7931,4.9094,4.9891,5.0459,5.1363,5.1866,5.2571,5.2803,5.2686,5.2494,5.1638,5.0197,4.8842,4.7929,4.6753,4.5168,4.4001,4.2998,4.2068,4.1369,4.0561,3.9412,3.8678,3.8364,3.8716,3.9798,4.0887,4.237,4.3651,4.4439,4.5304,4.5921,4.6621,4.6946,4.7189,4.7352,4.7352,4.7676,4.8133,4.8908,5.0009,5.0634,5.0991,5.1187,5.069,5.0183,5.0054,5.0366,5.0427,5.0968,5.0953,5.1234,5.2144,5.284,5.3404,5.4084,5.5172,5.5977,5.6645,5.8058,5.9421,6.0047,6.0707,6.1095,6.1306,6.0808,3.792,3.8556,3.8924,3.9413,4.0016,4.0966,4.1662,4.2193,4.2818,4.4175,4.5668,4.6104,4.6281,4.6642,4.707,4.7199,4.7483,4.7268,4.7205,4.7095,4.6176,4.5927,4.5761,4.5328,4.5151,4.4783,4.452,4.4335,4.4811,4.4965,4.4975,4.5285,4.5476,4.5968,4.6484,4.6863,4.7058,4.7438,4.7724,4.7724,4.7263,4.7059,4.6973,4.6486,4.6007,4.6346,4.6672,4.6716,4.741,4.8526,4.9826,5.0858,5.1393,5.1899,5.2337,5.2438,5.2706,5.2291,5.1828,5.1238,4.9789,4.7963,4.6964,4.5779,4.4459,4.3361,4.2423,4.1481,4.0741,4.0194,3.9283,3.8626,3.8299,3.9546,4.0747,4.2035,4.3414,4.4359,4.5203,4.589,4.6347,4.6835,4.7135,4.7352,4.7568,4.7785,4.8464,4.9033,4.9616,5.0671,5.1833,5.2442,5.2947,5.2852,5.2367,5.1858,5.1843,5.1787,5.188,5.2264,5.2667,5.2934,5.3656,5.4473,5.5389,5.6446,5.7135,5.7785,5.8794,6.0047,6.0539,6.1032,6.1375,6.134,6.0774]},{"header":{"parameterUnit":"m.s-1","parameterCategory":1,"la1":31.0,"la2":29.5877,"lo1":-88.7671,"lo2":-86.6584,"dy":0.0162,"dx":0.0185,"nx":115,"ny":88,"refTime":"2023-04-02T12:00:00:Z","depth":0,"parameterNumber":3,"parameterNumberName":"V-component_of_WINDS"},"data":[0.0,0.0,0.0,0.0,0.0,0.0,0.0,0.0,0.0,0.0,0.0,0.0,0.0,0.0,0.0,0.0,0.0,0.0,0.0,0.0,0.0,0.0,0.0,0.0,0.0,0.0,0.0,0.0,0.0,0.0,0.0,0.0,0.0,0.0,0.0,0.0,0.0,0.0,0.0,0.0,0.0,0.0,0.0,0.0,0.0,0.0,0.0,0.0,0.0,0.0,0.0,0.0,0.0,0.0,0.0,0.0,0.0,0.0,0.0,0.0,0.0,0.0,0.0,0.0,0.0,0.0,0.0,0.0,0.0,0.0,0.0,0.0,0.0,0.0,0.0,0.0,0.0,0.0,0.0,0.0,0.0,0.0,0.0,0.0,0.0,0.0,0.0,0.0,0.0,0.0,0.0,0.0,0.0,0.0,0.0,0.0,0.0,0.0,0.0,0.0,0.0,0.0,0.0,0.0,0.0,0.0,0.0,0.0,0.0,0.0,0.0,0.0,0.0,0.0,0.0,0.0,0.0,0.0,0.0,0.0,0.0,0.0,0.0,0.0,0.0,0.0,0.0,0.0,0.0,0.0,0.0,0.0,0.0,0.0,0.0,0.0,0.0,0.0,0.0,0.0,0.0,0.0,0.0,0.0,0.0,0.0,0.0,0.0,0.0,0.0,0.0,0.0,0.0,0.0,0.0,0.0,0.0,0.0,0.0,0.0,0.0,0.0,0.0,0.0,0.0,0.0,0.0,0.0,0.0,0.0,0.0,0.0,0.0,0.0,0.0,0.0,0.0,0.0,0.0,0.0,0.0,0.0,0.0,0.0,0.0,0.0,0.0,0.0,0.0,0.0,0.0,0.0,0.0,0.0,0.0,0.0,0.0,0.0,0.0,0.0,0.0,0.0,0.0,0.0,0.0,0.0,0.0,0.0,0.0,0.0,0.0,0.0,0.0,0.0,0.0,0.0,0.0,0.0,0.0,0.0,0.0,0.0,0.0,0.0,0.0,0.0,0.0,0.0,0.0,0.0,0.0,0.0,0.0,0.0,0.0,0.0,0.0,0.0,0.0,0.0,0.0,0.0,0.0,0.0,0.0,0.0,0.0,0.0,0.0,0.0,0.0,0.0,0.0,0.0,0.0,0.0,0.0,0.0,0.0,0.0,0.0,0.0,0.0,0.0,0.0,0.0,0.0,0.0,0.0,0.0,0.0,0.0,0.0,0.0,0.0,0.0,0.0,0.0,0.0,0.0,0.0,0.0,0.0,0.0,0.0,0.0,0.0,0.0,0.0,0.0,0.0,0.0,0.0,0.0,0.0,0.0,0.0,0.0,0.0,0.0,0.0,0.0,0.0,0.0,0.0,0.0,0.0,0.0,0.0,0.0,0.0,0.0,0.0,0.0,0.0,0.0,0.0,0.0,0.0,0.0,0.0,0.0,0.0,0.0,0.0,0.0,0.0,0.0,0.0,0.0,0.0,0.0,0.0,0.0,0.0,0.0,0.0,0.0,0.0,0.0,0.0,0.0,0.0,0.0,0.0,0.0,0.0,0.0,0.0,0.0,0.0,0.0,0.0,0.0,0.0,0.0,0.0,0.0,0.0,0.0,0.0,0.0,0.0,0.0,0.0,0.0,0.0,0.0,0.0,0.0,0.0,0.0,0.0,0.0,0.0,0.0,0.0,0.0,0.0,0.0,0.0,0.0,0.0,0.0,0.0,0.0,0.0,0.0,0.0,0.0,0.0,0.0,0.0,0.0,0.0,0.0,0.0,0.0,0.0,0.0,0.0,0.0,0.0,0.0,0.0,0.0,0.0,0.0,0.0,0.0,0.0,0.0,0.0,0.0,0.0,0.0,0.0,0.0,0.0,0.0,0.0,0.0,0.0,0.0,0.0,0.0,0.0,0.0,0.0,0.0,0.0,0.0,0.0,0.0,0.0,0.0,0.0,0.0,0.0,0.0,0.0,0.0,0.0,0.0,0.0,0.0,0.0,0.0,0.0,0.0,0.0,0.0,0.0,0.0,0.0,0.0,0.0,0.0,0.0,0.0,0.0,0.0,0.0,0.0,0.0,0.0,0.0,0.0,0.0,0.0,0.0,0.0,0.0,0.0,0.0,0.0,0.0,0.0,0.0,0.0,0.0,0.0,0.0,0.0,0.0,0.0,0.0,0.0,0.0,0.0,0.0,0.0,0.0,0.0,0.0,0.0,0.0,0.0,0.0,0.0,0.0,0.0,0.0,0.0,0.0,0.0,0.0,0.0,0.0,0.0,0.0,0.0,0.0,0.0,0.0,0.0,0.0,0.0,0.0,0.0,0.0,0.0,0.0,0.0,0.0,0.0,0.0,0.0,0.0,0.0,0.0,0.0,0.0,0.0,0.0,0.0,0.0,0.0,0.0,0.0,0.0,0.0,0.0,0.0,0.0,0.0,0.0,0.0,0.0,0.0,0.0,0.0,0.0,0.0,0.0,0.0,0.0,0.0,0.0,0.0,0.0,0.0,0.0,0.0,0.0,0.0,0.0,0.0,0.0,0.0,0.0,0.0,0.0,0.0,0.0,0.0,0.0,0.0,0.0,0.0,0.0,0.0,0.0,0.0,0.0,0.0,0.0,0.0,0.0,0.0,0.0,0.0,0.0,0.0,0.0,0.0,0.0,0.0,0.0,0.0,0.0,0.0,0.0,0.0,0.0,0.0,0.0,0.0,0.0,0.0,0.0,0.0,0.0,0.0,0.0,0.0,0.0,0.0,0.0,0.0,0.0,0.0,0.0,0.0,0.0,0.0,0.0,0.0,0.0,0.0,0.0,0.0,0.0,0.0,0.0,0.0,0.0,0.0,0.0,0.0,0.0,0.0,0.0,0.0,0.0,0.0,0.0,0.0,0.0,0.0,0.0,0.0,0.0,0.0,0.0,0.0,0.0,0.0,0.0,0.0,0.0,0.0,0.0,0.0,0.0,0.0,0.0,0.0,0.0,0.0,0.0,0.0,0.0,0.0,0.0,0.0,0.0,0.0,0.0,0.0,0.0,0.0,0.0,0.0,0.0,0.0,0.0,0.0,0.0,0.0,0.0,0.0,0.0,0.0,0.0,0.0,0.0,0.0,0.0,0.0,0.0,0.0,0.0,0.0,0.0,0.0,0.0,0.0,0.0,0.0,0.0,0.0,0.0,0.0,0.0,0.0,0.0,0.0,0.0,0.0,0.0,0.0,0.0,0.0,0.0,0.0,0.0,0.0,0.0,0.0,0.0,0.0,0.0,0.0,0.0,0.0,0.0,0.0,0.0,0.0,0.0,0.0,0.0,0.0,0.0,0.0,0.0,0.0,0.0,0.0,0.0,0.0,0.0,0.0,0.0,0.0,0.0,0.0,0.0,0.0,0.0,0.0,0.0,0.0,0.0,0.0,0.0,0.0,0.0,0.0,0.0,0.0,0.0,0.0,0.0,0.0,0.0,0.0,0.0,0.0,0.0,0.0,0.0,0.0,0.0,0.0,0.0,0.0,0.0,0.0,0.0,0.0,0.0,0.0,0.0,0.0,0.0,0.0,0.0,0.0,0.0,0.0,0.0,0.0,0.0,0.0,0.0,0.0,0.0,0.0,0.0,0.0,0.0,0.0,0.0,0.0,0.0,0.0,0.0,0.0,0.0,0.0,0.0,0.0,0.0,0.0,0.0,0.0,0.0,0.0,0.0,0.0,0.0,0.0,0.0,0.0,0.0,0.0,0.0,0.0,0.0,0.0,0.0,0.0,0.0,0.0,0.0,0.0,0.0,0.0,0.0,0.0,0.0,0.0,0.0,0.0,0.0,0.0,0.0,0.0,0.0,0.0,0.0,0.0,0.0,0.0,0.0,0.0,0.0,0.0,0.0,0.0,0.0,0.0,0.0,0.0,0.0,0.0,0.0,0.0,0.0,0.0,0.0,0.0,0.0,0.0,0.0,0.0,0.0,0.0,0.0,0.0,0.0,0.0,0.0,0.0,0.0,0.0,0.0,0.0,0.0,0.0,0.0,0.0,0.0,0.0,0.0,0.0,0.0,0.0,0.0,0.0,0.0,0.0,0.0,0.0,0.0,0.0,0.0,0.0,0.0,0.0,0.0,0.0,0.0,0.0,0.0,0.0,0.0,0.0,0.0,0.0,0.0,0.0,0.0,0.0,0.0,0.0,0.0,0.0,0.0,0.0,0.0,0.0,0.0,0.0,0.0,0.0,0.0,0.0,0.0,0.0,0.0,0.0,0.0,0.0,0.0,0.0,0.0,0.0,0.0,0.0,0.0,0.0,0.0,0.0,1.4624,0.0,0.0,0.0,0.0,0.0,0.0,0.0,0.0,0.0,0.0,0.0,0.0,0.0,0.0,0.0,0.0,0.0,0.0,0.0,0.0,0.0,0.0,0.0,0.0,0.0,0.0,0.0,0.0,0.0,0.0,0.0,0.0,0.0,0.0,0.0,0.0,0.0,0.0,0.0,0.0,0.0,0.0,0.0,0.0,0.0,0.0,0.0,0.0,0.0,0.0,0.0,0.0,0.0,0.0,0.0,0.0,0.0,0.0,0.0,0.0,0.0,0.0,0.0,0.0,0.0,0.0,0.0,0.0,0.0,0.0,0.0,0.0,0.0,0.0,0.0,0.0,0.0,0.0,0.0,0.0,0.0,0.0,0.0,0.0,0.0,0.0,0.0,0.0,0.0,0.0,0.0,0.0,0.0,0.0,0.0,0.0,0.0,0.0,0.0,0.0,0.0,0.0,0.0,0.0,0.0,0.0,0.0,0.0,0.0,0.0,1.5791,1.6168,1.5895,1.5343,1.4527,0.0,0.0,0.0,0.0,0.0,0.0,0.0,0.0,0.0,0.0,0.0,0.0,0.0,0.0,0.0,0.0,0.0,0.0,0.0,0.0,0.0,0.0,0.0,0.0,0.0,0.0,0.0,0.0,0.0,0.0,0.0,0.0,0.0,0.0,0.0,0.0,0.0,0.0,0.0,0.0,0.0,0.0,0.0,0.0,0.0,0.0,0.0,0.0,0.0,0.0,0.0,0.0,0.0,0.0,0.0,0.0,0.0,0.0,0.0,0.0,0.0,0.0,0.0,0.0,0.0,0.0,0.0,0.0,0.0,0.0,0.0,0.0,0.0,0.0,0.0,0.0,0.0,0.0,0.0,0.0,0.0,0.0,0.0,0.0,0.0,0.0,0.0,0.0,0.0,0.0,0.0,0.0,0.0,0.0,0.0,0.0,0.0,0.0,0.0,0.0,0.0,0.0,0.0,0.0,0.0,0.0,0.0,0.0,0.0,0.0,0.0,0.0,1.6054,1.5484,1.3983,0.0,0.0,0.0,0.0,0.0,0.0,0.0,0.0,0.0,0.0,0.0,0.0,0.0,0.0,0.0,0.0,0.0,0.0,0.0,0.0,0.0,0.0,0.0,0.0,0.0,0.0,0.0,0.0,0.0,0.0,0.0,0.0,0.0,0.0,0.0,0.0,0.0,0.0,0.0,0.0,0.0,0.0,0.0,0.0,0.0,0.0,0.0,0.0,0.0,0.0,0.0,0.0,0.0,0.0,0.0,0.0,0.0,0.0,0.0,0.0,0.0,0.0,0.0,0.0,0.0,0.0,0.0,0.0,0.0,0.0,0.0,0.0,0.0,0.0,0.0,0.0,0.0,0.0,0.0,0.0,0.0,0.0,0.0,0.0,0.0,0.0,0.0,0.0,0.0,0.0,0.0,0.0,0.0,0.0,0.0,0.0,0.0,0.0,0.0,0.0,0.0,0.0,0.0,0.0,0.0,0.0,0.0,0.0,0.0,0.0,1.5896,1.5157,1.567,0.0,1.2795,0.0,0.0,0.0,0.0,0.0,0.0,0.0,0.0,0.0,0.0,0.0,0.0,0.0,0.0,0.0,0.0,0.0,0.0,0.0,0.0,0.0,0.0,0.0,0.0,0.0,0.0,0.0,0.0,0.0,0.0,0.0,0.0,0.0,0.0,0.0,0.0,0.0,0.0,0.0,0.0,0.0,0.0,0.0,0.0,0.0,0.0,0.0,0.0,0.0,0.0,0.0,0.0,0.0,0.0,0.0,0.0,0.0,0.0,0.0,0.0,0.0,0.0,0.0,0.0,0.0,0.0,0.0,0.0,0.0,0.0,0.0,0.0,0.0,0.0,0.0,0.0,0.0,0.0,0.0,0.0,0.0,0.0,0.0,0.0,0.0,0.0,0.0,0.0,0.0,0.0,0.0,0.0,0.0,0.0,0.0,0.0,0.0,0.0,0.0,0.0,0.0,0.0,0.0,0.0,0.0,0.0,0.0,0.0,0.0,0.0,1.561,1.5535,1.4848,1.3816,0.0,0.0,0.0,0.0,0.0,0.0,0.0,0.0,0.0,0.0,0.0,0.0,0.0,0.0,0.0,0.0,0.0,0.0,0.0,0.0,0.0,0.0,0.0,0.0,0.0,0.0,0.0,0.0,0.0,0.0,0.0,0.0,0.0,0.0,0.0,0.0,0.0,0.0,0.0,0.0,0.0,0.0,0.0,0.0,0.0,0.0,0.0,0.0,0.0,0.0,0.0,0.0,0.0,0.0,0.0,0.0,0.0,0.0,0.0,0.0,0.0,0.0,0.0,0.0,0.0,0.0,0.0,0.0,0.0,0.0,0.0,0.0,0.0,0.0,0.0,0.0,0.0,0.0,0.0,0.0,0.0,0.0,0.0,0.0,0.0,0.0,0.0,0.0,0.0,0.0,0.0,0.0,0.0,0.0,0.0,0.0,0.0,0.0,0.0,0.0,0.0,0.0,0.0,0.0,0.0,0.0,0.0,0.0,0.0,0.0,1.5288,1.542,1.5545,1.4533,1.3293,1.1864,0.0,0.0,0.0,0.0,0.0,0.0,0.0,0.0,0.0,0.0,0.0,0.0,0.0,0.0,0.0,0.0,0.0,0.0,0.0,0.0,0.0,0.0,0.0,0.0,0.0,0.0,0.0,0.0,0.0,0.0,0.0,0.0,0.0,0.0,0.0,0.0,0.0,0.0,0.0,0.0,0.0,0.0,0.0,0.0,0.0,0.0,0.0,0.0,0.0,0.0,0.0,0.0,0.0,0.0,0.0,0.0,0.0,0.0,0.0,0.0,0.0,0.0,0.0,0.0,0.0,0.0,0.0,0.0,0.0,0.0,0.0,0.0,0.0,0.0,0.0,0.0,0.0,0.0,0.0,0.0,0.0,0.0,0.0,0.0,0.0,0.0,0.0,0.0,0.0,0.0,0.0,0.0,0.0,0.0,0.0,0.0,0.0,0.0,0.0,0.0,0.0,0.0,0.0,0.0,0.0,0.0,0.0,0.0,1.4097,1.4988,1.5343,1.4882,1.4918,1.3814,0.0,0.0,0.0,0.0,0.0,0.0,0.0,0.0,0.0,0.0,0.0,0.0,0.0,0.0,0.0,0.0,0.0,0.0,0.0,0.0,0.0,0.0,0.0,0.0,0.0,0.0,0.0,0.0,0.0,0.0,0.0,0.0,0.0,0.0,0.0,0.0,0.0,0.0,0.0,0.0,0.0,0.0,0.0,0.0,0.0,0.0,0.0,0.0,0.0,0.0,0.0,0.0,0.0,0.0,0.0,0.0,0.0,0.0,0.0,0.0,0.0,0.0,0.0,0.0,0.0,0.0,0.0,0.0,0.0,0.0,0.0,0.0,0.0,0.0,0.0,0.0,0.0,0.0,0.0,0.0,0.0,0.0,0.0,0.0,0.0,0.0,0.0,0.0,0.0,0.0,0.0,0.0,0.0,0.0,0.0,0.0,0.0,0.0,0.0,0.0,0.0,0.0,0.0,0.0,0.0,0.0,0.0,0.0,0.0,1.416,1.4081,1.4125,1.4114,1.2728,1.1545,0.0,0.0,0.0,0.0,0.0,0.0,0.0,0.0,0.0,0.0,0.0,0.0,0.0,0.0,0.0,0.0,0.0,0.0,0.0,0.0,0.0,0.0,0.0,0.0,0.0,0.0,0.0,0.0,0.0,0.0,0.0,0.0,0.0,0.0,0.0,0.0,0.0,0.0,0.0,0.0,0.0,0.0,0.0,0.0,0.0,0.0,0.0,0.0,0.0,0.0,0.0,0.0,0.0,0.0,0.0,0.0,0.0,0.0,0.0,0.0,0.0,0.0,0.0,0.0,0.0,0.0,0.0,0.0,0.0,0.0,0.0,0.0,0.0,0.0,0.0,0.0,0.0,0.0,0.0,0.0,0.0,0.0,0.0,0.0,0.0,0.0,0.0,0.0,0.0,0.0,0.0,0.0,0.0,0.0,0.0,0.0,0.0,0.0,0.0,0.0,0.0,0.0,0.0,0.0,0.0,0.0,0.0,0.0,0.0,1.4197,0.0,1.336,1.3198,1.1708,1.0679,0.0,0.0,0.0,0.0,0.0,0.0,0.0,0.0,0.0,0.0,0.0,0.0,0.0,0.0,0.0,0.0,0.0,0.0,0.0,0.0,0.0,0.0,0.0,0.0,0.0,0.0,0.0,0.0,0.0,0.0,0.0,0.0,0.0,0.0,0.0,0.0,0.0,0.0,0.0,0.0,0.0,0.0,0.0,0.0,0.0,0.0,0.0,0.0,0.0,0.0,0.0,0.0,0.0,0.0,0.0,0.0,0.0,0.0,0.0,0.0,0.0,0.0,0.0,0.0,0.0,0.0,0.0,0.0,0.0,0.0,0.0,0.0,0.0,0.0,0.0,0.0,0.0,0.0,0.0,0.0,0.0,0.0,0.0,0.0,0.0,0.0,0.0,0.0,0.0,0.0,0.0,0.0,0.0,0.0,0.0,0.0,0.0,0.0,0.0,0.0,0.0,0.0,0.0,0.0,0.0,0.0,0.0,0.0,1.4012,1.3932,1.3859,1.3304,1.2284,1.2325,1.1249,0.0,0.0,0.0,0.0,0.0,0.0,0.0,0.0,0.0,0.0,0.0,0.0,0.0,0.0,0.0,0.0,0.0,0.0,0.0,0.0,0.0,0.0,0.0,0.0,0.0,0.0,0.0,0.0,0.0,0.0,0.0,0.0,0.0,0.0,0.0,0.0,0.0,0.0,0.0,0.0,0.0,0.0,0.0,0.0,0.0,0.0,0.0,0.0,0.0,0.0,0.0,0.0,0.0,0.0,0.0,0.0,0.0,0.0,0.0,0.0,0.0,0.0,0.0,0.0,0.0,0.0,0.0,0.0,0.0,0.0,0.0,0.0,0.0,0.0,0.0,0.0,0.0,0.0,0.0,0.0,0.0,0.0,0.0,0.0,0.0,0.0,0.0,0.0,0.0,0.0,0.0,0.0,0.0,0.0,0.0,0.0,0.0,0.0,0.0,0.0,0.0,0.0,0.0,0.0,0.0,0.0,0.0,0.0,0.0,1.2909,1.3051,1.3314,1.371,1.2024,1.1022,0.0,0.0,0.0,0.0,0.0,0.0,0.0,0.0,0.0,0.0,0.0,0.0,0.0,0.0,0.0,0.0,0.0,0.0,0.0,0.0,0.0,0.0,0.0,0.0,0.0,0.0,0.0,0.0,0.0,0.0,0.0,0.0,0.0,0.0,0.0,0.0,0.0,0.0,0.0,0.0,0.0,0.0,0.0,0.0,0.0,0.0,0.0,0.0,0.0,0.0,0.0,0.0,0.0,0.0,0.0,0.0,0.0,0.0,0.0,0.0,0.0,0.0,0.0,0.0,0.0,0.0,0.0,0.0,0.0,0.0,0.0,0.0,0.0,0.0,0.0,0.0,0.0,0.0,0.0,0.0,0.0,0.0,0.0,0.0,0.0,0.0,0.0,0.0,0.0,0.0,0.0,0.0,0.0,0.0,0.0,0.0,0.0,0.0,0.0,0.0,0.0,0.0,0.0,0.0,0.0,0.0,0.0,0.0,0.0,1.3064,1.336,1.3587,1.3791,1.2078,1.1031,1.0942,0.0,0.0,0.0,0.0,0.0,0.0,0.0,0.0,0.0,0.0,0.0,0.0,0.0,0.0,0.0,0.0,0.0,0.0,0.0,0.0,0.0,0.0,0.0,0.0,0.0,0.0,0.0,0.0,0.0,0.0,0.0,0.0,0.0,0.0,0.0,0.0,0.0,0.0,0.0,0.0,0.0,0.0,0.0,0.0,0.0,0.0,0.0,0.0,0.0,0.0,0.0,0.0,0.0,0.0,0.0,0.0,0.0,0.0,0.0,0.0,0.0,0.0,0.0,0.0,0.0,0.0,0.0,0.0,0.0,0.0,0.0,0.0,0.0,0.0,0.0,0.0,0.0,0.0,0.0,0.0,0.0,0.0,0.0,0.0,0.0,0.0,0.0,0.0,0.0,0.0,0.0,0.0,0.0,0.0,0.0,0.0,0.0,0.0,0.0,0.0,0.0,0.0,0.0,0.0,0.0,0.0,0.0,0.0,1.4307,1.4631,1.4179,1.3008,1.257,1.1563,0.0,0.0,0.0,0.0,0.0,0.0,0.0,0.0,0.0,0.0,0.0,0.0,0.0,0.0,0.0,0.0,0.0,0.0,0.0,0.0,0.0,0.0,0.0,0.0,0.0,0.0,0.0,0.0,0.0,0.0,0.0,0.0,0.0,0.0,0.0,0.0,0.0,0.0,0.0,0.0,0.0,0.0,0.0,0.0,0.0,0.0,0.0,0.0,0.0,0.0,0.0,0.0,0.0,0.0,0.0,0.0,0.0,0.0,0.0,0.0,0.0,0.0,0.0,0.0,0.0,0.0,0.0,0.0,0.0,0.0,0.0,0.0,0.0,0.0,0.0,0.0,0.0,0.0,0.0,0.0,0.0,0.0,0.0,0.0,0.0,0.0,0.0,0.0,0.0,0.0,0.0,0.0,0.0,0.0,0.0,0.0,0.0,0.0,0.0,0.0,0.0,0.0,0.0,0.0,0.0,0.0,0.0,0.0,0.0,1.5329,1.6266,1.6286,1.5404,1.4419,1.3571,0.0,0.0,0.0,0.0,0.0,0.0,0.0,0.0,0.0,0.0,0.0,0.0,0.0,0.0,0.0,0.0,0.0,0.0,0.0,0.0,0.0,0.0,0.0,0.0,0.0,0.0,0.0,0.0,0.0,0.0,0.0,0.0,0.0,0.0,0.0,0.0,0.0,0.0,0.0,0.0,0.0,0.0,0.0,0.0,0.0,0.0,0.0,0.0,0.0,0.0,0.0,0.0,0.0,0.0,0.0,0.0,0.0,0.0,0.0,0.0,0.0,0.0,0.0,0.0,0.0,0.0,0.0,0.0,0.0,0.0,0.0,0.0,0.0,0.0,0.0,0.0,0.0,0.0,0.0,0.0,0.0,0.0,0.0,0.0,0.0,0.0,0.0,0.0,0.0,0.0,0.0,0.0,0.0,0.0,0.0,0.0,0.0,0.0,0.0,0.0,0.0,0.0,0.0,0.0,0.0,0.0,0.0,0.0,1.4958,1.6781,1.7965,1.8238,1.7427,1.6244,1.5187,0.0,0.0,0.0,0.0,0.0,0.0,0.0,0.0,0.0,0.0,0.0,0.0,0.0,0.0,0.0,0.0,0.0,0.0,0.0,0.0,0.0,0.0,0.0,0.0,0.0,0.0,0.0,0.0,0.0,0.0,0.0,0.0,0.0,0.0,0.0,0.0,0.0,0.0,0.0,0.0,0.0,0.0,0.0,0.0,0.0,0.0,0.0,0.0,0.0,0.0,0.0,0.0,0.0,0.0,0.0,0.0,0.0,0.0,0.0,0.0,0.0,0.0,0.0,0.0,0.0,0.0,0.0,0.0,0.0,0.0,0.0,0.0,0.0,0.0,0.0,0.0,0.0,0.0,0.0,0.0,0.0,0.0,0.0,0.0,0.0,0.0,0.0,0.0,0.0,0.0,0.0,0.0,0.0,0.0,0.0,0.0,0.0,0.0,0.0,0.0,0.0,0.0,0.0,0.0,0.0,0.0,0.0,0.0,1.6403,1.8393,1.9576,1.9946,1.9306,1.8152,1.6594,0.0,0.0,0.0,0.0,0.0,0.0,0.0,0.0,0.0,0.0,0.0,0.0,0.0,0.0,0.0,0.0,0.0,0.0,0.0,0.0,0.0,0.0,0.0,0.0,0.0,0.0,0.0,0.0,0.0,0.0,0.0,0.0,0.0,0.0,0.0,0.0,0.0,0.0,0.0,0.0,0.0,0.0,0.0,0.0,0.0,0.0,0.0,0.0,0.0,0.0,0.0,0.0,0.0,0.0,0.0,0.0,0.0,0.0,0.0,0.0,0.0,0.0,0.0,0.0,0.0,0.0,0.0,0.0,0.0,0.0,0.0,0.0,0.0,0.0,0.0,0.0,0.0,0.0,0.0,0.0,0.0,0.0,0.0,0.0,0.0,0.0,0.0,0.0,0.0,0.0,0.0,0.0,0.0,0.0,0.0,0.0,0.0,0.0,0.0,0.0,0.0,0.0,0.0,0.0,0.0,0.0,0.0,0.0,1.7595,2.0246,2.0559,2.0822,2.1097,1.9445,1.8137,0.0,0.0,0.0,0.0,0.0,0.0,0.0,0.0,0.0,0.0,0.0,0.0,0.0,0.0,0.0,0.0,0.0,0.0,0.0,0.0,0.0,0.0,0.0,0.0,0.0,0.0,0.0,0.0,0.0,0.0,0.0,0.0,0.0,0.0,0.0,0.0,0.0,0.0,0.0,0.0,0.0,0.0,0.0,0.0,0.0,0.0,0.0,0.0,2.458,0.0,0.0,0.0,0.0,0.0,0.0,0.0,0.0,0.0,0.0,0.0,0.0,0.0,0.0,0.0,0.0,0.0,0.0,0.0,0.0,0.0,0.0,0.0,0.0,0.0,0.0,0.0,0.0,0.0,0.0,0.0,0.0,0.0,0.0,0.0,0.0,0.0,0.0,0.0,0.0,0.0,0.0,0.0,0.0,0.0,0.0,0.0,0.0,0.0,0.0,0.0,0.0,0.0,0.0,0.0,0.0,0.0,0.0,0.0,1.8996,2.1686,2.1846,2.195,2.2168,2.1325,2.0369,0.0,0.0,0.0,0.0,0.0,0.0,0.0,0.0,0.0,0.0,0.0,0.0,0.0,0.0,0.0,0.0,0.0,0.0,0.0,0.0,0.0,0.0,0.0,0.0,0.0,0.0,0.0,0.0,0.0,0.0,0.0,0.0,0.0,0.0,0.0,0.0,0.0,0.0,0.0,0.0,0.0,0.0,0.0,0.0,0.0,0.0,0.0,0.0,0.0,0.0,0.0,0.0,0.0,0.0,0.0,0.0,0.0,0.0,0.0,0.0,0.0,0.0,0.0,0.0,0.0,0.0,0.0,0.0,0.0,0.0,0.0,0.0,0.0,0.0,0.0,0.0,0.0,0.0,0.0,0.0,0.0,0.0,0.0,0.0,0.0,0.0,0.0,0.0,0.0,0.0,0.0,0.0,0.0,0.0,0.0,0.0,0.0,0.0,0.0,0.0,0.0,0.0,0.0,0.0,0.0,0.0,0.0,1.8052,2.0323,2.2765,2.3093,2.3123,2.3006,2.3186,2.263,2.1351,0.0,0.0,0.0,0.0,0.0,0.0,0.0,0.0,0.0,0.0,0.0,0.0,0.0,0.0,0.0,0.0,0.0,0.0,0.0,0.0,0.0,0.0,0.0,0.0,0.0,0.0,0.0,0.0,0.0,0.0,0.0,0.0,0.0,0.0,0.0,0.0,0.0,0.0,2.4202,2.5406,0.0,0.0,0.0,0.0,0.0,0.0,0.0,0.0,2.5555,0.0,0.0,0.0,0.0,0.0,0.0,0.0,0.0,0.0,0.0,0.0,0.0,0.0,0.0,0.0,0.0,0.0,0.0,0.0,0.0,0.0,0.0,0.0,0.0,0.0,0.0,0.0,0.0,0.0,0.0,0.0,0.0,0.0,0.0,0.0,0.0,0.0,0.0,0.0,0.0,0.0,0.0,0.0,0.0,0.0,0.0,0.0,0.0,0.0,0.0,0.0,0.0,0.0,0.0,0.0,0.0,1.7796,1.8743,2.0603,2.3371,2.3685,2.3821,2.3664,2.3652,2.3824,2.4052,0.0,0.0,0.0,0.0,0.0,0.0,0.0,0.0,0.0,0.0,0.0,0.0,0.0,0.0,0.0,0.0,0.0,0.0,0.0,0.0,0.0,0.0,0.0,0.0,0.0,0.0,0.0,0.0,0.0,0.0,0.0,0.0,0.0,0.0,0.0,0.0,0.0,0.0,0.0,2.5581,2.5834,0.0,0.0,0.0,0.0,0.0,0.0,0.0,0.0,2.5542,0.0,0.0,0.0,0.0,0.0,0.0,0.0,0.0,0.0,0.0,0.0,0.0,0.0,0.0,0.0,0.0,0.0,0.0,0.0,0.0,0.0,0.0,0.0,0.0,0.0,0.0,0.0,0.0,0.0,0.0,0.0,0.0,0.0,0.0,0.0,0.0,0.0,0.0,0.0,0.0,0.0,0.0,0.0,0.0,0.0,0.0,0.0,0.0,0.0,0.0,0.0,0.0,0.0,0.0,0.0,1.8087,1.9657,2.1634,2.3959,2.4214,2.4252,2.4158,2.3909,2.4004,0.0,0.0,0.0,0.0,0.0,0.0,0.0,0.0,0.0,0.0,0.0,0.0,0.0,0.0,0.0,0.0,0.0,0.0,0.0,0.0,0.0,0.0,0.0,0.0,0.0,0.0,0.0,0.0,0.0,0.0,0.0,0.0,0.0,0.0,0.0,0.0,0.0,0.0,0.0,0.0,2.6312,2.6505,2.5588,0.0,0.0,0.0,0.0,0.0,0.0,2.5721,2.5282,0.0,0.0,0.0,0.0,0.0,0.0,0.0,0.0,0.0,0.0,0.0,0.0,0.0,0.0,0.0,0.0,0.0,0.0,0.0,0.0,0.0,0.0,0.0,0.0,0.0,0.0,0.0,0.0,0.0,0.0,0.0,0.0,0.0,0.0,0.0,0.0,0.0,0.0,0.0,0.0,0.0,0.0,0.0,0.0,0.0,0.0,0.0,0.0,0.0,0.0,0.0,0.0,0.0,0.0,0.0,1.8197,2.04,2.2466,2.4331,2.4417,2.4485,2.4538,2.391,2.3847,0.0,0.0,0.0,0.0,0.0,0.0,0.0,0.0,0.0,0.0,0.0,0.0,0.0,0.0,0.0,0.0,0.0,0.0,0.0,0.0,0.0,0.0,0.0,0.0,0.0,0.0,0.0,0.0,0.0,0.0,0.0,0.0,0.0,0.0,0.0,0.0,0.0,0.0,0.0,0.0,0.0,2.6951,2.6394,2.6608,0.0,0.0,0.0,0.0,2.6284,2.5602,0.0,0.0,0.0,0.0,0.0,0.0,0.0,0.0,0.0,0.0,0.0,0.0,0.0,0.0,0.0,0.0,0.0,0.0,0.0,0.0,0.0,0.0,0.0,0.0,0.0,0.0,0.0,0.0,0.0,0.0,0.0,0.0,0.0,0.0,0.0,0.0,0.0,0.0,0.0,0.0,0.0,0.0,0.0,0.0,0.0,0.0,0.0,0.0,0.0,0.0,0.0,0.0,0.0,0.0,0.0,0.0,1.8251,2.033,2.2306,2.3942,2.4298,2.4344,2.423,2.352,2.3299,0.0,0.0,0.0,0.0,0.0,0.0,0.0,0.0,0.0,0.0,0.0,0.0,0.0,0.0,0.0,0.0,0.0,0.0,0.0,0.0,0.0,0.0,0.0,0.0,0.0,0.0,0.0,0.0,0.0,0.0,0.0,0.0,0.0,0.0,0.0,0.0,0.0,0.0,0.0,0.0,0.0,2.6444,2.7388,2.6944,2.6777,0.0,0.0,2.6685,2.623,2.573,0.0,0.0,0.0,0.0,0.0,0.0,0.0,0.0,0.0,0.0,0.0,0.0,0.0,0.0,0.0,0.0,0.0,0.0,0.0,0.0,0.0,0.0,0.0,0.0,0.0,0.0,0.0,0.0,0.0,0.0,0.0,0.0,0.0,0.0,0.0,0.0,0.0,0.0,0.0,0.0,0.0,0.0,0.0,0.0,0.0,0.0,0.0,0.0,0.0,0.0,0.0,0.0,0.0,0.0,0.0,1.6612,1.9121,2.1246,2.283,2.4028,2.4132,2.3985,2.3722,2.2778,2.2546,0.0,0.0,0.0,0.0,0.0,0.0,0.0,0.0,0.0,0.0,0.0,0.0,0.0,0.0,0.0,0.0,0.0,0.0,0.0,0.0,0.0,0.0,0.0,0.0,0.0,0.0,0.0,0.0,0.0,0.0,0.0,0.0,0.0,0.0,0.0,0.0,0.0,0.0,0.0,0.0,0.0,0.0,2.7841,2.7489,0.0,0.0,0.0,2.6472,2.5815,0.0,0.0,0.0,0.0,0.0,0.0,0.0,0.0,0.0,0.0,0.0,0.0,0.0,0.0,0.0,0.0,0.0,0.0,0.0,0.0,0.0,0.0,0.0,0.0,0.0,0.0,0.0,0.0,0.0,0.0,0.0,0.0,0.0,0.0,0.0,0.0,0.0,0.0,0.0,0.0,0.0,0.0,0.0,0.0,0.0,0.0,0.0,0.0,0.0,0.0,0.0,0.0,0.0,0.0,0.0,0.0,0.0,2.0286,2.2178,2.3561,2.4321,2.3849,2.3357,2.3114,2.2007,0.0,0.0,0.0,0.0,0.0,0.0,0.0,0.0,0.0,0.0,0.0,0.0,0.0,0.0,0.0,0.0,0.0,0.0,0.0,0.0,0.0,0.0,0.0,0.0,0.0,0.0,0.0,2.4945,0.0,0.0,0.0,0.0,0.0,0.0,0.0,0.0,0.0,0.0,0.0,0.0,0.0,0.0,2.9013,2.8786,2.8509,2.8138,0.0,0.0,2.6417,2.5739,2.5345,2.4833,0.0,0.0,0.0,0.0,0.0,0.0,0.0,0.0,0.0,0.0,0.0,0.0,0.0,0.0,0.0,0.0,0.0,0.0,0.0,0.0,0.0,0.0,0.0,0.0,0.0,0.0,0.0,0.0,0.0,0.0,0.0,0.0,0.0,0.0,0.0,0.0,0.0,0.0,0.0,0.0,0.0,0.0,0.0,0.0,0.0,0.0,0.0,0.0,0.0,0.0,0.0,0.0,0.0,0.0,0.0,2.1713,2.3049,2.4105,2.4933,2.3393,2.2633,2.2673,2.1268,2.0289,0.0,0.0,0.0,0.0,0.0,0.0,0.0,0.0,0.0,0.0,0.0,0.0,0.0,0.0,0.0,0.0,0.0,0.0,0.0,0.0,0.0,0.0,0.0,0.0,0.0,0.0,0.0,0.0,0.0,0.0,0.0,0.0,0.0,0.0,0.0,0.0,0.0,0.0,0.0,0.0,0.0,2.9605,3.0977,3.0066,2.9295,0.0,0.0,2.6812,2.6388,2.5602,2.4684,2.3715,0.0,0.0,0.0,0.0,0.0,0.0,0.0,0.0,0.0,0.0,0.0,0.0,0.0,0.0,0.0,0.0,0.0,0.0,0.0,0.0,0.0,0.0,0.0,0.0,0.0,0.0,0.0,0.0,0.0,0.0,0.0,0.0,0.0,0.0,0.0,0.0,0.0,0.0,0.0,0.0,0.0,0.0,0.0,0.0,0.0,0.0,0.0,0.0,0.0,0.0,0.0,0.0,0.0,2.026,2.3047,2.4176,2.5165,2.5964,2.4509,2.3372,2.2868,2.1588,2.0534,0.0,0.0,0.0,0.0,0.0,0.0,0.0,0.0,0.0,0.0,0.0,0.0,0.0,0.0,0.0,0.0,0.0,0.0,0.0,0.0,0.0,0.0,0.0,0.0,0.0,0.0,0.0,0.0,2.8081,2.855,2.8478,0.0,0.0,0.0,0.0,0.0,0.0,0.0,0.0,0.0,0.0,3.1757,3.2117,3.1424,0.0,0.0,2.8924,2.7994,2.678,2.6207,2.5409,2.3765,2.3186,0.0,0.0,0.0,0.0,0.0,0.0,0.0,0.0,0.0,0.0,0.0,0.0,0.0,0.0,0.0,0.0,0.0,0.0,0.0,0.0,0.0,0.0,0.0,0.0,0.0,0.0,0.0,0.0,0.0,0.0,0.0,0.0,0.0,0.0,0.0,0.0,0.0,0.0,0.0,0.0,0.0,0.0,0.0,0.0,0.0,0.0,0.0,0.0,0.0,0.0,0.0,0.0,2.194,2.4615,2.5724,2.6494,2.6918,2.5508,2.4175,2.2992,2.1961,2.0839,0.0,0.0,0.0,0.0,0.0,0.0,0.0,0.0,0.0,0.0,0.0,0.0,0.0,0.0,0.0,0.0,0.0,0.0,0.0,0.0,0.0,0.0,0.0,0.0,0.0,0.0,0.0,0.0,2.8774,2.9014,2.8436,0.0,0.0,0.0,0.0,0.0,0.0,0.0,0.0,0.0,0.0,3.3696,3.3553,3.2573,3.1569,3.0712,2.9652,2.856,2.7232,2.6791,2.5781,2.3494,0.0,0.0,0.0,0.0,0.0,0.0,0.0,0.0,0.0,0.0,0.0,0.0,0.0,0.0,0.0,0.0,0.0,0.0,0.0,0.0,0.0,0.0,0.0,0.0,0.0,0.0,0.0,0.0,0.0,0.0,1.8443,0.0,0.0,0.0,0.0,0.0,0.0,0.0,0.0,0.0,0.0,0.0,0.0,0.0,0.0,0.0,0.0,0.0,0.0,0.0,0.0,0.0,0.0,2.4513,2.6517,2.7702,2.8208,2.7827,2.6279,2.4743,2.3144,2.2228,2.1055,1.9585,0.0,0.0,0.0,0.0,0.0,0.0,0.0,0.0,0.0,0.0,0.0,0.0,0.0,0.0,0.0,0.0,0.0,0.0,0.0,0.0,0.0,0.0,0.0,0.0,0.0,0.0,2.7973,2.8359,2.8479,0.0,0.0,0.0,0.0,0.0,0.0,0.0,0.0,0.0,0.0,3.4882,3.5241,3.5305,3.367,3.2558,3.2777,3.0388,2.83,2.7927,2.7219,2.573,0.0,0.0,0.0,0.0,0.0,0.0,0.0,0.0,0.0,0.0,0.0,0.0,0.0,0.0,0.0,0.0,0.0,0.0,0.0,0.0,0.0,0.0,0.0,0.0,0.0,0.0,0.0,2.0711,2.0455,0.0,0.0,0.0,0.0,0.0,0.0,0.0,0.0,0.0,0.0,0.0,2.2359,2.3931,0.0,0.0,0.0,0.0,0.0,0.0,0.0,0.0,0.0,0.0,0.0,0.0,2.5659,2.7753,2.9278,2.9998,3.0075,2.8098,2.6329,2.4837,2.3258,2.1565,1.9757,0.0,0.0,0.0,0.0,0.0,0.0,0.0,0.0,0.0,0.0,0.0,0.0,0.0,0.0,0.0,0.0,0.0,0.0,0.0,0.0,0.0,0.0,0.0,0.0,0.0,2.8982,0.0,0.0,0.0,0.0,0.0,0.0,0.0,0.0,0.0,0.0,0.0,3.4501,3.6,3.6424,3.6603,3.6633,3.5385,3.4046,0.0,0.0,0.0,0.0,0.0,0.0,0.0,0.0,0.0,0.0,0.0,0.0,0.0,0.0,2.3437,2.3148,2.2855,2.2546,2.2085,0.0,0.0,0.0,0.0,0.0,0.0,0.0,0.0,0.0,0.0,0.0,0.0,0.0,0.0,2.2075,0.0,2.0767,0.0,0.0,0.0,0.0,0.0,0.0,0.0,0.0,2.0385,2.1902,2.357,2.5104,2.5634,0.0,2.4786,2.3356,0.0,0.0,0.0,0.0,0.0,0.0,0.0,0.0,2.7458,2.9625,3.1411,3.2202,3.1856,3.0138,2.8231,2.6249,2.3855,2.1877,2.0378,2.0346,1.9992,0.0,0.0,0.0,0.0,0.0,0.0,0.0,0.0,0.0,0.0,0.0,0.0,0.0,0.0,0.0,0.0,0.0,0.0,0.0,0.0,0.0,0.0,0.0,2.9565,0.0,0.0,0.0,0.0,0.0,0.0,0.0,0.0,0.0,3.2461,3.4445,3.6365,3.7774,3.7709,3.751,3.7456,0.0,0.0,0.0,0.0,0.0,0.0,0.0,2.7314,2.504,2.4019,2.3125,2.2215,2.2769,2.3196,2.2658,0.0,0.0,2.2895,2.2771,2.254,2.2055,2.2054,2.2211,2.2488,2.2274,2.21,0.0,0.0,0.0,0.0,0.0,0.0,0.0,0.0,2.4536,2.2908,0.0,2.0473,0.0,0.0,0.0,0.0,0.0,2.0285,0.0,0.0,2.3154,2.4294,2.4735,2.6138,2.6531,2.5993,2.6527,2.5752,2.3814,2.1151,0.0,0.0,0.0,0.0,0.0,0.0,2.9857,3.1896,3.427,3.4799,3.3211,3.235,3.0348,2.7122,2.3989,2.2049,2.1385,2.1547,2.1374,2.0661,2.0204,0.0,0.0,0.0,0.0,0.0,0.0,0.0,0.0,0.0,0.0,0.0,0.0,0.0,0.0,0.0,0.0,0.0,0.0,0.0,0.0,2.9022,0.0,0.0,0.0,0.0,0.0,0.0,0.0,0.0,0.0,0.0,3.4334,3.6276,3.8148,3.9463,0.0,0.0,0.0,0.0,3.4222,3.4873,3.2998,3.1552,3.1265,3.0028,2.8352,2.5884,0.0,0.0,2.366,2.4103,2.4273,2.2854,2.3115,2.3282,2.2814,2.2796,2.267,2.206,2.2098,2.2272,2.247,2.2628,2.2731,3.6946,0.0,0.0,0.0,0.0,3.2817,3.2523,3.3283,2.9348,2.7099,2.6044,2.4597,0.0,0.0,0.0,0.0,0.0,0.0,2.2083,2.2597,2.3517,2.443,2.5355,2.6578,2.6815,2.6257,2.5935,2.5513,2.4919,2.355,2.2236,2.1243,0.0,0.0,0.0,0.0,3.2515,3.3958,3.5993,3.6489,3.5249,3.3736,3.0917,2.6634,2.3767,2.2201,2.2147,2.2064,2.1771,2.1274,2.1168,0.0,0.0,0.0,0.0,0.0,0.0,0.0,0.0,0.0,0.0,0.0,0.0,0.0,0.0,0.0,0.0,0.0,0.0,0.0,2.8628,2.9198,2.977,0.0,0.0,0.0,0.0,0.0,0.0,0.0,0.0,0.0,3.695,3.819,3.9275,0.0,0.0,3.867,3.8088,3.6814,3.5864,3.5574,0.0,0.0,0.0,3.0341,2.8642,2.7672,2.6696,2.5728,2.4872,2.5039,2.5039,2.4177,2.4202,2.4137,2.3399,2.2778,2.2369,2.2107,2.2372,2.2751,2.2917,2.3236,2.3519,4.2488,3.934,3.846,3.8498,3.8809,3.6131,3.5316,3.5685,3.198,2.9678,2.8343,2.6967,2.5675,2.4582,2.4266,0.0,0.0,0.0,2.3773,2.4137,2.4364,2.4673,2.5167,2.6283,2.6627,2.6094,2.5942,2.6116,2.6602,2.5923,2.5489,2.5296,0.0,0.0,2.9287,3.2389,3.4851,3.6392,3.7952,3.8225,3.7133,3.4356,3.0983,2.7346,2.4745,2.3399,2.3384,2.3155,2.2915,2.2887,2.2505,2.1795,0.0,0.0,0.0,0.0,0.0,0.0,0.0,0.0,0.0,0.0,0.0,2.5226,0.0,0.0,0.0,0.0,2.7081,2.8795,2.9637,3.0073,0.0,0.0,0.0,0.0,0.0,0.0,0.0,3.4253,3.6394,3.802,3.8649,3.9424,4.0006,3.9978,3.9535,3.8878,3.8218,0.0,3.6814,3.6108,3.495,3.3938,3.2954,3.1044,2.9403,2.8697,2.795,2.7209,2.6618,2.6636,2.6432,2.5623,2.529,2.4982,2.4111,2.3511,2.2861,2.2396,2.2621,2.2935,2.3237,2.3785,2.4139,4.7301,4.6743,4.3907,4.2589,4.2146,3.9564,3.7406,3.5523,3.3238,3.1177,2.9368,2.8111,2.7199,2.6543,2.6273,0.0,2.7167,2.6181,2.5769,2.5847,2.5586,2.511,2.4536,2.5714,2.6074,2.5676,2.6306,2.731,2.8475,2.815,2.8848,3.0471,2.9001,2.9729,3.2765,3.5011,3.7069,3.9121,4.0049,3.9944,3.8661,3.4343,3.0991,2.8784,2.6499,2.5163,2.485,2.4515,2.453,2.497,2.3917,2.3054,2.247,0.0,0.0,0.0,0.0,0.0,0.0,0.0,0.0,0.0,0.0,0.0,0.0,0.0,0.0,0.0,2.7912,0.0,3.1033,3.1373,0.0,0.0,0.0,3.2899,3.4194,3.5868,3.7002,3.7204,0.0,0.0,3.9562,0.0,4.034,4.0142,3.9618,3.9013,3.8155,3.7661,3.7153,3.6431,3.5391,3.4408,3.3639,3.206,3.0539,2.9428,2.9424,2.9217,2.8519,2.8445,2.805,2.6578,2.6287,2.5898,2.494,2.4655,2.414,2.3179,2.2891,2.3028,2.3631,2.4168,2.4532,4.9684,5.0402,4.7999,4.6135,4.4643,4.2571,4.0607,3.877,3.6574,3.422,3.1968,3.126,3.0164,2.881,2.924,2.9212,2.8812,2.844,2.8217,2.8076,2.731,2.6769,2.6399,2.6498,2.6561,2.6465,2.6678,2.7589,2.8995,2.9293,3.0937,3.3614,3.4012,3.4606,3.5512,3.8688,4.0741,4.1423,4.211,4.0843,3.767,3.474,3.2174,2.9933,2.746,2.591,2.552,2.4844,2.4733,2.5129,2.4536,2.4209,2.4169,2.1633,0.0,0.0,0.0,0.0,0.0,0.0,0.0,0.0,0.0,2.6398,2.3497,0.0,2.7248,0.0,2.9312,3.0574,3.0433,3.1102,0.0,0.0,3.3566,3.4208,3.6672,3.7033,3.7391,3.7963,3.9606,4.0273,3.92,4.009,4.0343,3.9195,3.9024,3.8693,3.7891,3.7558,3.739,3.6893,3.5955,3.5035,3.4376,3.3028,3.1587,3.0692,3.0692,3.0282,2.9184,2.9199,2.8743,2.7028,2.6852,2.6712,2.5945,2.5587,2.5318,2.4891,2.4293,2.4015,2.4486,2.4573,2.4659,5.1041,5.1565,4.9965,4.848,4.7145,4.4516,4.2198,4.0227,3.8285,3.5957,3.355,3.2651,3.1666,3.0829,3.1205,3.1089,3.0742,3.0573,3.0139,2.9429,2.8875,2.8222,2.7455,2.7895,2.804,2.7971,2.8612,2.9673,3.098,3.1666,3.3438,3.6184,3.7472,3.8687,3.9653,4.1483,4.274,4.3319,4.285,4.0914,3.7399,3.5363,3.3135,3.0703,2.8775,2.7329,2.6439,2.5983,2.5756,2.5842,2.5334,2.4976,2.4726,2.2639,2.1569,0.0,0.0,0.0,0.0,0.0,0.0,0.0,0.0,0.0,0.0,0.0,2.9143,3.0914,3.1059,3.1114,3.1415,3.2507,3.3881,3.5408,3.5582,3.6442,3.8539,3.8871,3.9103,3.953,4.056,4.094,4.0134,4.022,4.0078,3.9184,3.8735,3.8262,3.7844,3.7874,3.779,3.7201,3.6365,3.5405,3.4502,3.3477,3.2584,3.2079,3.2129,3.1921,3.0792,3.0704,3.0188,2.8385,2.8164,2.8022,2.7103,2.6662,2.6381,2.5958,2.5549,2.5161,2.5083,2.5413,2.5653,5.223,5.1778,5.0795,5.0211,4.9524,4.6096,4.3407,4.1155,3.9401,3.7231,3.4754,3.3375,3.2685,3.2585,3.2691,3.2646,3.2564,3.2484,3.1836,3.0727,3.0726,2.9973,2.8847,2.9977,3.0419,3.0284,3.15,3.2622,3.3718,3.4567,3.6043,3.8332,3.9888,4.1693,4.3701,4.3588,4.3868,4.4691,4.306,4.0648,3.7699,3.6113,3.3968,3.1299,3.0043,2.8876,2.7558,2.7286,2.7132,2.6868,2.6317,2.5754,2.5123,2.3746,2.3183,0.0,2.3029,0.0,0.0,0.0,0.0,0.0,0.0,0.0,0.0,2.8886,3.0788,3.4682,3.3036,3.2175,3.3089,3.4667,3.5984,3.6971,3.7923,3.8872,3.9907,4.0713,4.1179,4.1398,4.1686,4.1718,4.1169,4.0475,3.993,3.957,3.8777,3.8122,3.7965,3.8121,3.8065,3.7253,3.6621,3.5724,3.4494,3.3896,3.3505,3.3264,3.3367,3.3436,3.2432,3.2349,3.1772,3.0074,2.9439,2.9066,2.8103,2.7607,2.7238,2.6832,2.6584,2.6298,2.5868,2.6238,2.6784,5.411,5.3427,5.2153,5.1482,5.1185,4.9085,4.6512,4.3718,4.1256,3.8866,3.6629,3.5516,3.4604,3.3807,3.4259,3.4179,3.362,3.3914,3.4018,3.3907,3.3805,3.3496,3.3127,3.3705,3.3905,3.3864,3.4475,3.5409,3.6493,3.6965,3.8364,4.0685,4.1095,4.2378,4.4449,0.0,0.0,0.0,4.3591,4.1365,3.8269,3.6872,3.4882,3.2285,3.074,0.0,2.8425,2.7759,2.759,2.7844,2.7782,0.0,0.0,0.0,0.0,0.0,0.0,0.0,0.0,0.0,0.0,0.0,2.9215,2.9013,2.895,3.1797,3.4121,3.5275,3.5529,3.5362,3.479,3.598,3.7143,3.7785,3.8667,3.9679,4.0812,4.1198,4.1737,4.2547,4.2592,4.1983,4.0626,4.0599,4.0291,3.9184,3.8746,3.8459,3.7939,3.7675,3.733,3.7083,3.6647,3.6097,3.5502,3.4986,3.4616,3.4495,3.4159,3.374,3.3027,3.2895,3.2172,3.0147,2.9808,2.9579,2.85,2.7962,2.7766,2.7757,2.7809,2.7672,2.6783,2.6601,2.6718,5.6466,0.0,5.4455,5.3473,0.0,5.0865,4.9039,4.7014,4.3856,4.1035,3.8487,3.7446,3.6626,3.5911,3.6329,3.6306,3.6062,3.6495,3.6536,3.6312,3.6231,3.6171,3.5996,3.6271,3.6603,3.7149,3.756,3.8122,3.8901,3.9588,4.0627,4.215,4.2602,4.3629,4.5175,4.591,4.5863,4.4973,4.3727,4.1637,3.8766,3.7278,3.5178,3.2361,0.0,0.0,0.0,0.0,0.0,0.0,0.0,0.0,0.0,0.0,0.0,2.7849,2.7518,2.7892,2.9233,2.9617,3.0435,3.1983,3.2748,3.2437,3.0834,3.2885,3.5027,3.693,3.682,3.635,3.6064,3.7241,3.8172,3.8392,3.9654,4.0733,4.1208,4.191,4.2435,4.295,4.3017,4.2697,4.1895,4.1152,4.0707,4.0086,3.9104,3.8575,3.8368,3.7848,3.7479,3.7294,3.7088,3.6858,3.6582,3.6093,3.5817,3.5843,3.5555,3.4966,3.4224,3.4041,3.3335,3.1348,3.0834,3.0438,2.9334,2.8744,2.8451,2.8358,2.8284,2.8103,2.7744,2.7717,2.7683,5.8969,5.772,5.6912,5.5575,5.3936,5.2543,5.1276,5.0096,0.0,0.0,0.0,3.9687,3.9027,3.8627,3.8721,3.8783,3.8865,3.9272,3.9233,3.876,3.8839,3.8805,3.872,3.8995,3.9495,4.0322,4.082,4.1184,4.1442,4.2459,4.3132,4.3664,4.4451,4.5297,4.6157,4.6556,4.6271,4.5326,4.3848,4.1885,3.9314,3.7769,3.5513,3.2587,3.2073,3.1091,2.9316,2.9676,2.9517,2.8717,2.8754,2.8435,2.7667,2.8335,2.943,3.072,3.1356,3.2406,3.4058,3.3931,3.4014,3.4663,3.5957,3.5649,3.3048,3.3808,3.5567,3.8326,3.7546,3.7057,3.721,3.8341,3.9106,3.8998,4.0538,4.148,4.1568,4.243,4.3101,4.3204,4.3338,4.3396,4.3243,4.2125,4.1044,4.105,3.9779,3.8565,3.8666,3.8304,3.7965,3.769,3.7742,3.7848,3.7637,3.7348,3.7048,3.7209,3.6804,3.6313,3.5719,3.5338,3.4332,3.26,3.2007,3.1216,3.008,2.9532,2.919,2.8817,2.8553,2.8359,2.8515,2.8817,2.8799,6.1203,5.9567,5.8673,5.7478,5.623,5.5263,5.3666,5.1535,4.7518,4.5328,4.4489,4.3074,4.2119,4.1708,4.1967,4.1791,4.1299,4.1695,4.1966,0.0,4.2272,4.2474,4.2598,4.3483,4.3751,4.3644,4.4632,4.5143,4.5196,4.5977,4.6439,4.6411,4.7141,4.7717,4.7963,4.7576,4.7091,4.6493,4.4315,4.2211,4.0236,3.862,3.6841,3.4836,3.3935,3.3096,3.2088,3.1197,3.072,3.0693,3.0782,3.0412,2.9456,3.083,3.1851,3.2384,3.319,3.4426,3.6055,3.6483,3.6998,3.7698,3.834,3.7467,3.4914,3.6721,3.7982,3.789,3.8399,3.8946,3.8812,3.947,3.9952,4.0182,4.0879,4.1511,4.2032,4.2719,4.3231,4.3488,4.3531,4.3421,4.3128,4.2637,4.1928,4.0987,4.0214,3.95,3.8591,3.8395,3.8304,3.8109,3.8662,3.9084,3.8727,3.8554,3.8299,3.8336,3.7624,3.7004,3.6844,3.6102,3.5011,3.3725,3.2802,3.1761,3.047,3.001,2.969,2.912,2.9217,2.9306,2.8655,2.899,2.9106,6.375,6.2181,6.1154,5.9841,5.8278,5.649,5.5025,5.3724,5.0682,4.8703,4.7476,4.6016,4.5072,4.4705,4.4325,4.4006,4.3855,4.4035,4.3983,4.3853,4.4226,4.4408,4.4458,4.5081,4.5549,4.5891,4.6656,4.7021,4.7113,4.7642,4.8033,4.819,4.8351,4.8722,4.9103,4.7939,4.7417,4.7629,4.5042,4.2947,4.1543,3.9358,3.7427,3.5836,3.4676,3.3632,3.2807,3.2375,3.221,3.221,3.2608,3.2541,3.1883,3.3317,3.4447,3.5057,3.5744,3.695,3.8766,3.9336,3.9628,3.975,4.0209,3.9389,3.6971,3.7728,3.8012,3.7357,3.8173,3.8677,3.8517,3.9316,4.006,4.0547,4.1282,4.2064,4.2754,4.3333,4.3714,4.3965,4.4021,4.3909,4.3752,4.3138,4.262,4.1746,4.095,3.9816,3.8591,3.8782,3.8756,3.8239,3.8542,3.8857,3.9157,3.8943,3.9043,3.9671,3.9346,3.8769,3.8324,3.7658,3.6498,3.4676,3.37,3.276,3.1273,3.0849,3.0435,2.9852,2.9665,2.9537,2.9159,2.8789,2.8368,6.5642,6.4307,6.3119,6.1556,5.9655,5.7451,5.6321,5.5736,5.3732,5.2088,5.0538,4.8636,4.7663,4.7281,4.6596,4.6226,4.6134,4.619,4.5959,4.5587,4.5887,4.6057,4.6126,4.65,4.6971,4.7751,4.832,4.8609,4.8714,4.9078,4.9586,4.9948,4.9631,4.9662,5.0025,4.8699,4.8193,4.8345,4.6056,4.4126,4.2886,4.0197,3.8235,3.7024,3.5722,3.4626,3.3863,3.382,3.382,3.382,3.4229,3.4409,3.4319,3.5547,3.6692,3.7663,3.8212,3.939,4.1246,4.1869,4.1972,4.1752,4.2036,4.1454,3.9734,3.9073,3.8458,3.7896,3.8366,3.8616,3.8473,3.9145,4.004,4.0597,4.163,4.2468,4.3322,4.3845,4.4209,4.4397,4.4397,4.4303,4.4153,4.3631,4.2989,4.2499,4.1131,3.9752,3.8986,3.8979,3.8756,3.8692,3.8565,3.8996,3.9419,3.9761,4.0068,4.1045,4.0983,4.0556,3.9932,3.9419,3.8212,3.6061,3.4992,3.3997,3.2582,3.1906,3.1324,3.0557,3.008,2.9779,2.9379,2.8229,2.7519,6.6341,6.5231,6.3683,6.1879,6.0092,5.8668,5.7852,5.7266,5.5603,5.454,5.3656,5.1193,4.968,4.9494,4.9345,4.8711,4.7733,4.8055,4.807,4.7872,4.791,4.8184,4.8597,4.8889,4.9056,4.9194,5.0082,5.0468,5.024,5.1178,5.191,5.2209,5.1784,5.1188,5.0684,5.0588,4.9969,4.8605,4.7463,4.6009,4.4139,4.1647,3.9856,3.9083,3.8199,3.7306,3.6411,3.567,3.5475,3.5839,3.563,3.5701,3.6162,3.7186,3.8327,3.9519,4.0047,4.1146,4.3074,4.3702,4.3894,4.411,4.3823,4.3438,4.2809,4.2069,4.1073,4.0152,3.992,3.9698,3.9142,3.9585,4.0194,4.0686,4.1674,4.2405,4.311,4.3817,4.449,4.4705,4.4397,4.4049,4.4021,4.3843,4.3405,4.2504,4.111,3.9838,3.9387,3.9039,3.8809,3.9222,3.9815,4.0142,4.0286,4.1204,4.155,4.1744,4.189,4.1744,4.1251,4.0169,3.8595,3.7722,3.6582,3.5237,3.3909,3.3153,3.2471,3.1152,3.0514,2.9964,2.9197,2.791,2.7198,6.6447,6.562,6.4277,6.244,6.0531,5.9364,5.8637,5.7939,5.6102,5.518,5.4786,5.2972,5.1822,5.1121,5.064,5.0046,4.9637,4.9778,4.9605,4.9316,4.9466,4.9686,4.9839,4.9804,4.9985,5.0328,5.1138,5.1444,5.1513,5.2112,5.2581,5.2652,5.226,5.214,5.2412,5.16,5.0861,5.0337,4.8967,4.7679,4.625,4.3613,4.1973,4.1501,4.0272,3.9044,3.8211,3.8022,3.7817,3.7422,3.7888,3.8197,3.8133,3.8989,3.9897,4.0912,4.2211,4.3169,4.3749,4.4736,4.5259,4.5002,4.5087,4.5022,4.4885,4.4098,4.3338,4.271,4.1699,4.059,3.9617,3.9895,4.0479,4.1295,4.2177,4.2857,4.3658,4.4372,4.4862,4.4797,4.4612,4.4303,4.4021,4.3832,4.3271,4.2303,4.1369,4.0935,4.0075,3.9698,3.9699,3.9809,4.046,4.0907,4.0962,4.119,4.2021,4.267,4.2985,4.2831,4.2536,4.1975,4.0804,3.8959,3.778,3.6354,3.4589,3.3925,3.3284,3.1991,3.0901,3.0236,2.957,2.8467,2.7681,6.6355,6.5582,6.4201,6.2466,6.0735,5.9597,5.887,5.8145,5.6304,5.5411,5.5358,5.4144,5.328,5.263,5.167,5.1113,5.0956,5.0812,5.0663,5.0405,5.0375,5.0458,5.068,5.0379,5.0585,5.1193,5.1708,5.2005,5.2114,5.2536,5.285,5.2827,5.2651,5.2897,5.3311,5.2233,5.1709,5.1548,5.0355,4.9454,4.8413,4.6034,4.4254,4.3385,4.1677,4.0306,3.9517,3.9802,3.9715,3.9005,3.9771,4.012,3.9915,4.0275,4.0832,4.171,4.3366,4.4334,4.4157,4.5412,4.5984,4.5696,4.6119,4.6437,4.6297,4.5848,4.545,4.5049,4.3545,4.2023,4.0632,4.0491,4.1056,4.1966,4.2564,4.3136,4.4031,4.4547,4.4657,4.4624,4.4419,4.4344,4.4116,4.3854,4.3353,4.2712,4.2343,4.2043,4.093,4.0641,4.0349,4.0432,4.0974,4.1174,4.1407,4.2032,4.266,4.3376,4.3891,4.3998,4.3666,4.3148,4.2273,4.0067,3.8978,3.765,3.5923,3.4952,3.3712,3.2583,3.1343,3.0242,2.9239,2.8487,2.7562,6.6236,6.5204,6.3264,6.1948,6.0996,5.9446,5.8805,5.8487,5.6123,5.5365,5.5703,5.4274,5.3844,5.4127,5.293,5.1943,5.1326,5.1168,5.1142,5.1199,5.0504,5.0527,5.1201,5.083,5.0892,5.1454,5.1858,5.2209,5.2536,5.2753,5.2937,5.3188,5.3558,5.3423,5.3088,5.3078,5.2723,5.2011,5.1753,5.1298,5.0429,4.8783,4.6576,4.4178,4.2242,4.1172,4.08,4.0597,4.0599,4.1014,4.0754,4.084,4.1171,4.0871,4.1036,4.1808,4.2983,4.3924,4.4659,4.5544,4.6095,4.6335,4.7045,4.7546,4.7099,4.7372,4.7297,4.6819,4.565,4.427,4.2818,4.1875,4.1707,4.2422,4.2624,4.3084,4.3777,4.4008,4.4094,4.4153,4.3979,4.3827,4.4077,4.4003,4.4003,4.3704,4.2901,4.2085,4.1961,4.0892,4.0658,4.1223,4.1384,4.1141,4.1695,4.2608,4.3674,4.4248,4.4619,4.4932,4.4023,4.3172,4.2127,4.1015,3.9747,3.8427,3.7133,3.5635,3.3982,3.2655,3.1296,3.0125,2.9209,2.7821,2.7079,6.5299,6.4371,6.2657,6.1509,6.0916,5.9776,5.9085,5.8571,5.7137,5.6447,5.6267,5.5306,5.4997,5.526,5.4782,5.4131,5.353,5.3309,5.3095,5.2864,5.2738,5.2404,5.1809,5.1581,5.1457,5.1576,5.1808,5.215,5.2578,5.369,5.4217,5.4148,5.4769,5.4867,5.4466,5.4427,5.3936,5.2799,5.2615,5.1944,5.0633,4.9471,4.7841,4.5717,4.3955,4.2617,4.1809,4.2012,4.1977,4.1499,4.1618,4.1724,4.1815,4.2242,4.2348,4.2192,4.3498,4.4428,4.4477,4.5206,4.5828,4.5987,4.6939,4.7391,4.7199,4.7824,4.8306,4.7995,4.7403,4.664,4.5909,4.4028,4.2769,4.3278,4.3694,4.376,4.3812,4.405,4.4235,4.4044,4.3802,4.3805,4.397,4.4004,4.3947,4.4003,4.3515,4.2956,4.2598,4.1852,4.1524,4.1993,4.2349,4.2733,4.3182,4.3527,4.41,4.4681,4.5115,4.4897,4.4256,4.3436,4.2397,4.1223,4.0129,3.8766,3.732,3.5513,3.3977,3.2811,3.1379,3.0178,2.9319,2.8174,2.7517,6.425,6.3404,6.1832,6.0923,6.059,5.9507,5.8882,5.8406,5.7398,5.6974,5.6912,5.6149,5.6013,5.6347,5.6182,5.6093,5.5803,5.5058,5.4405,5.4076,5.3817,5.318,5.2323,5.1824,5.1696,5.1723,5.205,5.2458,5.3062,5.4339,5.4884,5.4663,5.5448,5.5706,5.5505,5.5507,5.4876,5.3903,5.3643,5.2823,5.1252,5.006,4.8766,4.7185,4.5234,4.3734,4.2794,4.3214,4.3067,4.2301,4.2322,4.2292,4.2101,4.2732,4.2952,4.2579,4.3519,4.4165,4.4062,4.4832,4.5363,4.5464,4.6551,4.7253,4.7226,4.8184,4.8859,4.902,4.8675,4.8401,4.7878,4.6033,4.4555,4.4541,4.471,4.4555,4.3899,4.4143,4.4109,4.3657,4.3694,4.3877,4.3949,4.4036,4.4138,4.428,4.3995,4.3547,4.3249,4.2813,4.2637,4.2759,4.3026,4.3497,4.3976,4.4265,4.4442,4.5058,4.5144,4.4926,4.4415,4.3492,4.2538,4.1353,4.0104,3.8966,3.7404,3.5538,3.4106,3.2879,3.16,3.0409,2.9545,2.8764,2.7883,6.3078,6.2728,6.1026,6.0125,5.9827,5.8593,5.8054,5.7993,5.7081,5.7051,5.7426,5.6745,5.6827,5.7214,5.7088,5.7322,5.7565,5.622,5.5198,5.4639,5.346,5.2771,5.2428,5.1657,5.1454,5.1931,5.259,5.3258,5.3964,5.4675,5.5027,5.5109,5.5595,5.5932,5.5918,5.5932,5.5683,5.4981,5.4645,5.3866,5.2494,5.075,4.9307,4.8162,4.592,4.4308,4.3603,4.3944,4.3722,4.3066,4.2729,4.245,4.2205,4.2334,4.242,4.2732,4.2843,4.2999,4.3444,4.432,4.4702,4.4846,4.6211,4.722,4.7564,4.8562,4.9427,4.9792,4.9559,4.9061,4.8693,4.7626,4.655,4.5841,4.5573,4.5102,4.4466,4.4257,4.3903,4.3148,4.3457,4.3741,4.3758,4.3997,4.4352,4.4472,4.4195,4.3878,4.4003,4.3436,4.3277,4.3565,4.3668,4.3835,4.4329,4.4797,4.5075,4.5287,4.5138,4.4982,4.4081,4.3226,4.2398,4.1282,3.9935,3.8683,3.6795,3.5024,3.3544,3.2342,3.1317,3.0517,2.9451,2.8688,2.8003,6.2632,6.2605,6.0606,5.9564,5.922,5.8176,5.7855,5.7968,5.7576,5.749,5.7745,5.7652,5.7589,5.7674,5.8191,5.871,5.888,5.8183,5.7151,5.5693,5.4551,5.3599,5.2707,5.2062,5.1639,5.163,5.275,5.33,5.3667,5.5179,5.601,5.591,5.6466,5.6666,5.63,5.5786,5.531,5.4899,5.3829,5.2944,5.2266,5.0721,4.9258,4.7943,4.6825,4.5549,4.386,4.3464,4.321,4.2956,4.288,4.2691,4.2641,4.2992,4.3054,4.2715,4.3052,4.3112,4.2952,4.3254,4.3603,4.4026,4.5318,4.6103,4.6532,4.8377,4.9581,4.9909,5.0079,5.0096,4.955,4.8692,4.7638,4.6652,4.6372,4.5943,4.5132,4.4484,4.3826,4.3318,4.3273,4.3267,4.3305,4.3638,4.3983,4.4167,4.4066,4.4195,4.4123,4.3854,4.3742,4.4153,4.4079,4.4079,4.4546,4.4912,4.5232,4.5242,4.5035,4.4724,4.3931,4.2991,4.2136,4.0827,3.9575,3.8063,3.6289,3.4718,3.3319,3.2281,3.1523,3.047,2.9385,2.8517,2.7939,6.2493,6.1983,6.045,5.9383,5.8748,5.7942,5.7642,5.7682,5.7611,5.7634,5.7725,5.7905,5.7988,5.8125,5.8549,5.8949,5.922,5.8769,5.7757,5.6559,5.5721,5.4501,5.3168,5.235,5.1949,5.1794,5.2549,5.3014,5.3105,5.4991,5.5883,5.5821,5.6449,5.6747,5.6527,5.597,5.5522,5.4967,5.3845,5.2906,5.2186,5.0785,4.9303,4.8201,4.7247,4.5944,4.4478,4.3453,4.2821,4.2763,4.2768,4.2806,4.284,4.3198,4.3192,4.2785,4.2803,4.2875,4.2564,4.2713,4.2903,4.35,4.4712,4.5676,4.6133,4.8049,4.9055,4.9573,4.9873,5.0086,4.9588,4.8976,4.8098,4.7098,4.6961,4.6568,4.5753,4.4705,4.3981,4.3605,4.3388,4.322,4.3082,4.3214,4.3416,4.3523,4.3741,4.415,4.4024,4.4054,4.4152,4.4303,4.4461,4.4611,4.4818,4.5088,4.5316,4.5066,4.483,4.4398,4.3741,4.2632,4.1732,4.013,3.8735,3.7568,3.5896,3.4742,3.3455,3.2595,3.1638,3.0477,2.9324,2.8408,2.7705,6.2487,6.1197,6.047,5.9381,5.8231,5.7618,5.7482,5.7547,5.7345,5.7377,5.7547,5.7793,5.8073,5.8535,5.8442,5.8689,5.8903,5.8248,5.7606,5.7225,5.6435,5.517,5.3365,5.2323,5.1959,5.2136,5.2088,5.2383,5.2986,5.4181,5.4843,5.4991,5.5525,5.6095,5.6116,5.6295,5.5758,5.5205,5.4311,5.3365,5.2588,5.0854,4.9564,4.8862,4.716,4.5866,4.5128,4.3819,4.2853,4.2476,4.2721,4.2948,4.288,4.2882,4.284,4.2613,4.249,4.2282,4.2257,4.2564,4.2943,4.3164,4.4459,4.567,4.6469,4.7576,4.8604,4.9221,4.9318,4.9148,4.8931,4.8442,4.7933,4.7368,4.7362,4.7001,4.6115,4.5194,4.4729,4.4299,4.3763,4.3318,4.3015,4.307,4.3182,4.3081,4.3313,4.3805,4.3945,4.3981,4.4019,4.4284,4.4506,4.4538,4.4594,4.498,4.5166,4.4947,4.4617,4.4063,4.3284,4.2214,4.0794,3.9267,3.8132,3.6939,3.583,3.4636,3.3633,3.2799,3.1673,3.0429,2.9525,2.8756,2.7939,6.2787,6.1393,6.0511,5.9487,5.8274,5.7318,5.7384,5.8051,5.7813,5.778,5.7992,5.8601,5.8535,5.8336,5.894,5.9252,5.9093,5.8873,5.8362,5.7797,5.7089,5.5015,5.2805,5.1857,5.1542,5.1519,5.15,5.1765,5.2348,5.3197,5.3773,5.41,5.4205,5.4575,5.504,5.4595,5.4656,5.4873,5.3324,5.2579,5.2228,5.0349,4.8866,4.8277,4.7073,4.6028,4.5233,4.4272,4.3253,4.2465,4.3023,4.3188,4.2878,4.2688,4.2566,4.2333,4.2169,4.1917,4.1921,4.2431,4.2818,4.3058,4.4491,4.5914,4.6916,4.8152,4.8862,4.9078,4.9012,4.8803,4.8345,4.768,4.7243,4.7373,4.7432,4.7734,4.7793,4.7329,4.6506,4.5783,4.4922,4.4055,4.3448,4.326,4.3229,4.3037,4.3412,4.3947,4.3858,4.3947,4.4031,4.4115,4.4276,4.436,4.448,4.4901,4.5007,4.4781,4.4361,4.3759,4.2695,4.1492,3.9826,3.8087,3.7892,3.7107,3.5722,3.4425,3.3701,3.3233,3.1979,3.0761,3.0112,2.9436,2.8499,6.3612,6.2105,6.117,6.0159,5.9004,5.8152,5.8051,5.8321,5.8011,5.8079,5.8389,5.8564,5.8727,5.8747,5.9106,5.9302,5.9203,5.8706,5.8241,5.7735,5.6833,5.5006,5.3043,5.2017,5.1439,5.1139,5.1026,5.1137,5.1535,5.2312,5.2795,5.305,5.2995,5.3188,5.3561,5.3203,5.3141,5.3439,5.2402,5.1939,5.18,5.0149,4.8803,4.8017,4.7148,4.6325,4.4698,4.4495,4.3951,4.3109,4.3344,4.3596,4.2871,4.2777,4.2448,4.1945,4.1744,4.1692,4.17,4.2205,4.2671,4.31,4.4481,4.5584,4.6504,4.7785,4.86,4.8659,4.8537,4.8301,4.795,4.6814,4.6273,4.6438,4.6948,4.7572,4.8423,4.785,4.7352,4.6729,4.594,4.4914,4.3862,4.3771,4.3289,4.3,4.3196,4.3487,4.3564,4.3821,4.4003,4.4041,4.4261,4.443,4.4549,4.4836,4.4754,4.4613,4.3644,4.3084,4.2031,4.0669,3.9447,3.8102,3.7763,3.712,3.5949,3.4953,3.4516,3.3688,3.2422,3.1336,3.0644,2.9744,2.8828,6.4463,6.2892,6.2091,6.1051,5.9909,5.9287,5.8908,5.8772,5.8219,5.8288,5.8805,5.8354,5.8875,5.9631,5.9254,5.9115,5.9279,5.8288,5.7638,5.7223,5.6391,5.5046,5.3361,5.233,5.1683,5.1222,5.0802,5.0564,5.0834,5.145,5.179,5.1829,5.1704,5.188,5.2041,5.1988,5.1876,5.1885,5.164,5.1228,5.091,4.985,4.8665,4.7651,4.74,4.6031,4.4614,4.4483,4.4541,4.3023,4.3802,4.3672,4.292,4.3095,4.2388,4.153,4.1426,4.1506,4.1625,4.223,4.2765,4.3349,4.4518,4.5422,4.6259,4.751,4.8232,4.8575,4.7954,4.7665,4.7071,4.5782,4.5302,4.5468,4.5841,4.651,4.7446,4.776,4.7746,4.7683,4.6997,4.616,4.508,4.4308,4.3788,4.3078,4.3253,4.3224,4.3336,4.3426,4.3588,4.3623,4.4057,4.4662,4.4758,4.4879,4.46,4.4282,4.2953,4.2067,4.1242,4.0039,3.8963,3.8167,3.7758,3.7343,3.6759,3.6053,3.5349,3.4473,3.3173,3.1947,3.092,2.9758,2.8742,6.3576,6.256,6.1593,6.0691,5.9888,5.8925,5.9055,5.9838,5.8969,5.9039,5.9634,5.9819,5.9832,5.9826,5.9849,5.9604,5.8929,5.8337,5.7875,5.6745,5.6597,5.5129,5.353,5.2552,5.1924,5.1222,5.0518,5.0175,5.0239,5.0823,5.0734,5.019,5.0723,5.0794,5.0794,5.0744,5.0857,5.1017,5.0594,5.0241,4.994,4.9164,4.8186,4.723,4.6809,4.5684,4.4471,4.494,4.4688,4.3581,4.335,4.3586,4.3535,4.2766,4.192,4.1372,4.1209,4.1464,4.2055,4.2749,4.3576,4.4292,4.5242,4.6548,4.8028,4.8041,4.8539,4.8707,4.8266,4.7066,4.5439,4.4878,4.4579,4.4744,4.4892,4.5696,4.7384,4.8805,4.9103,4.8867,4.8748,4.8214,4.6395,4.577,4.4921,4.3747,4.3193,4.3104,4.3166,4.3232,4.3399,4.3701,4.4117,4.4758,4.4744,4.4745,4.4352,4.3929,4.271,4.1392,4.0419,3.9831,3.8894,3.8185,3.757,3.7369,3.7369,3.6719,3.599,3.5087,3.4081,3.299,3.169,3.0348,2.8991,6.2711,6.1679,6.0874,6.0396,6.0184,5.9602,5.9769,6.0291,5.987,5.9916,6.0448,6.0547,6.0427,6.0477,6.0661,6.0149,5.9091,5.8193,5.7314,5.6423,5.6141,5.5097,5.3541,5.2787,5.223,5.1163,5.0753,5.0538,5.0647,5.0909,5.0901,4.9936,5.0152,4.9948,4.9661,4.9625,4.9663,4.9791,4.9813,4.9643,4.927,4.8886,4.7955,4.6864,4.5952,4.4752,4.3739,4.4218,4.3914,4.3124,4.2923,4.323,4.3642,4.2828,4.209,4.1799,4.1553,4.1899,4.259,4.34,4.4089,4.4753,4.5586,4.6665,4.7748,4.812,4.8394,4.8471,4.7844,4.6504,4.3968,4.3763,4.3894,4.3735,4.3956,4.5048,4.6978,4.8573,4.9553,4.9409,4.9505,4.8693,4.7665,4.6844,4.5989,4.4715,4.4167,4.3899,4.3752,4.3886,4.3894,4.4122,4.4467,4.4744,4.472,4.4568,4.4061,4.3573,4.2669,4.1339,4.0232,3.9671,3.9044,3.8477,3.7992,3.8166,3.8166,3.7381,3.6841,3.6102,3.5238,3.3989,3.273,3.1317,3.0014,6.137,6.0368,5.9643,5.9669,6.0107,5.9838,5.996,6.0582,6.0433,6.0518,6.1221,6.0963,6.1315,6.1292,6.1507,6.0854,5.9407,5.7823,5.6573,5.6205,5.5963,5.5001,5.3704,5.3098,5.2516,5.1224,5.0997,5.1017,5.1051,5.1378,5.1066,5.0474,5.0099,4.9694,4.9061,4.8792,4.8779,4.8659,4.8848,4.901,4.8733,4.8413,4.7451,4.6443,4.5365,4.4341,4.3714,4.3698,4.3386,4.2481,4.2638,4.2935,4.3022,4.2949,4.2591,4.2562,4.2279,4.2645,4.3266,4.3973,4.4454,4.4794,4.542,4.629,4.7178,4.7699,4.7976,4.8031,4.7637,4.6321,4.3674,4.3346,4.3198,4.3055,4.3279,4.4432,4.6391,4.7854,4.882,4.9689,5.0079,4.9732,4.8625,4.7665,4.6778,4.5874,4.5272,4.4704,4.4474,4.422,4.4098,4.4278,4.4552,4.5155,4.5187,4.4973,4.4398,4.3734,4.2844,4.1674,4.0563,4.0344,3.9994,3.9035,3.8618,3.8772,3.8904,3.827,3.7687,3.7197,3.6162,3.477,3.352,3.228,3.1034,5.8402,5.87,5.755,5.7548,5.814,5.7421,5.8217,5.974,5.9951,6.0402,6.126,6.2709,6.2422,6.1911,6.2371,6.1358,5.9281,5.7391,5.6354,5.6177,5.5879,5.4957,5.4125,5.3334,5.2844,5.2432,5.1645,5.0875,5.0803,5.1094,5.1057,5.0185,5.0055,4.972,4.9059,4.8566,4.8393,4.8125,4.7947,4.7824,4.7886,4.6928,4.6194,4.5647,4.5065,4.4489,4.4025,4.3924,4.3635,4.2948,4.3336,4.313,4.2903,4.2847,4.2835,4.2797,4.2901,4.3335,4.4009,4.4318,4.4886,4.5405,4.5683,4.643,4.7245,4.7484,4.766,4.7989,4.7603,4.6413,4.4883,4.3882,4.3457,4.3241,4.3236,4.3806,4.5984,4.7702,4.8906,4.9947,5.0545,5.0663,4.9478,4.8348,4.7405,4.6489,4.5619,4.4691,4.4117,4.3914,4.3825,4.4061,4.4469,4.5146,4.587,4.5453,4.5092,4.4185,4.3441,4.2497,4.1573,4.1505,4.0995,4.003,3.9401,3.9405,3.9252,3.9099,3.8597,3.7992,3.6841,3.5579,3.4203,3.297,3.1693,5.5199,5.5144,5.4957,5.5307,5.5866,5.6095,5.7056,5.8517,5.9133,6.0104,6.1316,6.2534,6.2964,6.2605,6.2637,6.1537,5.9366,5.6958,5.6255,5.6188,5.5589,5.472,5.3997,5.3271,5.2984,5.2648,5.1996,5.1575,5.1369,5.1521,5.1164,5.0628,5.0534,5.0221,4.9455,4.9025,4.8553,4.8229,4.7571,4.7203,4.7268,4.5804,4.518,4.5212,4.4667,4.4049,4.3757,4.3574,4.357,4.3454,4.358,4.3513,4.3377,4.3441,4.345,4.327,4.3489,4.4078,4.4699,4.4924,4.5234,4.558,4.5632,4.6254,4.7044,4.7168,4.7223,4.7531,4.7372,4.6394,4.5069,4.4362,4.3894,4.3716,4.3587,4.4496,4.6247,4.803,4.9181,5.0171,5.0849,5.078,4.9802,4.8895,4.8055,4.7119,4.6044,4.5066,4.4098,4.3929,4.3984,4.4345,4.481,4.5275,4.5817,4.5749,4.5501,4.4804,4.413,4.3173,4.2571,4.2281,4.1881,4.1262,4.0669,4.0563,4.0214,4.0279,3.9473,3.8793,3.7657,3.6523,3.5103,3.3704,3.2413,5.239,5.2216,5.2785,5.3288,5.3937,5.4666,5.5731,5.6885,5.8024,5.9236,6.0733,6.2044,6.2949,6.2963,6.2475,6.1413,5.9763,5.7129,5.608,5.5881,5.496,5.4018,5.3576,5.3072,5.2894,5.2942,5.2235,5.2462,5.2322,5.2093,5.1601,5.1262,5.1261,5.0794,5.0039,4.9715,4.9179,4.8563,4.7905,4.7353,4.6544,4.5699,4.515,4.5475,4.4345,4.3798,4.3794,4.35,4.3632,4.3755,4.3793,4.3669,4.3921,4.4242,4.4198,4.3904,4.413,4.4646,4.4971,4.5196,4.5161,4.5336,4.5455,4.6172,4.684,4.7039,4.691,4.711,4.6961,4.6421,4.5591,4.4938,4.4705,4.4736,4.498,4.5572,4.7057,4.8491,4.9396,5.0384,5.1122,5.096,5.0074,4.9039,4.8154,4.7399,4.6319,4.5364,4.4598,4.4494,4.4582,4.5001,4.5366,4.5477,4.5821,4.6001,4.5738,4.5465,4.4999,4.4391,4.3647,4.3108,4.2795,4.2638,4.2815,4.2655,4.2136,4.1276,4.0388,3.958,3.8702,3.7339,3.5529,3.4369,3.334,5.0903,5.1998,5.1726,5.2242,5.3032,5.2839,5.3393,5.477,5.6443,5.7617,5.8762,6.1953,6.2994,6.2408,6.1711,6.1021,5.9699,5.7534,5.6112,5.5865,5.4459,5.3651,5.3445,5.257,5.2874,5.2969,5.2375,5.2278,5.2637,5.2494,5.2343,5.2161,5.15,5.0948,5.104,5.0555,4.9846,4.9285,4.8561,4.7535,4.6618,4.6544,4.6174,4.5767,4.5326,4.4956,4.4538,4.398,4.3847,4.4112,4.3941,4.3605,4.3484,4.4197,4.4456,4.4415,4.4427,4.4529,4.4766,4.498,4.5035,4.5261,4.5443,4.6045,4.665,4.7249,4.7276,4.6903,4.6925,4.6856,4.6448,4.6269,4.6343,4.6297,4.6272,4.6857,4.7995,4.8955,4.991,5.0388,5.1213,5.099,5.0442,4.9291,4.8195,4.7399,4.6517,4.5659,4.4991,4.4823,4.4852,4.511,4.5331,4.5537,4.5653,4.587,4.5943,4.589,4.5642,4.5347,4.4709,4.4186,4.434,4.4336,4.4556,4.4434,4.3571,4.2509,4.135,4.0214,3.9163,3.7636,3.584,3.4827,3.3927,4.9856,5.0488,5.102,5.125,5.1307,5.136,5.1804,5.2656,5.4122,5.5925,5.7807,6.0373,6.1905,6.2202,6.199,6.1319,6.0159,5.7766,5.6507,5.5792,5.4357,5.3294,5.3094,5.2524,5.2561,5.2831,5.2706,5.2775,5.2985,5.2795,5.2516,5.2745,5.2502,5.233,5.2102,5.1654,5.1031,5.0112,4.893,4.7955,4.7478,4.7037,4.6662,4.6494,4.6013,4.5486,4.4843,4.4235,4.3996,4.4095,4.3831,4.3802,4.391,4.4206,4.4257,4.4726,4.4479,4.4759,4.5362,4.5446,4.5437,4.5505,4.5749,4.6059,4.6541,4.7201,4.7998,4.8409,4.7911,4.7577,4.7464,4.7397,4.7139,4.7173,4.7454,4.7997,4.876,4.9625,5.0401,5.0784,5.1031,5.0896,5.056,4.9611,4.8496,4.7494,4.655,4.5661,4.5092,4.4857,4.4885,4.5105,4.5278,4.5438,4.5681,4.5832,4.6147,4.6048,4.5936,4.5754,4.5526,4.543,4.5535,4.5826,4.6115,4.5583,4.4888,4.3617,4.2316,4.0957,3.9512,3.7872,3.623,3.5158,3.424,4.9377,4.9872,5.0885,5.0999,5.047,5.0632,5.0666,5.0888,5.2337,5.4432,5.6918,5.9346,6.1576,6.2587,6.2529,6.1741,6.0497,5.8041,5.6862,5.5676,5.432,5.3062,5.2692,5.2268,5.2072,5.2594,5.2152,5.2412,5.27,5.2704,5.2516,5.3055,5.2888,5.296,5.2925,5.2559,5.1992,5.0915,4.9136,4.8415,4.8371,4.7527,4.7312,4.7059,4.6671,4.587,4.514,4.4453,4.4318,4.4414,4.3799,4.3823,4.4306,4.4166,4.4204,4.4558,4.4586,4.4881,4.5342,4.5598,4.5847,4.5877,4.6142,4.6212,4.6703,4.7309,4.823,4.9411,4.8502,4.8199,4.8317,4.8473,4.8413,4.8381,4.8599,4.9143,4.9622,5.0266,5.0769,5.1001,5.1208,5.0947,5.0514,4.9832,4.8824,4.7671,4.661,4.5635,4.5083,4.4611,4.4678,4.4718,4.5005,4.5286,4.5717,4.5903,4.6217,4.6341,4.6206,4.6048,4.5978,4.6224,4.6398,4.6894,4.7232,4.6727,4.5785,4.4495,4.3157,4.1617,4.0072,3.8326,3.6853,3.5606,3.459,4.9872,5.12,5.1728,5.1907,5.172,5.0528,4.9949,5.0116,5.1529,5.3315,5.5927,5.9728,6.2326,6.2993,6.2788,6.2018,6.0613,5.8018,5.6611,5.5237,5.3642,5.2637,5.2125,5.163,5.1246,5.1499,5.1383,5.1392,5.1688,5.2098,5.2337,5.2877,5.3065,5.2986,5.3015,5.3062,5.2413,5.1244,4.9578,4.8785,4.877,4.8302,4.7943,4.7806,4.7541,4.7182,4.659,4.5274,4.4574,4.4702,4.3902,4.3557,4.3971,4.3926,4.4034,4.4401,4.4678,4.4898,4.5239,4.519,4.4917,4.5114,4.557,4.6355,4.7046,4.7141,4.8191,4.9477,4.8757,4.8648,4.8997,4.9442,4.9544,4.9341,4.9451,4.9978,5.0411,5.063,5.1045,5.1303,5.1165,5.0833,5.033,4.9567,4.8679,4.7466,4.5845,4.4807,4.4549,4.4192,4.416,4.4256,4.4539,4.5071,4.5871,4.6191,4.6272,4.6556,4.6721,4.661,4.6429,4.6855,4.7098,4.7098,4.7232,4.7027,4.6556,4.5036,4.3598,4.2148,4.0458,3.8397,3.6522,3.4926,3.4533,5.1337,5.2739,5.3021,5.2523,5.1464,5.0607,5.0073,5.0045,5.1023,5.3309,5.6395,6.0279,6.2261,6.244,6.2737,6.2152,6.0613,5.8548,5.6985,5.515,5.3401,5.1915,5.1277,5.063,5.0034,5.0416,5.0485,5.089,5.1553,5.1424,5.1849,5.2332,5.3073,5.3656,5.3729,5.3246,5.2532,5.1523,5.0181,4.9249,4.909,4.8209,4.7486,4.6978,4.6642,4.591,4.5044,4.4334,4.3907,4.3595,4.3258,4.3357,4.3479,4.349,4.3685,4.4123,4.4493,4.4711,4.491,4.5039,4.5151,4.5151,4.5547,4.6051,4.6925,4.7216,4.7716,4.8425,4.9159,4.9216,4.9498,5.0112,5.0532,5.0057,5.0133,5.0707,5.0892,5.101,5.1297,5.1539,5.1024,5.0593,4.9981,4.9319,4.8313,4.7232,4.5528,4.4183,4.3877,4.3681,4.3826,4.3842,4.4082,4.4607,4.5366,4.5811,4.6311,4.6645,4.7088,4.6908,4.6703,4.7098,4.734,4.7364,4.716,4.6665,4.606,4.5117,4.3985,4.2566,4.0422,3.801,3.6269,3.4402,3.4284,5.1889,5.3479,5.4052,5.3264,5.1675,5.0878,5.0435,5.0416,5.126,5.3715,5.7482,6.0593,6.1848,6.1845,6.233,6.1883,6.0278,5.8462,5.6977,5.4974,5.291,5.1289,5.0321,4.9497,4.8934,4.9316,4.9358,4.9662,5.088,5.0639,5.1075,5.1954,5.2952,5.3382,5.3481,5.2997,5.2379,5.1503,5.0304,4.9241,4.8992,4.8068,4.6947,4.6374,4.5993,4.5397,4.457,4.3963,4.3485,4.3183,4.2894,4.2817,4.2952,4.3055,4.3235,4.3638,4.4038,4.4398,4.4479,4.4939,4.4998,4.4613,4.4837,4.5416,4.6072,4.667,4.7034,4.8415,4.919,4.9695,4.9737,5.0326,5.041,4.9974,5.0119,5.0595,5.0652,5.0795,5.1274,5.1738,5.0972,5.0202,4.9563,4.8854,4.7257,4.6193,4.4967,4.3797,4.335,4.3243,4.3389,4.3549,4.3772,4.4229,4.4784,4.514,4.5494,4.6359,4.6674,4.681,4.6906,4.7147,4.7077,4.6873,4.6561,4.6076,4.5291,4.43,4.369,4.2914,4.0351,3.7508,3.5743,3.419,3.4171,5.102,5.321,5.4651,5.4312,5.2755,5.1457,5.1024,5.1461,5.2909,5.5144,5.8079,6.0909,6.1745,6.1448,6.2047,6.14,5.9911,5.7956,5.6248,5.4662,5.2343,5.0958,4.9661,4.8632,4.7859,4.807,4.8004,4.8545,4.9884,4.9405,4.9992,5.0927,5.1762,5.2329,5.2524,5.1824,5.1458,5.1154,4.9801,4.8898,4.8117,4.733,4.6328,4.5587,4.5078,4.4418,4.3812,4.3402,4.2927,4.2673,4.2495,4.2407,4.2573,4.2467,4.2562,4.2815,4.3073,4.3168,4.3199,4.4228,4.4238,4.3638,4.3862,4.4282,4.4723,4.5304,4.6389,4.7923,4.867,4.9095,4.9567,5.0229,5.0041,4.9979,5.02,5.0322,5.0452,5.0743,5.1364,5.1523,5.0632,4.975,4.9136,4.8236,4.6384,4.5066,4.401,4.3371,4.2937,4.296,4.3177,4.3266,4.3403,4.3744,4.4232,4.4304,4.4787,4.5695,4.6211,4.6202,4.6318,4.6384,4.6319,4.6168,4.5846,4.5225,4.4313,4.3399,4.2522,4.1336,3.9445,3.7134,3.5173,3.4059,3.4082,5.2641,5.4092,5.5375,5.5383,5.4431,5.355,5.3247,5.3754,5.5962,5.7706,5.8841,6.1188,6.2013,6.1729,6.147,6.1102,5.9957,5.7646,5.5929,5.466,5.1904,5.0059,4.8739,4.7684,4.6917,4.6875,4.6806,4.7263,4.8246,4.8222,4.9,4.9995,5.0585,5.1512,5.2089,5.1802,5.1084,5.0435,4.9178,4.7995,4.7012,4.5727,4.4616,4.3877,4.3226,4.2796,4.2491,4.2244,4.1897,4.1591,4.129,4.1362,4.1282,4.1085,4.1369,4.159,4.1812,4.2161,4.2242,4.2711,4.3026,4.2821,4.2842,4.315,4.3645,4.4691,4.6011,4.7319,4.8142,4.8562,4.9116,4.9868,4.9947,4.9787,4.9958,5.0203,5.0368,5.0831,5.1243,5.1135,5.0543,4.9237,4.8381,4.7728,4.6113,4.4957,4.4094,4.3356,4.2762,4.2787,4.2949,4.2896,4.2988,4.3284,4.3512,4.3835,4.4061,4.4841,4.5208,4.5207,4.5351,4.5368,4.527,4.5148,4.4724,4.4248,4.3144,4.1971,4.0872,3.9509,3.8122,3.6878,3.5256,3.4259,3.4032,5.346,5.4943,5.6129,5.6641,5.6275,5.5018,5.4753,5.5852,5.805,5.915,5.9869,6.1487,6.2027,6.163,6.1274,6.0621,5.9749,5.7405,5.5543,5.4297,5.1361,4.94,4.7962,4.6736,4.6109,4.5829,4.608,4.6485,4.7649,4.767,4.8019,4.8584,4.931,4.9942,5.0647,5.0397,5.0197,4.9489,4.8475,4.7241,4.6107,4.4817,4.3486,4.2654,4.1838,4.1272,4.0897,4.0558,4.0224,3.9894,3.9746,3.9762,3.959,3.9741,4.0076,4.0286,4.0629,4.0877,4.0931,4.0914,4.1206,4.1452,4.162,4.2016,4.2532,4.3205,4.4714,4.604,4.7286,4.792,4.8429,4.9215,4.9452,4.9253,4.9408,4.9615,4.9835,5.0293,5.0457,5.0347,5.0262,4.8934,4.7768,4.6974,4.5922,4.5036,4.4177,4.3526,4.2821,4.272,4.2806,4.2685,4.2724,4.3062,4.325,4.3373,4.3664,4.4092,4.4151,4.4132,4.4087,4.4133,4.4016,4.3914,4.3334,4.2647,4.1723,4.0693,3.9811,3.8925,3.782,3.644,3.5066,3.4547,3.4087,5.3533,5.579,5.7053,5.8004,5.8085,5.5954,5.5929,5.7628,5.8413,5.9481,6.0705,6.1679,6.1858,6.1312,6.0886,6.0037,5.8766,5.6709,5.5184,5.3314,5.0968,4.9131,4.7486,4.6142,4.5574,4.5209,4.5249,4.5894,4.7316,4.6855,4.6645,4.7214,4.7934,4.8448,4.8792,4.9004,4.8965,4.846,4.7649,4.6515,4.5259,4.4243,4.3037,4.2073,4.1363,4.0769,4.0279,3.9773,3.9318,3.8958,3.8589,3.8437,3.8512,3.8725,3.8834,3.9071,3.9272,3.9423,3.9498,3.9348,3.9622,4.0069,4.0746,4.1063,4.1454,4.1908,4.32,4.4705,4.6019,4.6804,4.7522,4.8065,4.8604,4.8635,4.8718,4.8898,4.9017,4.9249,4.9343,4.941,4.9475,4.8723,4.7674,4.6731,4.6088,4.5365,4.4699,4.4196,4.3424,4.2613,4.2588,4.2537,4.2664,4.2767,4.2856,4.2856,4.2824,4.296,4.2938,4.2977,4.285,4.2928,4.2946,4.2614,4.1798,4.0964,4.0529,3.9864,3.9067,3.8115,3.7401,3.6737,3.5527,3.4566,3.4049,5.4356,5.5805,5.7911,5.8699,5.8437,5.7986,5.7997,5.8379,5.9967,6.104,6.1079,6.1902,6.1897,6.1361,6.0501,5.9426,5.7997,5.6441,5.488,5.2947,5.0758,4.9223,4.7812,4.6431,4.5647,4.5148,4.5049,4.5125,4.5556,4.5353,4.5928,4.6467,4.6885,4.7137,4.7377,4.7578,4.7605,4.7372,4.6665,4.5681,4.4216,4.2983,4.2027,4.1327,4.0301,3.9829,3.9498,3.8714,3.8138,3.7493,3.7146,3.6843,3.5889,3.6428,3.6875,3.7331,3.7597,3.7796,3.7902,3.8307,3.8704,3.8991,3.9736,4.0375,4.0685,4.1123,4.2036,4.356,4.4789,4.5608,4.6625,4.7292,4.789,4.8201,4.8315,4.8569,4.8688,4.8883,4.8925,4.9022,4.9088,4.8638,4.7591,4.6883,4.6089,4.5555,4.5209,4.4838,4.4151,4.3284,4.2631,4.2605,4.2447,4.2548,4.2182,4.196,4.1839,4.1788,4.1744,4.185,4.1832,4.1918,4.19,4.1606,4.1038,4.0389,3.9708,3.9034,3.8698,3.7863,3.7176,3.6668,3.5924,3.5019,3.4011,5.5327,5.6881,5.8518,5.9186,5.9321,6.0131,6.0165,5.9968,6.1264,6.1849,6.1987,6.2266,6.2029,6.1417,6.0185,5.8751,5.7229,5.5865,5.4391,5.2642,5.0638,4.9224,4.7905,4.6736,4.5793,4.5253,4.5099,4.5275,4.5122,4.5178,4.5677,4.5789,4.6017,4.607,4.6344,4.6751,4.6645,4.6258,4.5616,4.4864,4.3547,4.2021,4.1287,4.0563,3.9424,3.8839,3.8477,3.7702,3.656,3.5723,3.5346,3.4742,3.4158,3.4551,3.5422,3.5856,3.5939,3.615,3.6438,3.6951,3.7548,3.817,3.8885,3.9722,4.0341,4.0827,4.1883,4.3026,4.3645,4.4472,4.5607,4.6595,4.728,4.7873,4.814,4.8438,4.8553,4.8663,4.8716,4.8879,4.8721,4.8352,4.766,4.6928,4.6428,4.6374,4.6215,4.6079,4.5203,4.4018,4.3256,4.2682,4.2527,4.2398,4.193,4.1616,4.1524,4.1297,4.0597,4.0709,4.0837,4.086,4.0782,4.0692,4.0606,3.9946,3.94,3.8927,3.8516,3.7613,3.693,3.6659,3.5958,3.5078,3.42,5.6191,5.8562,5.9157,6.0021,6.0731,6.2032,6.2116,6.1616,6.2092,6.2522,6.2945,6.2632,6.2212,6.1426,5.9935,5.8313,5.6825,5.5348,5.3929,5.2276,5.0396,4.9014,4.809,4.6753,4.6032,4.5496,4.5214,4.5242,4.5647,4.5432,4.4989,4.5114,4.5167,4.5288,4.5602,4.6354,4.6214,4.5649,4.5219,4.4551,4.3606,4.2312,4.1198,4.0666,3.9297,3.8079,3.7399,3.6081,3.4513,3.3922,3.3467,3.2946,3.2811,3.29,3.377,3.436,3.4534,3.4756,3.5179,3.5711,3.6402,3.7109,3.8007,3.9016,3.9685,4.0463,4.1396,4.2454,4.3229,4.4035,4.5054,4.6156,4.69,4.7509,4.7951,4.8072,4.8171,4.8377,4.8534,4.8617,4.8477,4.8134,4.794,4.7239,4.7142,4.7163,4.7295,4.7136,4.637,4.5123,4.4146,4.3201,4.2863,4.2632,4.2086,4.1772,4.1533,4.1028,4.0285,4.0,4.0439,4.0114,3.9504,3.9778,4.0197,3.9785,3.9273,3.8687,3.8022,3.7254,3.6794,3.6628,3.595,3.4906,3.4316,5.6947,5.8515,6.052,6.1984,6.2966,6.34,6.3215,6.2861,6.3477,6.3444,6.3126,6.2715,6.2101,6.1251,5.9781,5.8245,5.6809,5.5036,5.352,5.2175,5.0538,4.9575,4.8765,4.7258,4.6491,4.5986,4.5569,4.5298,4.5302,4.4958,4.4529,4.4676,4.4665,4.4858,4.5259,4.5998,4.5915,4.5431,4.5138,4.4529,4.3533,4.2462,4.1388,4.0593,3.9373,3.8132,3.7127,3.5788,3.4324,3.3276,3.2565,3.2104,3.1699,3.1716,3.2127,3.2788,3.3224,3.3607,3.4103,3.4801,3.5572,3.6354,3.7163,3.8135,3.9066,3.9979,4.0893,4.1972,4.2957,4.371,4.4502,4.5543,4.6551,4.7196,4.7904,4.788,4.7885,4.806,4.8307,4.8345,4.8283,4.8195,4.7959,4.7894,4.7799,4.791,4.818,4.8027,4.7503,4.6461,4.5475,4.452,4.3544,4.3101,4.2528,4.177,4.1423,4.1071,4.04,4.0281,4.016,3.9898,3.9623,3.9655,3.9756,3.9281,3.8769,3.8077,3.7385,3.6769,3.6562,3.6345,3.5574,3.4566,3.4108,5.8788,6.0224,6.203,6.328,6.3969,6.4,6.3823,6.3748,6.4054,6.385,6.3244,6.2711,6.1999,6.1026,5.9507,5.8117,5.673,5.4916,5.3742,5.2456,5.1024,5.0088,4.8987,4.8014,4.7274,4.669,4.6519,4.6107,4.5696,4.5541,4.5585,4.5153,4.4987,4.4892,4.5414,4.5746,4.5989,4.5915,4.5646,4.5034,4.3868,4.2756,4.1619,4.0593,3.9222,3.7935,3.6279,3.4848,3.3163,3.1984,3.1104,3.1021,3.0812,3.1003,3.1309,3.1909,3.2383,3.2768,3.3515,3.4199,3.5022,3.5871,3.674,3.7755,3.8564,3.9518,4.0171,4.124,4.2349,4.3218,4.3806,4.4693,4.5963,4.6947,4.78,4.817,4.806,4.8102,4.8122,4.7824,4.8113,4.8449,4.8443,4.8593,4.8574,4.8686,4.8958,4.8625,4.8126,4.7595,4.6706,4.5713,4.4704,4.357,4.278,4.1991,4.1254,4.0873,4.072,4.0074,3.9792,3.9842,3.9836,3.9614,3.9243,3.8602,3.7998,3.7527,3.6809,3.6213,3.6213,3.6254,3.5289,3.4452,3.3918,6.1054,6.2944,6.4035,6.4522,6.459,6.4453,6.4299,6.421,6.4132,6.3802,6.3357,6.2843,6.1884,6.0603,5.9104,5.7709,5.6351,5.493,5.3913,5.2902,5.1287,5.074,4.996,4.8894,4.8238,4.7796,4.7572,4.742,4.7174,4.689,4.6452,4.6126,4.5761,4.5365,4.5613,4.5917,4.6201,4.6141,4.6098,4.6098,4.4904,4.3383,4.2134,4.0567,3.8818,3.699,3.5443,3.3708,3.1922,3.0978,3.0232,3.0126,3.0319,3.0558,3.0857,3.1277,3.1727,3.2445,3.3122,3.4017,3.4823,3.5649,3.6611,3.7356,3.8237,3.8929,3.9574,4.0448,4.155,4.2556,4.3199,4.391,4.5317,4.6551,4.7429,4.8298,4.8102,4.8056,4.7863,4.7532,4.7969,4.8489,4.8826,4.908,4.9249,4.9465,4.937,4.898,4.8483,4.8083,4.7424,4.652,4.5486,4.4454,4.3431,4.2562,4.1703,4.1384,4.109,4.0168,3.9491,3.9651,3.9637,3.9337,3.8935,3.8274,3.758,3.7138,3.6455,3.5881,3.5902,3.5938,3.5273,3.4509,3.388,6.2799,6.5783,6.6745,6.6911,6.6598,6.6201,6.5396,6.4355,6.4081,6.3677,6.3146,6.2877,6.2261,6.106,5.944,5.8286,5.7346,5.5589,5.4304,5.3466,5.2193,5.1683,5.1046,5.0121,4.949,4.9086,4.8585,4.8172,4.8264,4.7799,4.6982,4.6083,4.5674,4.5568,4.588,4.6052,4.6243,4.6414,4.6288,4.6288,4.5641,4.4269,4.3042,4.1308,3.912,3.7363,3.549,3.3322,3.1979,3.1064,3.0533,3.0107,3.0122,3.0418,3.0829,3.0888,3.1357,3.2044,3.2859,3.3914,3.4863,3.5329,3.62,3.7071,3.7804,3.8532,3.9045,3.9536,4.0741,4.1987,4.2682,4.3277,4.4448,4.5693,4.6668,4.7303,4.7586,4.7778,4.7843,4.7728,4.7993,4.8499,4.9024,4.9249,4.9474,4.9699,4.9967,4.9463,4.8545,4.8295,4.7914,4.7012,4.6027,4.554,4.4726,4.3514,4.2736,4.2312,4.1638,4.065,3.9868,3.9708,3.9522,3.9396,3.8784,3.8073,3.7459,3.6813,3.6383,3.5902,3.5838,3.5771,3.5257,3.4528,3.3861]}]]